     2              OBSERVATION DATA    G (GPS)             RINEX VERSION / TYPE
ASRINEXO V2.9.7 UX USGS/MENLO_PARK 05-OCT-99 13:57          PGM / RUN BY / DATE
                                                            COMMENT
National Earthquake Hazard Reduction Program                COMMENT
Crustal Strain Project                                      COMMENT
345 Middlefield Road, MS/977                                COMMENT
U.S. Geological Survey, Menlo Park, California 94025        COMMENT
Contact: kwendt@isdmnl.wr.usgs.gov (Ph: 650-329-4866)       COMMENT
HI's are vertical to base of antenna                        COMMENT
BIT 2 OF LLI (+4) FLAGS DATA COLLECTED UNDER "AS" CONDITION COMMENT
ctnp                                                        MARKER NAME
JJB                                                         OBSERVER / AGENCY
192 ASHTECH Z-XII3 CD00                                     REC # / TYPE / VERS
CR14333 ASH700936D_M NONE                                   ANT # / TYPE
 -2339738.0000 -4140036.0000  4238851.0000                  APPROX POSITION XYZ
        0.6115        0.0000        0.0000                  ANTENNA: DELTA H/E/N
     1     1                                                WAVELENGTH FACT L1/2
     5    C1    L1    L2    P1    P2                        # / TYPES OF OBSERV
    30                                                      INTERVAL
  1999     9    17    15    40    0.000000                  TIME OF FIRST OBS
                                                            END OF HEADER
 99  9 17 15 40  0.0000000  0  7 03 22 23 21 17 26 06
  22362222.167     -409826.405 8   -299903.47246  22362222.206    22362228.5154
  24632664.925      175779.611 7    130945.91245  24632662.143    24632671.2914
  20658367.418     -102221.750 9    -75127.44648  20658367.030    20658373.3344
  22277644.490     -381959.528 8   -282227.17247  22277644.558    22277651.6044
  20610324.105       -4285.63247                  20610323.650    20610330.4164
  22739372.107      171041.068 8    125151.64046  22739372.820    22739380.1754
  23710309.487      338439.006 7    250511.55945  23710309.644    23710318.3984
 99  9 17 15 40 30.0000000  0  7 03 22 23 21 17 26 06
  22280498.531     -839286.907 8   -634548.04546  22280498.612    22280504.9414
  24578899.872     -106754.958 7    -89211.03845  24578899.202    24578907.2904
  20590776.169     -457415.747 9   -351902.01248  20590775.882    20590782.1894
  22196951.390     -806005.051 8   -612652.25447  22196951.341    22196958.4154
  20546079.131     -367122.72019   -267358.17547  20546078.776    20546085.4914
  22684455.709     -117548.668 8    -99723.55046  22684456.158    22684463.3994
  23663139.484       90558.380 7     57357.68445  23663139.440    23663148.4104
 99  9 17 15 41  0.0000000  0  7 03 22 23 21 17 26 06
  22267149.737     -909435.850 8   -689209.58146  22267149.763    22267156.0734
  24593459.648      -30242.001 7    -29590.69045  24593458.983    24593467.1114
  20591540.921     -453397.203 9   -348770.70048  20591540.633    20591546.9184
  22184598.039     -870922.627 8   -663237.38747  22184597.942    22184605.0514
  20550188.890     -345525.955 9   -250529.57347  20550188.581    20550195.2624
  22697927.377      -46754.887 8    -44559.64746  22697927.822    22697934.9984
  23684290.134      201705.333 7    143965.56645  23684290.187    23684299.0584
 99  9 17 15 41 30.0000000  0  7 03 22 23 21 17 26 06
  22253883.359     -979151.503 8   -743533.49446  22253883.367    22253889.6134
  24608051.340       46438.547 7     30160.24645  24608050.751    24608059.0804
  20592368.463     -449048.820 9   -345382.37148  20592368.190    20592374.4504
  22172291.809     -935592.562 8   -713629.54847  22172291.702    22172298.8094
  20554358.849     -323612.948 9   -233454.54747  20554358.514    20554365.2004
  22711495.767       24547.251 8     11000.39646  22711496.189    22711503.4244
  23705465.736      312983.476 8    230675.69645  23705465.717    23705474.5594
 99  9 17 15 42  0.0000000  0  8 03 22 23 21 17 29 26 06
  22240699.267    -1048434.519 8   -797520.28246  22240699.264    22240705.5874
  24622671.038      123265.970 7     90025.64545  24622670.519    24622678.8694
  20593255.691     -444386.445 9   -341749.36948  20593255.436    20593261.7204
  22160031.206    -1000022.664 8   -763834.82747  22160031.050    22160038.2184
  20558586.805     -301395.106 9   -216141.98547  20558586.457    20558593.1404
  24153935.471    24153927.644                                    24153979.0504
  22725154.867       96326.073 8     66931.86246  22725155.322    22725162.5054
  23726660.901      424364.048 7    317465.63245  23726660.924    23726669.6244
 99  9 17 15 42 30.0000000  0  8 03 22 23 21 17 29 26 06
  22227597.229    -1117286.077 8   -851170.87046  22227597.265    22227603.6364
  24637316.283      200227.002 7    149995.13845  24637315.741    24637324.2194
  20594204.170     -439402.363 9   -337865.69148  20594203.909    20594210.1754
  22147818.260    -1064202.293 8   -813844.92347  22147818.085    22147825.2764
  20562869.977     -278886.974 9   -198603.22047  20562869.622    20562876.3244
  24133022.499    24133027.942                                    24133156.3144
  22738901.281      168563.432 8    123220.63346  22738901.695    22738908.9244
  23747876.231      535851.188 7    404338.60145  23747876.297    23747885.0794
 99  9 17 15 43  0.0000000  0  8 03 22 23 21 17 29 26 06
  22214576.772    -1185709.232 8   -904487.62846  22214576.779    22214583.1484
  24651986.735      277320.465 7    210067.82145  24651986.335    24651994.7704
  20595216.048     -434084.869 9   -333722.20948  20595215.799    20595222.0844
  22135650.175    -1128146.258 8   -863671.40047  22135650.018    22135657.2344
  20567210.623     -256076.935 9   -180829.21047  20567210.277    20567216.9894
  24112118.493    24112123.624                                    24112128.7134
  22752733.830      241253.119 8    179861.84346  22752734.230    22752741.4534
  23769111.608      647443.455 7    491293.49045  23769111.647    23769120.4024
 99  9 17 15 43 30.0000000  0  8 03 22 23 21 17 29 26 06
  22201637.182    -1253707.182 8   -957473.07346  22201637.226    22201643.5924
  24666678.743      354527.021 7    270228.63345  24666678.264    24666686.6634
  20596294.097     -428419.938 9   -329307.99648  20596293.842    20596300.1454
  22123525.090    -1191864.198 8   -913321.74847  22123524.923    22123532.1464
  20571614.086     -232937.074 9   -162798.19347  20571613.718    20571620.4214
  24091221.667     -385788.20755                  24091220.925    24091231.1684
  22766650.294      314383.830 8    236846.75046  22766650.616    22766657.8104
  23790372.648      759170.401 8    578353.32645  23790372.638    23790381.4334
 99  9 17 15 44  0.0000000  0  8 03 22 23 21 17 29 26 06
  22188780.732    -1321268.764 8  -1010118.49446  22188780.756    22188787.1134
  24681394.971      431860.764 7    330488.54645  24681394.436    24681403.0364
  20597440.469     -422395.828 9   -324613.90648  20597440.239    20597446.5524
  22111447.032    -1255334.898 8   -962779.43947  22111446.884    22111454.0934
  20576081.357     -209461.691 9   -144505.72847  20576080.966    20576087.6884
  24070334.494    -1050722.01517   -471317.56145  24070335.793    24070343.5324
  22780650.349      387954.271 8    294174.31746  22780650.724    22780657.8894
  23811664.138      871057.441 7    665537.90345  23811664.248    23811673.0694
 99  9 17 15 44 30.0000000  0  8 03 22 23 21 17 29 26 06
  22176005.895    -1388401.604 8  -1062429.83746  22176005.880    22176012.2074
  24696140.732      509349.719 7    390869.40345  24696140.108    24696149.0394
  20598655.832     -416009.329 9   -319637.43548  20598655.597    20598661.9124
  22099419.529    -1318540.124 8  -1012030.26247  22099419.340    22099426.5454
  20580612.184     -185652.007 9   -125952.77147  20580611.799    20580618.5474
  24049460.965    -1160413.586 7   -556791.52745  24049461.195    24049470.1624
  22794737.017      461979.807 8    351856.48546  22794737.382    22794744.6424
  23832988.849      983119.105 7    752858.55145  23832988.935    23832997.8154
 99  9 17 15 45  0.0000000  0  8 03 22 23 21 17 29 26 06
  22163312.282    -1455107.086 8  -1114408.15746  22163312.248    22163318.5864
  24710915.446      586991.098 7    451369.02145  24710914.929    24710923.7754
  20599940.464     -409258.688 9   -314377.21648  20599940.228    20599946.5534
  22087441.338    -1381485.739 8  -1061078.79347  22087441.193    22087448.4004
  20585207.182     -161505.207 9   -107137.12047  20585206.788    20585213.5834
  24028602.839    -1270024.197 7   -642202.40545  24028603.114    24028612.0214
  22808909.361      536455.735 8    409889.60346  22808909.700    22808916.9874
  23854348.331     1095363.498 8    840321.59645  23854348.348    23854357.3354
 99  9 17 15 45 30.0000000  0  8 03 22 23 21 17 29 26 06
  22150701.235    -1521378.434 8  -1166048.20246  22150701.229    22150707.6064
  24725718.278      664779.820 7    511983.46845  24725717.801    24725726.4064
  20601293.786     -402146.954 9   -308835.62948  20601293.561    20601299.9234
  22075518.576    -1444140.618 8  -1109900.78447  22075518.416    22075525.6114
  20589863.972     -137033.562 9    -88068.34547  20589863.614    20589870.4464
  24007761.227    -1379548.081 7   -727545.71745  24007761.622    24007770.4424
  22823166.752      611378.265 8    468270.74346  22823167.090    22823174.3774
  23875743.416     1207794.743 7    927930.21945  23875743.407    23875752.4424
 99  9 17 15 46  0.0000000  0  8 03 22 23 21 17 29 26 06
  22138175.624    -1587201.314 8  -1217338.77846  22138175.600    22138182.0124
  24740550.733      742723.700 7    572718.82345  24740550.323    24740558.7834
  20602712.596     -394691.377 9   -303026.10848  20602712.349    20602718.7264
  22063651.717    -1506501.387 8  -1158493.58547  22063651.542    22063658.8074
  20594580.563     -112248.054 9    -68755.00147  20594580.189    20594587.0364
  23986935.022    -1488990.336 7   -812825.41245  23986935.351    23986944.2184
  22837509.433      686749.210 8    527001.26546  22837509.791    22837517.0804
  23897167.670     1320379.497 8   1015658.46745  23897167.695    23897176.8374
 99  9 17 15 46 30.0000000  0  8 03 22 23 21 17 29 26 06
  22125733.902    -1652583.092 8  -1268285.64646  22125733.913    22125740.3464
  24755408.449      820800.899 7    633558.04445  24755407.967    24755416.5314
  20604195.874     -386896.889 9   -296952.50648  20604195.652    20604202.0214
  22051835.405    -1568596.813 8  -1206879.64047  22051835.232    22051842.4404
  20599360.477      -87129.740 9    -49182.33047  20599360.110    20599366.9674
  23966122.663    -1598360.160 7   -898048.67445  23966122.908    23966131.8934
  22851936.454      762563.547 8    586077.30746  22851936.873    22851944.1034
  23918618.112     1433101.289 8   1103493.50245  23918618.105    23918627.1594
 99  9 17 15 47  0.0000000  0  8 03 22 23 21 17 29 26 06
  22113379.258    -1717507.675 8  -1318876.24846  22113379.246    22113385.6654
  24770286.953      898987.020 7    694482.14645  24770286.407    24770295.0004
  20605744.858     -378757.231 9   -290609.93248  20605744.630    20605750.9894
  22040066.018    -1630445.442 8  -1255073.37647  22040065.810    22040073.0534
  20604206.076      -61666.353 9    -29340.76747  20604205.705    20604212.5784
  23945322.243    -1707667.390 7   -983223.16045  23945322.358    23945331.4264
  22866447.969      838821.368 8    645498.92646  22866448.347    22866455.6254
  23940092.831     1545950.920 7   1191428.16845  23940092.848    23940101.9434
 99  9 17 15 47 30.0000000  0  8 03 22 23 21 17 29 26 06
  22101112.650    -1781969.423 8  -1369106.19946  22101112.628    22101119.0934
  24785187.705      977290.356 7    755497.58045  24785187.221    24785195.8214
  20607359.572     -370272.100 9   -283998.16548  20607359.352    20607365.7174
  22028344.075    -1692044.884 8  -1303072.94447  22028343.885    22028351.1074
  20609118.872      -35849.923 9     -9224.11047  20609118.504    20609125.4074
  23924533.024    -1816915.721 7  -1068351.74945  23924533.190    23924542.0964
  22881046.558      915536.914 8    705277.23046  22881046.931    22881054.2044
  23961587.500     1658905.611 7   1279444.70045  23961587.598    23961596.7144
 99  9 17 15 48  0.0000000  0  8 03 22 23 21 17 29 26 06
  22088933.156    -1845973.174 8  -1418979.27846  22088933.160    22088939.6414
  24800111.822     1055716.424 7    816608.66745  24800111.349    24800119.8674
  20609041.441     -361433.942 9   -277111.30648  20609041.218    20609047.6044
  22016666.213    -1753412.478 8  -1350891.84747  22016666.019    22016673.2414
  20614099.715       -9675.430 9     11171.55547  20614099.366    20614106.2814
  23903754.529    -1926107.604 7  -1153436.33945  23903754.665    23903763.5904
  22895732.605      992712.082 8    765413.66446  22895732.934    22895740.1974
  23983100.644     1771957.168 7   1367536.69545  23983100.685    23983109.7634
 99  9 17 15 48 30.0000000  0  8 03 22 23 21 17 29 26 06
  22076839.008    -1909528.771 8  -1468503.14146  22076838.972    22076845.4174
  24815058.479     1134260.944 7    877812.03745  24815058.032    24815066.5964
  20610792.023     -352234.836 9   -269943.19148  20610791.796    20610798.1744
  22005032.800    -1814546.500 8  -1398528.74547  22005032.623    22005039.8594
  20619148.541       16856.244 9     31845.54547  20619148.201    20619155.1364
  23882989.368    -2035229.711 7  -1238466.55245  23882989.480    23882998.4414
  22910507.069     1070352.474 8    825912.58146  22910507.376    22910514.8664
  24004635.312     1885122.293 7   1455717.18245  24004635.546    24004644.5534
 99  9 17 15 49  0.0000000  0  8 03 22 23 21 17 29 26 06
  22064830.723    -1972632.712 8  -1517675.06646  22064830.646    22064837.1484
  24830028.269     1212926.915 7    939110.03945  24830027.739    24830036.3164
  20612611.323     -342674.521 9   -262493.60948  20612611.096    20612617.4674
  21993447.460    -1875428.039 8  -1445968.89647  21993447.273    21993454.5274
  20624261.710       43725.795 9     52782.81547  20624261.401    20624268.3334
  23862238.623    -2144275.574 7  -1323437.34245  23862238.796    23862247.7504
  22925369.527     1148454.733 8    886771.41246  22925369.856    22925377.3054
  24026192.443     1998405.438 7   1543989.63745  24026192.583    24026201.8034
 99  9 17 15 49 30.0000000  0  8 03 22 23 21 17 29 26 06
  22052908.198    -2035286.035 8  -1566495.86546  22052908.179    22052914.6734
  24845020.768     1291712.059 7   1000500.90245  24845020.240    24845028.8794
  20614497.337     -332763.594 9   -254770.82848  20614497.110    20614503.4674
  21981915.055    -1936031.368 8  -1493192.27147  21981914.877    21981922.1004
  20629437.569       70924.849 9     73976.84047  20629437.258    20629444.1864
  23841504.271    -2253235.479 7  -1408341.14245  23841504.490    23841513.4134
  22940318.631     1227011.898 8    947984.71446  22940318.987    22940326.2694
  24047772.051     2111806.663 7   1632354.10745  24047772.154    24047781.5454
 99  9 17 15 50  0.0000000  0  8 03 22 23 21 17 29 26 06
  22041072.250    -2097484.696 8  -1614962.37746  22041072.213    22041078.6964
  24860031.426     1370592.891 7   1061966.33345  24860030.918    24860039.4794
  20616447.944     -322513.340 9   -246783.63448  20616447.730    20616454.0954
  21970437.555    -1996346.296 8  -1540190.91047  21970437.343    21970444.5814
  20634674.868       98446.627 9     95422.33747  20634674.532    20634681.4914
  23820789.293    -2362093.433 7  -1493165.49345  23820789.581    23820798.4534
  22955350.460     1306003.998 8   1009536.94146  22955350.781    22955358.1114
  24069377.859     2225345.461 7   1720825.77245  24069377.996    24069387.3754
 99  9 17 15 50 30.0000000  0  8 03 22 23 21 17 29 26 06
  22029323.497    -2159224.652 8  -1663071.46246  22029323.507    22029330.0144
  24875056.691     1449550.809 7   1123491.82445  24875056.176    24875064.9244
  20618460.747     -311936.097 9   -238541.64248  20618460.527    20618466.9034
  21959014.424    -2056375.340 8  -1586966.78547  21959014.241    21959021.4804
  20639974.448      126295.742 9    117122.90947  20639974.093    20639981.0394
  23800095.782    -2470838.278 7  -1577901.68445  23800096.026    23800105.0574
  22970463.340     1385422.565 8   1071421.47246  22970463.609    22970471.0284
  24091009.538     2339019.882 7   1809403.13745  24091009.561    24091018.9424
 99  9 17 15 51  0.0000000  0  8 03 22 23 21 17 29 26 06
  22017663.258    -2220499.794 8  -1710818.34846  22017663.269    22017669.7864
  24890095.945     1528582.044 7   1185074.45045  24890095.456    24890104.0644
  20620536.205     -301029.769 9   -230043.22348  20620535.980    20620542.3484
  21947647.443    -2116109.246 8  -1633512.67947  21947647.240    21947654.4974
  20645334.854      154464.689 9    139072.69647  20645334.512    20645341.4534
  23779423.410    -2579472.167 7  -1662551.42745  23779423.687    23779432.7224
  22985655.826     1465259.586 8   1133632.06146  22985656.161    22985663.5554
  24112665.590     2452822.720 7   1898080.55345  24112665.619    24112675.1074
 99  9 17 15 51 30.0000000  0  8 03 22 23 21 17 29 26 06
  22006092.510    -2281304.755 8  -1758198.86446  22006092.519    22006099.0514
  24905149.568     1607688.619 7   1246715.77245  24905149.064    24905157.8374
  20622671.490     -289808.904 9   -221299.70748  20622671.262    20622677.6414
  21936333.865    -2175562.542 8  -1679839.91547  21936333.702    21936340.9214
  20650757.132      182958.788 9    161275.84947  20650756.789    20650763.7594
  23758772.257    -2687994.737 7  -1747114.41845  23758772.554    23758781.5324
  23000929.018     1545520.292 8   1196172.80046  23000929.308    23000936.7404
  24134345.164     2566749.478 7   1986854.53845  24134345.231    24134354.7114
 99  9 17 15 52  0.0000000  0  8 03 22 23 21 17 29 26 06
  21994610.239    -2341644.383 8  -1805216.78146  21994610.288    21994616.8394
  24920216.618     1686866.027 7   1308412.29245  24920216.133    24920225.0644
  20624865.977     -278276.983 9   -212313.81348  20624865.752    20624872.1084
  21925065.668    -2234777.377 8  -1725981.34347  21925065.513    21925072.7334
  20656242.300      211783.394 9    183736.54047  20656241.961    20656248.9494
  23738141.945    -2796407.763 7  -1831592.03545  23738142.246    23738151.2274
  23016282.170     1626201.949 8   1259041.55346  23016282.549    23016290.0344
  24156046.349     2680789.597 7   2075716.84745  24156046.457    24156055.9474
 99  9 17 15 52 30.0000000  0  8 03 22 23 21 17 29 26 06
  21983216.426    -2401519.831 8  -1851872.99247  21983216.476    21983223.0004
  24935298.045     1766118.687 7   1370167.46745  24935297.682    24935306.4864
  20627118.776     -266438.554 9   -203089.07648  20627118.553    20627124.9074
  21913839.323    -2293772.121 8  -1771951.26947  21913839.185    21913846.4204
  20661789.893      240935.858 9    206452.70947  20661789.561    20661796.5534
  23717529.565    -2904726.464 7  -1915996.15045  23717529.906    23717538.9174
  23031715.818     1707305.648 8   1322239.17146  23031716.155    23031723.6214
  24177765.138     2794922.229 7   2164651.22945  24177765.121    24177774.8014
 99  9 17 15 53  0.0000000  0  8 03 22 23 21 17 29 26 06
  21971911.703    -2460926.845 8  -1898164.19147  21971911.722    21971918.2654
  24950394.773     1845451.583 7   1431985.15445  24950394.251    24950403.2154
  20629427.924     -254304.226 9   -193633.77248  20629427.694    20629434.0474
  21902655.300    -2352544.910 8  -1817748.23947  21902655.127    21902662.3654
  20667398.689      270410.116 9    229419.62047  20667398.368    20667405.3834
  23696933.785    -3012958.116 7  -2000332.43945  23696934.113    23696942.9914
  23047228.270     1788824.039 8   1385759.93146  23047228.656    23047236.1874
  24199498.169     2909129.507 7   2253643.79645  24199498.225    24199507.9514
 99  9 17 15 53 30.0000000  0  7 03 23 21 17 29 26 06
  21960695.645    -2519867.393 8  -1944091.90447  21960695.707    21960702.2584
  20631792.352     -241879.075 9   -183951.85648  20631792.127    20631798.4764
  21891510.004    -2411113.862 8  -1863386.38347  21891509.833    21891517.0514
  20673072.668      300226.813 9    252653.36747  20673072.350    20673079.3834
  23676353.895    -3121106.280 7  -2084603.66745  23676354.211    23676363.0304
  23062817.885     1870747.461 8   1449596.31046  23062818.243    23062825.7374
  24221242.921     3023398.208 7   2342684.20645  24221243.012    24221252.6464
 99  9 17 15 54  0.0000000  0  7 03 23 21 17 29 26 06
  21949570.943    -2578328.625 8  -1989646.11747  21949570.958    21949577.5134
  20634220.565     -229118.953 9   -174008.92448  20634220.336    20634226.6834
  21880409.374    -2469448.329 8  -1908841.80647  21880409.188    21880416.3844
  20678814.449      330399.786 9    276164.73647  20678814.115    20678821.1484
  23655792.952    -3229154.820 7  -2168797.28645  23655793.145    23655802.0194
  23078485.170     1953079.277 8   1513750.89446  23078485.497    23078493.1264
  24242999.915     3137731.100 7   2431774.65045  24242999.871    24243009.6844
 99  9 17 15 54 30.0000000  0  7 03 23 21 17 29 26 06
  21938536.502    -2636315.269 8  -2034830.54047  21938536.507    21938543.0704
  20636712.105     -216025.956 9   -163806.61048  20636711.872    20636718.2274
  21869357.960    -2527524.041 8  -1954095.60047  21869357.759    21869364.9404
  20684621.488      360915.927 9    299943.50447  20684621.165    20684628.2054
  23635247.701    -3337120.921 7  -2252926.66345  23635247.868    23635256.6504
  23094225.281     2035793.863 8   1578203.77146  23094225.649    23094233.2994
  24264767.383     3252119.646 7   2520908.45445  24264767.292    24264777.1624
 99  9 17 15 55  0.0000000  0  7 03 23 21 17 29 26 06
  21927596.552    -2693805.326 8  -2079627.99547  21927596.580    21927603.0954
  20639271.808     -202574.505 9   -153324.97948  20639271.580    20639277.9754
  21858360.616    -2585315.717 8  -1999128.07047  21858360.432    21858367.5834
  20690498.101      391797.437 9    324006.97447  20690497.776    20690504.8304
  23614723.055    -3444978.557 7  -2336971.53745  23614723.247    23614731.9354
  23110041.021     2118905.780 8   1642966.23446  23110041.311    23110049.0324
  24286548.982     3366581.711 7   2610099.55545  24286548.772    24286558.5394
 99  9 17 15 55 30.0000000  0  7 03 23 21 17 29 26 06
  21916753.719    -2750785.254 8  -2124027.94847  21916753.717    21916760.2004
  20641903.810     -188743.353 9   -142547.47848  20641903.577    20641909.9844
  21847418.725    -2642815.709 8  -2043933.25547  21847418.527    21847425.6404
  20696445.094      423048.738 9    348358.59447  20696444.769    20696451.8164
  23594222.745    -3552708.566 7  -2420916.95645  23594222.940    23594231.6404
  23125934.540     2202426.009 8   1708046.86846  23125934.868    23125942.5444
  24308349.848     3481145.200 7   2699369.69645  24308349.818    24308359.3714
 99  9 17 15 56  0.0000000  0  7 03 23 21 17 29 26 06
  21906012.248    -2807232.082 8  -2168012.50147  21906012.243    21906018.7454
  20644607.731     -174534.408 9   -131475.59048  20644607.486    20644613.9194
  21836535.168    -2700009.206 8  -2088499.61247  21836534.981    21836542.0894
  20702459.891      454656.181 9    372987.72447  20702459.545    20702466.5834
  23573749.622    -3660295.642 7  -2504750.99345  23573749.763    23573758.4354
  23141906.113     2286356.961 8   1773447.52946  23141906.421    23141914.1404
  24330172.535     3595823.388 7   2788729.20545  24330172.522    24330181.9944
 99  9 17 15 56 30.0000000  0  7 03 23 21 17 29 26 06
  21895372.913    -2863142.237 8  -2211578.87447  21895372.919    21895379.4364
  20647376.581     -159984.285 9   -120137.85448  20647376.319    20647382.7644
  21825706.806    -2756912.845 8  -2132840.10747  21825706.618    21825713.7294
  20708540.842      486611.415 9    397887.85647  20708540.496    20708547.5144
  23553303.349    -3767741.089 7  -2588474.67445  23553303.557    23553312.1534
  23157955.939     2370698.166 8   1839167.91546  23157956.240    23157963.8114
  24352016.604     3710614.257 7   2878176.53845  24352016.610    24352026.0314
 99  9 17 15 57  0.0000000  0  7 03 23 21 17 29 26 06
  21884831.753    -2918536.609 8  -2254743.32947  21884831.746    21884838.2554
  20650204.593     -145123.112 9   -108557.73848  20650204.341    20650210.7794
  21814927.584    -2813558.096 8  -2176979.25547  21814927.370    21814934.5134
  20714682.333      518884.949 9    423036.02047  20714681.984    20714689.0074
  23532882.620    -3875052.295 7  -2672093.74545  23532882.864    23532891.5944
  23174083.041     2455446.345 8   1905205.37946  23174083.286    23174090.9274
  24373878.532     3825499.057 7   2967697.04645  24373878.625    24373888.1264
 99  9 17 15 57 30.0000000  0  7 03 23 21 17 29 26 06
  21874385.019    -2973434.972 8  -2297521.29447  21874384.988    21874391.4844
  20653088.993     -129965.504 9    -96746.63448  20653088.744    20653095.1904
  21804192.898    -2869969.271 8  -2220936.00947  21804192.702    21804199.8634
  20720879.824      551452.603 9    448413.36547  20720879.464    20720886.4874
  23512485.659    -3982238.851 8  -2755615.68245  23512485.895    23512494.5494
  23190283.736     2540581.723 8   1971544.57246  23190284.060    23190291.7454
  24395754.727     3940458.809 7   3057275.95045  24395754.750    24395764.4644
 99  9 17 15 58  0.0000000  0  7 03 23 21 17 29 26 06
  21864029.805    -3027852.283 8  -2339924.40847  21864029.787    21864036.2224
  20656027.913     -114521.642 9    -84712.46948  20656027.660    20656034.1084
  21793502.693    -2926146.660 8  -2264710.59247  21793502.502    21793509.6664
  20727134.212      584319.499 9    474023.88947  20727133.854    20727140.8964
  23492110.475    -4089311.373 8  -2839048.76945  23492110.680    23492119.3324
  23206556.946     2626098.052 8   2038180.62046  23206557.245    23206564.9544
  24417641.229     4055473.367 7   3146897.56745  24417641.428    24417651.2784
 99  9 17 15 58 30.0000000  0  7 03 23 21 17 29 26 06
  21853761.936    -3081810.570 8  -2381969.84647  21853761.886    21853768.3104
  20659020.761      -98794.180 9    -72457.32148  20659020.508    20659026.9824
  21782857.888    -2982085.459 9  -2308299.26047  21782857.711    21782864.8614
  20733447.923      617497.782 9    499877.05247  20733447.563    20733454.5984
  23471757.548    -4196266.549 7  -2922390.40745  23471757.740    23471766.3824
  23222903.152     2711997.697 8   2105115.35346  23222903.499    23222911.1164
  24439538.498     4170544.691 7   3236563.40845  24439538.969    24439548.7184
 99  9 17 15 59  0.0000000  0  7 03 23 21 17 29 26 06
  21843579.900    -3135317.468 8  -2423663.54747  21843579.874    21843586.3144
  20662069.756      -82771.750 9    -59972.32348  20662069.507    20662075.9854
  21772260.608    -3037774.635 8  -2351693.41847  21772260.408    21772267.5564
  20739824.289      651005.608 9    525987.00547  20739823.919    20739830.9584
  23451428.328    -4303096.668 8  -3005634.57545  23451428.624    23451437.2354
  23239320.641     2798271.629 8   2172341.73546  23239320.963    23239328.5214
  24461446.612     4285671.841 7   3326272.77145  24461446.942    24461456.7534
 99  9 17 15 59 30.0000000  0  7 03 23 21 17 29 26 06
  21833486.311    -3188359.868 8  -2464995.29447  21833486.262    21833492.7364
  20665178.550      -66434.960 9    -47242.36848  20665178.315    20665184.7944
  21761713.915    -3093197.867 9  -2394880.34147  21761713.729    21761720.8644
  20746269.640      684875.998 9    552379.48047  20746269.277    20746276.3354
  23431126.313    -4409784.344 8  -3088767.75345  23431126.559    23431135.1724
  23255808.944     2884917.953 8   2239858.29046  23255809.229    23255816.8584
  24483366.192     4400859.673 7   3416029.40245  24483366.588    24483376.3964
 99  9 17 16  0  0.0000000  0  7 03 23 21 17 29 26 06
  21823484.807    -3240918.214 8  -2505949.85647  21823484.756    21823491.2484
  20668349.227      -49773.140 9    -34259.14548  20668348.990    20668355.4624
  21751222.608    -3148330.333 8  -2437840.69547  21751222.392    21751229.5164
  20752786.812      719123.716 9    579065.97347  20752786.455    20752793.5284
  23410852.159    -4516325.701 8  -3171786.93145  23410852.374    23410861.0544
  23272370.151     2971947.169 8   2307673.19746  23272370.463    23272378.0754
  24505301.105     4516127.760 7   3505848.58345  24505301.452    24505311.2504
 99  9 17 16  0 30.0000000  0  6 03 23 21 17 29 26
  21813576.886    -3292984.549 8  -2546521.04047  21813576.855    21813583.3554
  20671581.516      -32787.639 9    -21023.70648  20671581.272    20671587.7424
  21740784.087    -3203184.969 9  -2480584.55647  21740783.898    21740791.0074
  20759372.261      753730.238 9    606032.05147  20759371.886    20759378.9764
  23390607.145    -4622714.183 8  -3254687.00545  23390607.330    23390615.9684
  23289002.873     3059352.027 8   2375780.84745  23289003.149    23289010.7324
 99  9 17 16  1  0.0000000  0  6 03 23 21 17 29 26
  21803765.743    -3344542.527 8  -2586696.09547  21803765.707    21803772.2304
  20674879.523      -15456.568 9     -7518.99548  20674879.279    20674885.7534
  21730396.179    -3257773.922 8  -2523121.39447  21730395.970    21730403.0864
  20766024.734      788689.022 9    633272.62247  20766024.360    20766031.4744
  23370390.761    -4728952.009 8  -3337469.67345  23370390.865    23370399.5344
  23305706.767     3147131.658 8   2444180.48145  23305707.036    23305714.7804
 99  9 17 16  1 30.0000000  0  6 03 23 21 17 29 26
  21794057.278    -3395560.841 8  -2626450.64347  21794057.258    21794063.7714
  20678245.891        2233.751 9      6265.65048  20678245.648    20678252.1124
  21720062.381    -3312078.307 9  -2565436.48847  21720062.174    21720069.3034
  20772744.574      824001.752 9    660788.98547  20772744.208    20772751.3264
  23350205.545    -4835025.981 8  -3420124.65745  23350205.659    23350214.3434
  23322486.024     3235307.379 8   2512888.77945  23322486.309    23322494.0894
 99  9 17 16  2  0.0000000  0  6 03 23 21 17 29 26
  21784453.061    -3446031.462 8  -2665778.41047  21784453.057    21784459.5354
  20681677.354       20265.904 9     20316.65648  20681677.093    20681683.5494
  21709782.420    -3366099.936 9  -2607531.26047  21709782.220    21709789.3154
  20779529.027      859654.074 9    688569.97147  20779528.671    20779535.8374
  23330049.632    -4940945.893 8  -3502659.59045  23330049.743    23330058.4534
  23339340.419     3323877.378 8   2581904.32845  23339340.661    23339348.3004
 99  9 17 16  2 30.0000000  0  6 03 23 21 17 29 26
  21774951.992    -3495960.066 8  -2704683.83347  21774951.974    21774958.4314
  20685168.419       38611.478 9     34611.88748  20685168.156    20685174.6014
  21699554.122    -3419850.106 9  -2649414.50247  21699553.941    21699561.0204
  20786377.701      895643.905 9    716613.95147  20786377.350    20786384.5304
  23309922.470    -5046714.531 8  -3585076.67145  23309922.637    23309931.2264
  23356267.220     3412828.231 8   2651216.59745  23356267.442    23356275.2564
 99  9 17 16  3  0.0000000  0  6 03 23 21 17 29 26
  21765553.213    -3545351.246 8  -2743170.48147  21765553.191    21765559.6514
  20688713.699       57241.931 9     49129.10348  20688713.442    20688719.9044
  21689378.363    -3473324.257 9  -2691082.66747  21689378.166    21689385.2384
  20793290.295      931969.660 9    744919.68747  20793289.955    20793297.1464
  23289821.389    -5152346.593 8  -3667387.32245  23289821.492    23289830.0324
  23373261.687     3502134.200 8   2720805.62645  23373261.927    23373269.6554
 99  9 17 16  3 30.0000000  0  7 03 23 21 17 29 26 31
  21756253.707    -3594220.714 8  -2781250.60447  21756253.689    21756260.1344
  20692304.153       76109.670 9     63831.21548  20692303.896    20692310.3564
  21679248.709    -3526555.982 9  -2732561.93147  21679248.518    21679255.5704
  20800261.990      968605.956 9    773467.40247  20800261.648    20800268.8634
  23269743.878    -5257854.115 8  -3749600.92145  23269744.051    23269752.5834
  23390316.756     3591758.359 8   2790642.59445  23390316.941    23390324.6894
  24484258.289    -5865567.856 7  -4223643.83145  24484257.981    24484265.1124
 99  9 17 16  4  0.0000000  0  7 03 23 21 17 29 26 31
  21747053.533    -3642568.024 8  -2818923.85147  21747053.528    21747059.9914
  20695941.548       95224.254 9     78725.67648  20695941.288    20695947.7734
  21669162.814    -3579557.659 9  -2773861.93047  21669162.621    21669169.7004
  20807294.558     1005562.078 9    802264.33347  20807294.220    20807301.4364
  23249693.152    -5363221.048 8  -3831704.97946  23249693.372    23249701.8504
  23407431.200     3681695.671 8   2860723.54945  23407431.422    23407439.2984
  24465672.985    -5963234.192 7  -4299747.47845  24465672.658    24465679.7994
 99  9 17 16  4 30.0000000  0  7 03 23 21 17 29 26 31
  21737956.301    -3690374.533 8  -2856175.69747  21737956.276    21737962.7164
  20699634.057      114628.410 9     93845.77748  20699633.812    20699640.2974
  21659124.894    -3632307.200 9  -2814965.46747  21659124.710    21659131.7524
  20814394.487     1042872.312 9    831337.19147  20814394.135    20814401.3804
  23229677.379    -5468404.234 8  -3913665.85646  23229677.609    23229686.1634
  23424610.164     3771971.291 8   2931068.15145  23424610.370    23424618.1954
  24447139.192    -6060630.401 7  -4375640.63145  24447138.758    24447145.9374
 99  9 17 16  5  0.0000000  0  7 03 23 21 17 29 26 31
  21728958.366    -3737659.146 8  -2893020.86847  21728958.365    21728964.7914
  20703384.228      134335.580 9    109201.99048  20703383.966    20703390.4604
  21649129.429    -3684834.002 9  -2855895.44547  21649129.230    21649136.2514
  20821560.934     1080531.835 9    860682.22147  20821560.553    20821567.7814
  23209695.751    -5573408.321 8  -3995487.18346  23209696.002    23209704.5384
  23441852.188     3862579.220 8   3001671.66945  23441852.453    23441860.4964
  24428655.595    -6157762.366 7  -4451327.88045  24428655.214    24428662.3384
 99  9 17 16  5 30.0000000  0  7 03 23 21 17 29 26 31
  21720057.930    -3784431.425 8  -2929466.82047  21720057.917    21720064.3634
  20707194.566      154358.944 9    124804.59148  20707194.298    20707200.8064
  21639174.709    -3737146.420 9  -2896658.36547  21639174.541    21639181.5464
  20828794.790     1118545.924 9    890303.54147  20828794.416    20828801.6844
  23189746.673    -5678241.651 8  -4077175.45146  23189746.793    23189755.3814
  23459159.352     3953528.491 8   3072541.19845  23459159.571    23459167.6584
  24410222.873    -6254626.785 7  -4526806.63245  24410222.445    24410229.6264
 99  9 17 16  6  0.0000000  0  7 03 23 21 17 29 26 31
  21711252.526    -3830704.333 8  -2965523.64747  21711252.503    21711258.9704
  20711066.300      174704.931 9    140658.58748  20711066.027    20711072.5294
  21629267.399    -3789210.018 9  -2937227.39747  21629267.200    21629274.1724
  20836096.666     1156917.235 9    920203.21847  20836096.291    20836103.5574
  23169828.621    -5782911.734 8  -4158736.51046  23169828.711    23169837.2724
  23476533.160     4044828.115 8   3143683.71845  23476533.294    23476541.4884
  24391841.136    -6351223.100 7  -4602076.50745  24391840.770    24391848.0394
 99  9 17 16  6 30.0000000  0  7 03 23 21 17 29 26 31
  21702543.723    -3876469.405 8  -3001184.76047  21702543.712    21702550.1874
  20715000.296      195378.183 9    156767.59248  20715000.044    20715006.5564
  21619410.920    -3841006.183 9  -2977588.04347  21619410.703    21619417.6864
  20843466.211     1195644.189 9    950380.01847  20843465.829    20843473.1084
  23149942.285    -5887415.052 8  -4240167.62446  23149942.428    23149950.9414
  23493976.633     4136493.783 8   3215111.44345  23493976.778    23493984.9954
  24373511.876    -6447544.081 7  -4677131.82345  24373511.539    24373518.7244
 99  9 17 16  7  0.0000000  0  7 03 23 21 17 29 26 31
  21693933.039    -3921718.950 8  -3036444.15847  21693933.033    21693939.5274
  20718994.584      216368.106 9    173123.35648  20718994.329    20719000.8534
  21609609.256    -3892514.277 9  -3017724.21247  21609609.059    21609616.0324
  20850902.912     1234724.094 9    980831.85047  20850902.531    20850909.8104
  23130087.273    -5991753.853 8  -4321470.55146  23130087.404    23130095.8644
  23511490.231     4228528.577 8   3286826.79945  23511490.464    23511498.6574
  24355234.533    -6543592.246 7  -4751974.56245  24355234.082    24355241.3394
 99  9 17 16  7 30.0000000  0  7 03 23 21 17 29 26 31
  21685421.405    -3966447.920 8  -3071297.91747  21685421.395    21685427.8954
  20723046.538      237661.324 9    189715.44548  20723046.304    20723052.8444
  21599866.562    -3943712.525 9  -3057618.94847  21599866.384    21599873.3294
  20858405.544     1274150.427 9   1011553.62747  20858405.157    20858412.4644
  23110263.467    -6095928.433 8  -4402645.50346  23110263.588    23110272.0394
  23529073.012     4320926.434 8   3358825.05945  23529073.270    23529081.3544
  24337010.235    -6639361.635 7  -4826600.07045  24337009.889    24337017.0434
 99  9 17 16  8  0.0000000  0  7 03 23 21 17 29 26 31
  21677008.947    -4010655.716 8  -3105745.56447  21677008.949    21677015.4344
  20727155.214      259252.255 9    206539.52248  20727154.969    20727161.5084
  21590181.726    -3994606.749 9  -3097276.77947  21590181.538    21590188.4804
  20865972.588     1313915.363 9   1042539.25047  20865972.208    20865979.5254
  23090473.249    -6199926.377 8  -4483682.82146  23090473.398    23090481.8304
  23546723.437     4413680.013 8   3431100.47345  23546723.722    23546731.9404
  24318839.563    -6734849.577 7  -4901006.25145  24318839.148    24318846.3324
 99  9 17 16  8 30.0000000  0  7 03 23 21 17 29 26 31
  21668697.879    -4054330.788 8  -3139778.10147  21668697.873    21668704.3774
  20731318.080      281127.948 9    223585.48948  20731317.837    20731324.3684
  21580550.584    -4045218.729 9  -3136714.68347  21580550.386    21580557.3044
  20873604.714     1354022.296 9   1073791.37147  20873604.304    20873611.6414
  23070716.087    -6303750.677 8  -4564584.83746  23070716.275    23070724.6714
  23564440.691     4506784.203 7   3503649.11045  23564441.017    23564449.1964
  24300721.567    -6830060.146 7  -4975196.34645  24300721.071    24300728.4524
 99  9 17 16  9  0.0000000  0  7 03 23 21 17 29 26 31
  21660488.736    -4097470.220 8  -3173393.25847  21660488.716    21660495.2514
  20735533.341      303279.143 9    240846.13348  20735533.099    20735539.6304
  21570972.502    -4095551.781 9  -3175935.24347  21570972.316    21570979.2494
  20881303.234     1394478.319 9   1105315.50547  20881302.875    20881310.2084
  23050990.414    -6407409.780 8  -4645358.10646  23050990.611    23050999.0494
  23582220.611     4600217.642 7   3576454.29645  23582220.938    23582229.0494
  24282655.637    -6924997.376 7  -5049173.41045  24282655.058    24282662.5664
 99  9 17 16  9 30.0000000  0  7 03 23 21 17 29 26 31
  21652383.782    -4140061.988 8  -3206581.66547  21652383.797    21652390.3414
  20739803.844      325720.705 9    258333.03848  20739803.603    20739810.1424
  21561444.512    -4145621.852 9  -3214950.88047  21561444.313    21561451.2504
  20889068.970     1435287.354 9   1137114.71547  20889068.619    20889075.9524
  23031297.213    -6510898.003 8  -4725998.23046  23031297.365    23031305.8684
  23600061.507     4693972.224 7   3649509.74945  23600061.817    23600069.9454
  24264643.836    -7019650.314 7  -5122928.98245  24264643.317    24264650.8634
 99  9 17 16 10  0.0000000  0  7 03 23 21 17 29 26 31
  21644384.952    -4182096.234 8  -3239335.63747  21644384.954    21644391.4824
  20744129.313      348451.068 9    276044.98648  20744129.068    20744135.6044
  21551964.846    -4195437.654 9  -3253768.38747  21551964.655    21551971.6244
  20896900.407     1476441.530 9   1169182.86347  20896900.047    20896907.3964
  23011640.492    -6614194.814 8  -4806489.19746  23011640.583    23011649.1094
  23617963.931     4788050.676 7   3722817.55045  23617964.344    23617972.4394
  24246686.676    -7114016.289 7  -5196460.92945  24246686.208    24246693.4544
 99  9 17 16 10 30.0000000  0  7 03 23 21 17 29 26 31
  21636491.693    -4223575.575 8  -3271657.21447  21636491.689    21636498.2214
  20748508.679      371464.833 9    293977.76648  20748508.427    20748514.9704
  21542531.497    -4245010.397 9  -3292396.49647  21542531.286    21542538.2664
  20904796.627     1517936.457 9   1201516.53547  20904796.291    20904803.6514
  22992020.856    -6717296.240 8  -4886827.91146  22992020.965    22992029.5054
  23635927.673     4882450.815 7   3796376.00445  23635928.036    23635936.3704
  24228782.295    -7208104.630 7  -5269776.55445  24228781.753    24228789.0804
 99  9 17 16 11  0.0000000  0  7 03 23 21 17 29 26 31
  21628700.955    -4264516.254 8  -3303559.05547  21628700.962    21628707.5304
  20752944.697      394776.205 9    312142.45048  20752944.446    20752951.0074
  21533142.016    -4294352.250 9  -3330844.69247  21533141.806    21533148.7954
  20912757.157     1559769.296 9   1234113.51747  20912756.810    20912764.1954
  22972441.696    -6820185.186 8  -4967001.04046  22972441.839    22972450.4014
  23653949.686     4977156.533 7   3870172.60645  23653950.070    23653958.3094
  24210931.066    -7301913.878 7  -5342874.71145  24210930.581    24210937.7804
 99  9 17 16 11 30.0000000  0  7 03 23 21 17 29 26 31
  21621011.641    -4304923.763 8  -3335045.44247  21621011.655    21621018.2304
  20757438.370      418390.594 9    330543.25048  20757438.135    20757444.7164
  21523795.198    -4343470.083 9  -3369118.32547  21523794.997    21523802.0154
  20920781.022     1601934.665 9   1266969.61347  20920780.675    20920788.0504
  22952906.506    -6922843.389 8  -5046994.37946  22952906.614    22952915.1394
  23672030.322     5072169.821 7   3944208.86445  23672030.704    23672038.8424
  24193132.421    -7395446.246 7  -5415757.09545  24193132.103    24193139.0884
 99  9 17 16 12  0.0000000  0  7 03 23 21 17 29 26 31
  21613423.009    -4344802.419 8  -3366119.73247  21613423.009    21613429.6184
  20761987.092      442294.113 9    349169.34748  20761986.855    20761993.4374
  21514492.647    -4392355.207 9  -3407210.62747  21514492.457    21514499.4844
  20928867.580     1644429.597 9   1300082.51647  20928867.237    20928874.6124
  22933415.606    -7025268.508 8  -5126806.08446  22933415.717    22933424.1944
  23690168.927     5167488.483 7   4018483.05545  23690169.198    23690177.4524
  24175384.659    -7488711.338 7  -5488431.22445  24175384.320    24175391.3304
 99  9 17 16 12 30.0000000  0  7 03 23 21 17 29 26 31
  21605935.221    -4384151.397 8  -3396781.28147  21605935.222    21605941.8034
  20766592.824      466497.198 9    368028.86948  20766592.597    20766599.1794
  21505235.259    -4441003.211 9  -3445118.15647  21505235.065    21505242.1004
  20937019.794     1687269.508 9   1333464.22947  20937019.443    20937026.8134
  22913966.396    -7127474.413 8  -5206446.97346  22913966.581    22913974.9884
  23708361.658     5263092.020 7   4092979.25545  23708361.942    23708370.1154
  24157688.281    -7581706.747 7  -5560895.22145  24157687.990    24157694.9604
 99  9 17 16 13  0.0000000  0  7 03 23 21 17 29 26 31
  21598553.450    -4422942.740 8  -3427008.31047  21598553.462    21598560.0234
  20771256.492      491004.825 9    387125.69748  20771256.258    20771262.8314
  21496028.406    -4489385.616 9  -3482818.73147  21496028.199    21496035.2314
  20945239.707     1730465.187 9   1367123.16747  20945239.362    20945246.7334
  22894559.290    -7229459.385 8  -5285915.71346  22894559.496    22894567.8714
  23726606.896     5358971.003 7   4167690.08945  23726607.162    23726615.3434
  24140046.597    -7674414.980 7  -5633135.42545  24140046.174    24140053.1074
 99  9 17 16 13 30.0000000  0  7 03 23 21 17 29 26 31
  21591282.971    -4461149.421 8  -3456779.76547  21591282.976    21591289.5184
  20775975.113      515801.184 9    406447.51448  20775974.862    20775981.4534
  21486877.205    -4537475.512 9  -3520291.37047  21486877.005    21486884.0344
  20953528.036     1774020.256 9   1401062.15847  20953527.665    20953535.0124
  22875191.885    -7331235.435 8  -5365221.65246  22875192.084    22875200.3944
  23744908.720     5455147.062 8   4242632.39545  23744909.041    23744917.1184
  24122462.067    -7766822.897 7  -5705141.61145  24122461.627    24122468.5754
 99  9 17 16 14  0.0000000  0  8 03 23 21 17 29 26 09 31
  21584125.205    -4498764.027 8  -3486089.86247  21584125.201    21584131.7114
  20780745.884      540871.627 9    425982.89948  20780745.639    20780752.2304
  21477782.685    -4585267.581 9  -3557531.94147  21477782.471    21477789.5314
  20961884.808     1817935.121 8   1435281.50147  20961884.419    20961891.7694
  22855863.053    -7432808.763 8  -5444369.62446  22855863.245    22855871.5334
  23763267.038     5551620.082 8   4317806.11045  23763267.302    23763275.4374
  24450791.334    -1781353.749 6  -1152128.94045  24450791.350    24450802.6384
  24104938.690    -7858909.306 7  -5776897.28045  24104938.278    24104945.1574
 99  9 17 16 14 30.0000000  0  8 03 23 21 17 29 26 09 31
  21577077.785    -4535798.531 8  -3514947.93147  21577077.760    21577084.2854
  20785566.466      566203.973 9    445722.36148  20785566.232    20785572.8294
  21468742.471    -4632774.115 9  -3594550.01647  21468742.269    21468749.3404
  20970306.809     1862192.957 9   1469768.09547  20970306.429    20970313.7874
  22836571.115    -7534188.278 8  -5523366.57546  22836571.291    22836579.6144
  23781682.121     5648391.236 8   4393212.12645  23781682.353    23781690.3934
  24438688.284    -1844953.292 7  -1201686.81244  24438687.958    24438699.9284
  24087477.333    -7950669.285 7  -5848398.58445  24087476.996    24087483.8234
 99  9 17 16 15  0.0000000  0  8 03 23 21 17 29 26 09 31
  21570136.323    -4572276.077 8  -3543372.00747  21570136.335    21570142.8784
  20790431.967      591772.326 9    465645.72448  20790431.734    20790438.3414
  21459755.863    -4679999.242 9  -3631348.81847  21459755.660    21459762.7154
  20978791.018     1906777.698 9   1504509.42047  20978790.655    20978798.0244
  22817314.634    -7635381.524 8  -5602218.39946  22817314.832    22817323.0894
  23800157.678     5745480.721 7   4468866.18445  23800157.864    23800165.9614
  24426641.718    -1908258.375 8  -1251015.74744  24426641.677    24426653.1634
  24070077.716    -8042104.948 7  -5919647.16845  24070077.422    24070084.2234
 99  9 17 16 15 30.0000000  0  8 03 23 21 17 29 26 09 31
  21563294.712    -4608229.082 8  -3571387.35047  21563294.702    21563301.2864
  20795340.104      617564.509 9    485743.50348  20795339.866    20795346.4744
  21450819.378    -4726960.850 9  -3667942.27647  21450819.167    21450826.2224
  20987336.803     1951685.971 9   1539502.84947  20987336.429    20987343.8084
  22798092.363    -7736395.098 8  -5680930.21946  22798092.569    22798100.7604
  23818694.716     5842892.911 8   4544771.71745  23818694.940    23818702.8864
  24414647.967    -1971286.539 8  -1300128.54345  24414647.991    24414659.3524
  24052738.971    -8133221.068 7  -5990646.78145  24052738.626    24052745.4994
 99  9 17 16 16  0.0000000  0  8 03 23 21 17 29 26 09 31
  21556550.619    -4643669.601 8  -3599003.35947  21556550.601    21556557.1954
  20800292.111      643587.206 9    506020.90148  20800291.867    20800298.4734
  21441929.973    -4773675.195 9  -3704343.06147  21441929.761    21441936.7984
  20995943.963     1996916.718 9   1574747.55647  20995943.581    20995950.9744
  22778906.509    -7837216.779 8  -5759492.50346  22778906.731    22778915.0314
  23837290.044     5940611.262 8   4620915.82645  23837290.287    23837298.2234
  24402702.769    -2034059.595 8  -1349042.57545  24402702.770    24402714.1854
  24035460.360    -8224020.944 7  -6061399.94645  24035460.097    24035466.8664
 99  9 17 16 16 30.0000000  0  8 03 23 21 17 29 26 09 31
  21549905.016    -4678592.615 8  -3626216.11447  21549904.981    21549911.5964
  20805290.062      669851.451 9    526486.52248  20805289.827    20805296.4264
  21433087.349    -4820143.462 9  -3740552.09547  21433087.133    21433094.1584
  21004615.848     2042487.699 9   1610257.38447  21004615.457    21004622.8684
  22759758.067    -7937842.182 8  -5837901.84646  22759758.297    22759766.5524
  23855942.503     6038630.155 7   4697294.14545  23855942.725    23855950.6584
  24390807.164    -2096571.961 7  -1397753.45645  24390807.206    24390818.6184
  24018238.875    -8314519.835 7  -6131918.57945  24018238.709    24018245.4254
 99  9 17 16 17  0.0000000  0  8 03 23 21 17 29 26 09 31
  21543360.611    -4712983.842 8  -3653014.49047  21543360.562    21543367.2314
  20810336.445      696370.211 9    547150.46348  20810336.204    20810342.8104
  21424291.675    -4866365.006 9  -3776568.87947  21424291.452    21424298.4714
  21013355.977     2088417.397 9   1646046.72547  21013355.587    21013363.0414
  22740648.411    -8038264.260 8  -5916152.75346  22740648.597    22740656.8214
  23874648.698     6136932.031 7   4773892.88545  23874648.975    23874656.9964
  24378967.201    -2158790.851 7  -1446235.62345  24378967.202    24378978.8144
  24001075.276    -8404715.152 7  -6202200.65145  24001075.081    24001081.8114
 99  9 17 16 17 30.0000000  0  8 03 23 21 17 29 26 09 31
  21536922.514    -4746816.300 8  -3679377.46447  21536922.469    21536929.1724
  20815436.434      723170.755 9    568033.97648  20815436.183    20815442.8024
  21415543.011    -4912339.599 9  -3812393.22847  21415542.808    21415549.8284
  21022165.423     2134711.081 9   1682119.69547  21022165.028    21022172.5144
  22721579.977    -8138469.215 8  -5994234.46946  22721580.227    22721588.3684
  23893403.273     6235487.054 8   4850688.89345  23893403.481    23893411.6454
  24367188.340    -2220689.067 7  -1494467.93245  24367188.327    24367200.0264
  23983969.572    -8494606.366 7  -6272245.76545  23983969.443    23983976.0544
 99  9 17 16 18  0.0000000  0  8 03 23 21 17 29 26 09 31
  21530594.874    -4780068.272 8  -3705288.11047  21530594.849    21530601.5414
  20820595.067      750279.257 9    589157.45448  20820594.812    20820601.4344
  21406843.872    -4958054.024 9  -3848014.85147  21406843.651    21406850.6744
  21031043.511     2181365.496 9   1718473.75047  21031043.131    21031050.6194
  22702556.898    -8238436.058 8  -6072130.64946  22702557.117    22702565.2684
  23912204.751     6334289.293 8   4927677.55445  23912205.044    23912213.1124
  24355474.766    -2282244.188 7  -1542432.95445  24355474.736    24355486.4334
  23966925.117    -8584175.410 7  -6342039.83745  23966924.904    23966931.5754
 99  9 17 16 18 30.0000000  0  8 03 23 21 17 29 26 09 31
  21524377.982    -4812738.244 8  -3730745.24747  21524377.963    21524384.6704
  20825814.216      777705.781 9    610528.74748  20825813.949    20825820.5564
  21398197.114    -5003493.037 9  -3883421.87147  21398196.896    21398203.9074
  21039989.791     2228378.304 9   1755107.07647  21039989.408    21039996.8864
  22683579.806    -8338161.119 8  -6149838.42846  22683580.014    22683588.1394
  23931054.212     6433343.300 8   5004862.50145  23931054.596    23931062.3964
  24343834.313    -2343414.975 7  -1590098.48345  24343834.275    24343845.8094
  23949944.785    -8673407.639 7  -6411571.46945  23949944.528    23949951.3174
 99  9 17 16 19  0.0000000  0  8 03 23 21 17 29 26 09 31
  21518271.980    -4844825.850 8  -3755748.59447  21518271.940    21518278.6284
  20831095.075      805456.641 9    632152.76948  20831094.803    20831101.4104
  21389603.520    -5048652.700 9  -3918611.21247  21389603.296    21389610.2934
  21049000.842     2275731.574 9   1792005.69747  21049000.470    21049007.9254
  22664649.974    -8437638.030 8  -6227352.84046  22664650.160    22664658.2394
  23949952.649     6532655.618 7   5082248.61245  23949953.002    23949961.0134
  24332266.535    -2404203.899 7  -1637466.43845  24332266.552    24332278.1244
  23933031.608    -8762287.036 7  -6480828.16445  23933031.297    23933038.1724
 99  9 17 16 19 30.0000000  0  8 03 23 21 17 29 26 09 31
  21512276.532    -4876332.252 8  -3780299.04747  21512276.491    21512283.1654
  20836435.436      833520.378 9    654020.59448  20836435.176    20836441.7854
  21381065.012    -5093522.877 9  -3953574.98347  21381064.797    21381071.7724
  21058076.549     2323424.431 9   1829168.93147  21058076.157    21058083.6314
  22645769.709    -8536854.425 8  -6304664.23546  22645769.910    22645777.9504
  23968902.177     6632236.093 8   5159843.66045  23968902.504    23968910.7954
  24320767.655    -2464631.515 7  -1684552.85045  24320767.623    24320779.0654
  23916186.837    -8850807.353 7  -6549805.05045  23916186.568    23916193.3764
 99  9 17 16 20  0.0000000  0  8 03 23 21 17 29 26 09 31
  21506391.481    -4907258.632 8  -3804397.53547  21506391.435    21506398.1194
  20841829.073      861863.755 9    676106.32648  20841828.782    20841835.4014
  21372578.298    -5138121.151 9  -3988326.88447  21372578.062    21372585.0504
  21067215.110     2371447.873 9   1866589.76747  21067214.731    21067222.2134
  22626939.513    -8635807.555 8  -6381770.50046  22626939.665    22626947.7144
  23987905.768     6732099.650 8   5237659.31745  23987906.108    23987914.3374
  24309335.282    -2524709.174 8  -1731366.63245  24309335.297    24309346.6224
  23899411.150    -8938964.958 7  -6618499.31045  23899410.832    23899417.6524
 99  9 17 16 20 30.0000000  0  8 03 23 21 17 29 26 09 31
  21500615.949    -4937609.232 8  -3828047.37147  21500615.923    21500622.6374
  20847271.735      890465.372 9    698393.28348  20847271.474    20847278.1124
  21364139.590    -5182466.991 9  -4022882.08447  21364139.364    21364146.3364
  21076415.944     2419798.221 9   1904265.32947  21076415.561    21076423.0264
  22608156.068    -8734514.933 8  -6458685.26946  22608156.229    22608164.2964
  24006961.868     6832239.526 8   5315690.35245  24006962.065    24006970.2884
  24297964.826    -2584461.061 7  -1777926.61645  24297964.759    24297975.9974
  23882701.405    -9026775.125 7  -6686922.83945  23882701.080    23882707.9654
 99  9 17 16 21  0.0000000  0  8 03 23 21 17 29 26 09 31
  21494950.982    -4967378.985 8  -3851244.58747  21494950.955    21494957.6614
  20852761.074      919311.821 9    720871.01848  20852760.814    20852767.4644
  21355745.198    -5226579.683 9  -4057255.60947  21355744.975    21355751.9624
  21085681.413     2468488.551 9   1942205.81647  21085681.017    21085688.5064
  22589418.796    -8832979.721 8  -6535410.99246  22589418.981    22589427.0154
  24026067.972     6932642.136 8   5393926.07645  24026068.108    24026076.4174
  24286652.485    -2643906.742 7  -1824247.83545  24286652.441    24286663.8214
  23866056.578    -9114244.320 8  -6755080.67745  23866056.342    23866063.1314
 99  9 17 16 21 30.0000000  0  8 03 23 21 17 29 26 09 31
  21489396.506    -4996567.946 8  -3873989.24847  21489396.470    21489403.1864
  20858293.518      948385.144 9    743525.53748  20858293.264    20858299.9414
  21347394.434    -5270463.285 9  -4091450.61847  21347394.207    21347401.2034
  21095012.220     2517522.192 9   1980413.81247  21095011.847    21095019.3244
  22570726.979    -8931205.763 8  -6611950.68346  22570727.161    22570735.2034
  24045221.962     7033297.361 7   5472358.60945  24045222.169    24045230.5344
  24275400.435    -2703036.339 7  -1870322.73245  24275400.459    24275411.9554
  23849476.245    -9201374.605 7  -6822974.43045  23849475.981    23849482.7894
 99  9 17 16 22  0.0000000  0  8 03 23 21 17 29 26 09 31
  21483950.720    -5025185.930 8  -3896288.99047  21483950.700    21483957.3674
  20863870.616      977692.797 9    766362.65448  20863870.353    20863877.0334
  21339086.006    -5314124.234 9  -4125472.13547  21339085.808    21339092.7994
  21104407.313     2566893.623 9   2018885.02247  21104406.943    21104414.4204
  22552078.168    -9029205.492 8  -6688314.01246  22552078.361    22552086.4044
  24064420.910     7134189.248 7   5550975.58445  24064421.188    24064429.6254
  24264210.422    -2761841.419 8  -1916144.85245  24264210.416    24264221.8764
  23832960.554    -9288165.229 7  -6890603.50345  23832960.265    23832967.0274
 99  9 17 16 22 30.0000000  0  8 03 23 21 17 29 26 09 31
  21478611.252    -5053245.192 8  -3918153.36847  21478611.227    21478617.8604
  20869495.669     1007252.569 9    789396.23048  20869495.409    20869502.1034
  21330824.866    -5357536.720 9  -4159300.04147  21330824.657    21330831.6484
  21113870.276     2616621.862 9   2057634.25747  21113869.922    21113877.4124
  22533472.134    -9126980.790 8  -6764502.47446  22533472.332    22533480.3234
  24083664.204     7235312.639 7   5629772.91945  24083664.436    24083673.0234
  24253083.640    -2820313.456 7  -1961707.47145  24253083.679    24253095.0754
  23816509.110    -9374618.128 8  -6957969.41945  23816508.794    23816515.5744
 99  9 17 16 23  0.0000000  0  8 03 23 21 17 29 26 09 31
  21473378.718    -5080742.639 8  -3939579.96947  21473378.689    21473385.2674
  20875168.155     1037061.547 9    812623.98648  20875167.892    20875174.5914
  21322615.347    -5400678.114 9  -4192916.70947  21322615.131    21322622.1044
  21123402.442     2666713.550 9   2096666.70147  21123402.083    21123409.5794
  22514912.988    -9224509.388 8  -6840498.70746  22514913.220    22514921.1454
  24102952.295     7336671.673 7   5708753.96345  24102952.554    24102961.0494
  24242025.211    -2878426.021 7  -2006990.03945  24242025.235    24242036.4114
  23800122.751    -9460729.262 7  -7025069.02245  23800122.408    23800129.2584
 99  9 17 16 23 30.0000000  0  8 03 23 21 17 29 26 09 31
  21468251.983    -5107683.806 8  -3960573.09247  21468251.968    21468258.5544
  20880890.348     1067131.708 9    836055.26748  20880890.090    20880896.7554
  21314460.685    -5443531.276 9  -4226308.77947  21314460.456    21314467.4224
  21133000.278     2717150.209 9   2135967.95147  21132999.928    21133007.3964
  22496402.580    -9321782.098 8  -6916295.54146  22496402.795    22496410.7274
  24122285.372     7438267.264 7   5787919.29645  24122285.509    24122293.8404
  24231035.277    -2936176.916 6  -2051990.78644  24231034.987    24231046.4514
  23783800.627    -9546502.773 7  -7091905.54545  23783800.238    23783807.0734
 99  9 17 16 24  0.0000000  0  8 03 23 21 17 29 26 09 31
  21463231.082    -5134068.815 8  -3981132.85747  21463231.064    21463237.6614
  20886666.761     1097486.585 9    859708.40248  20886666.482    20886673.1344
  21306363.747    -5486080.919 9  -4259464.34447  21306363.511    21306370.5054
  21142666.072     2767943.877 9   2175547.38947  21142665.707    21142673.1884
  22477943.417    -9418785.427 8  -6991882.46746  22477943.593    22477951.5304
  24141665.564     7540110.245 8   5867277.36645  24141665.751    24141673.8294
  24220114.708    -2993561.163 7  -2096705.59444  24220114.414    24220126.6044
  23767543.220    -9631936.423 7  -7158477.24145  23767542.803    23767549.7214
 99  9 17 16 24 30.0000000  0  8 03 23 21 17 29 26 09 31
  21458319.063    -5159881.656 8  -4001246.77447  21458319.055    21458325.6694
  20892497.165     1128125.346 9    883582.75248  20892496.895    20892503.5314
  21298325.810    -5528320.578 9  -4292378.36147  21298325.576    21298332.5454
  21152401.990     2819106.212 9   2215414.09847  21152401.627    21152409.1074
  22459537.756    -9515507.691 8  -7067250.38946  22459537.896    22459545.7724
  24161095.336     7642213.198 7   5946837.94045  24161095.462    24161103.7124
  24209265.921    -3050573.629 7  -2141130.84345  24209265.753    24209277.7174
  23751351.602    -9717023.783 7  -7224779.11145  23751351.192    23751358.1604
 99  9 17 16 25  0.0000000  0  8 03 23 21 17 29 26 09 31
  21453518.467    -5185109.291 8  -4020904.68647  21453518.448    21453525.0754
  20898381.935     1159049.867 9    907679.77248  20898381.651    20898388.3004
  21290344.499    -5570262.688 9  -4325060.52247  21290344.271    21290351.2354
  21162206.079     2870626.712 8   2255559.90447  21162205.690    21162213.1964
  22441187.401    -9611939.168 8  -7142391.71846  22441187.540    22441195.3714
  24180572.464     7744565.440 7   6026592.93145  24180572.658    24180580.8044
  24198487.458    -3107215.964 7  -2185267.70645  24198487.305    24198499.2424
  23735229.639    -9801745.234 7  -7290795.85545  23735229.292    23735236.3074
 99  9 17 16 25 30.0000000  0  8 03 23 21 17 29 26 09 31
  21448829.997    -5209747.496 8  -4040103.30847  21448829.984    21448836.6074
  20904322.744     1190268.932 9    932006.30948  20904322.439    20904329.1044
  21282417.087    -5611921.566 9  -4357521.97947  21282416.829    21282423.8234
  21172079.625     2922512.215 8   2295990.12447  21172079.234    21172086.7534
  22422891.438    -9708084.608 8  -7217310.16546  22422891.575    22422899.4154
  24200097.705     7847170.907 7   6106545.13945  24200097.941    24200106.0934
  24187779.054    -3163490.286 8  -2229117.80945  24187778.928    24187790.6724
  23719180.623    -9886083.242 7  -7356513.80145  23719180.373    23719187.3034
 99  9 17 16 26  0.0000000  0  8 03 23 21 17 29 26 09 31
  21444255.984    -5233784.178 8  -4058833.20947  21444255.970    21444262.6124
  20910315.753     1221762.460 9    956546.71248  20910315.450    20910322.1444
  21274539.449    -5653318.787 9  -4389779.54847  21274539.213    21274546.2034
  21182024.090     2974770.709 8   2336710.98547  21182023.730    21182031.2794
  22404649.374    -9803946.749 8  -7292007.86646  22404649.534    22404657.3504
  24219670.487     7950027.404 7   6186693.02845  24219670.792    24219679.1834
  24177140.401    -3219397.533 7  -2272681.91445  24177140.284    24177151.9094
  23703207.638    -9970021.896 7  -7421920.56245  23703207.411    23703214.3214
 99  9 17 16 26 30.0000000  0  8 03 23 21 17 29 26 09 31
  21439796.605    -5257218.488 8  -4077093.73247  21439796.568    21439803.2074
  20916357.842     1253513.888 9    981288.07648  20916357.547    20916364.2534
  21266706.910    -5694478.974 9  -4421852.41447  21266706.675    21266713.6634
  21192034.950     3027378.214 8   2377703.80047  21192034.590    21192042.1994
  22386460.716    -9899528.489 8  -7366487.06846  22386460.896    22386468.6604
  24239286.894     8053112.851 8   6267019.15545  24239287.410    24239295.9104
  24166570.297    -3274942.709 7  -2315963.77445  24166570.331    24166581.8044
  23687312.961   -10053549.022 7  -7487006.65845  23687312.695    23687319.5684
 99  9 17 16 27  0.0000000  0  8 03 23 21 17 29 26 09 31
  21435449.881    -5280060.794 8  -4094892.95047  21435449.867    21435456.5084
  20922447.325     1285514.310 9   1006223.46447  20922447.051    20922453.7514
  21258917.015    -5735415.183 9  -4453750.75247  21258916.788    21258923.7824
  21202107.970     3080312.229 8   2418951.03847  21202107.626    21202115.2454
  22368323.931    -9994837.885 8  -7440754.07046  22368324.111    22368331.7604
  24258944.692     8156414.488 8   6347513.82445  24258945.071    24258953.7704
  24156068.739    -3330128.916 7  -2358966.01045  24156068.702    24156079.9434
  23671494.447   -10136676.038 7  -7551780.97245  23671494.145    23671501.1164
 99  9 17 16 27 30.0000000  0  8 03 23 21 17 29 26 09 31
  21431215.590    -5302312.306 8  -4112231.81247  21431215.538    21431222.2124
  20928580.533     1317744.431 9   1031337.83647  20928580.235    20928586.9684
  21251169.969    -5776126.029 9  -4485473.48347  21251169.761    21251176.7644
  21212242.237     3133567.718 8   2460448.78147  21212241.870    21212249.4744
  22350237.116   -10089884.363 8  -7514816.18146  22350237.273    22350244.9434
  24278645.113     8259939.650 7   6428182.90445  24278645.554    24278653.4764
  24145635.977    -3384953.562 7  -2401686.56645  24145635.916    24145647.1014
  23655748.235   -10219423.154 7  -7616259.24845  23655747.986    23655755.0284
 99  9 17 16 28  0.0000000  0  8 03 23 21 17 29 26 09 31
  21427093.694    -5323973.062 8  -4129110.34647  21427093.662    21427100.3494
  20934755.233     1350192.870 9   1056622.32647  20934754.971    20934761.7044
  21243465.149    -5816615.210 9  -4517023.48847  21243464.935    21243471.9444
  21222435.557     3187133.650 8   2502188.42847  21222435.154    21222442.7744
  22332199.629   -10184671.686 8  -7588676.36146  22332199.809    22332207.4424
  24298386.422     8363680.405 7   6509019.66845  24298386.777    24298395.1574
  24135271.306    -3439417.479 7  -2444125.75345  24135271.300    24135282.9774
  23640072.475   -10301799.740 7  -7680448.80645  23640072.289    23640079.2584
 99  9 17 16 28 30.0000000  0  8 03 23 21 17 29 26 09 31
  21423081.913    -5345055.203 8  -4145538.00747  21423081.889    21423088.5744
  20940972.980     1382867.150 9   1082082.79247  20940972.706    20940979.4214
  21235805.990    -5856864.281 9  -4548386.39847  21235805.777    21235812.7754
  21232686.898     3241004.621 8   2544165.76647  21232686.507    21232694.1004
  22314210.958   -10279202.837 8  -7662336.93446  22314211.113    22314218.7344
  24318169.419     8467640.985 8   6590027.83145  24318169.691    24318178.2684
  24124976.332    -3493519.334 8  -2486282.93345  24124976.326    24124987.9824
  23624463.692   -10383824.780 7  -7744364.45045  23624463.534    23624470.4484
 99  9 17 16 29  0.0000000  0  8 03 23 21 17 29 26 09 31
  21419181.148    -5365553.972 8  -4161511.09547  21419181.119    21419187.8024
  20947233.451     1415766.371 9   1107718.53947  20947233.182    20947239.9234
  21228195.998    -5896855.123 9  -4579548.08747  21228195.776    21228202.7774
  21243000.719     3295203.698 8   2586398.77247  21243000.317    21243007.8974
  22296271.688   -10373474.167 8  -7735795.04446  22296271.822    22296279.3824
  24337997.844     8571839.359 7   6671221.34445  24337997.926    24338006.7674
  24114753.895    -3547239.492 7  -2528142.76845  24114753.913    24114765.4214
  23608918.079   -10465518.186 7  -7808021.65445  23608917.776    23608924.7504
 99  9 17 16 29 30.0000000  0  8 03 23 21 17 29 26 09 31
  21415391.630    -5385468.225 8  -4177028.71047  21415391.603    21415398.2794
  20953537.635     1448894.734 9   1133532.83547  20953537.358    20953544.0854
  21220635.691    -5936584.928 9  -4610506.37447  21220635.460    21220642.4354
  21253379.263     3349743.098 8   2628896.96447  21253378.852    21253386.4164
  22278383.318   -10467477.890 8  -7809044.63646  22278383.436    22278391.0304
  24357871.280     8676275.345 7   6752599.81145  24357871.636    24357880.3004
  24104606.514    -3600564.365 7  -2569694.59545  24104606.380    24104617.8294
  23593437.523   -10546869.087 7  -7871411.97945  23593437.203    23593444.2084
 99  9 17 16 30  0.0000000  0  8 03 23 21 17 29 26 09 31
  21411711.230    -5404809.050 9  -4192099.49947  21411711.191    21411717.8694
  20959888.598     1482269.076 9   1159538.80247  20959888.291    20959895.0314
  21213126.539    -5976045.955 9  -4641255.22247  21213126.298    21213133.2414
  21263823.694     3404628.768 8   2671664.97547  21263823.272    21263830.8344
  22260547.421   -10561205.800 8  -7882079.31546  22260547.564    22260555.1594
  24377787.901     8780937.492 7   6834154.58945  24377788.238    24377797.0734
  24094535.947    -3653484.340 7  -2610930.85645  24094535.891    24094547.1544
  23578025.297   -10627861.154 7  -7934522.69545  23578024.893    23578031.9094
 99  9 17 16 30 30.0000000  0  8 03 23 21 17 29 26 09 31
  21408139.889    -5423576.809 9  -4206723.74247  21408139.843    21408146.5024
  20966287.336     1515894.504 9   1185740.41747  20966287.042    20966293.7644
  21205671.951    -6015220.062 9  -4671780.50247  21205671.709    21205678.6434
  21274336.262     3459872.542 8   2714712.02547  21274335.854    21274343.4024
  22242765.540   -10654650.126 8  -7954893.00746  22242765.663    22242773.2964
  24397745.123     8885812.872 7   6915875.45045  24397745.542    24397754.3784
  24084544.855    -3705987.782 7  -2651842.51045  24084544.806    24084556.1624
  23562683.014   -10708485.566 7  -7997346.92745  23562682.704    23562689.6764
 99  9 17 16 31  0.0000000  0  8 03 23 21 17 29 26 09 31
  21404678.839    -5441765.010 9  -4220896.38247  21404678.789    21404685.4184
  20972732.341     1549763.062 9   1212131.48747  20972732.040    20972738.7314
  21198271.472    -6054110.067 9  -4702084.39547  21198271.212    21198278.1264
  21284919.000     3515485.237 8   2758046.55347  21284918.598    21284926.2044
  22225038.407   -10747806.724 8  -8027482.50846  22225038.536    22225046.1184
  24417739.882     8990885.073 7   6997750.05945  24417740.420    24417748.2894
  24074637.010    -3758054.748 7  -2692414.08745  24074636.906    24074648.2534
  23547416.711   -10788710.605 7  -8059859.94645  23547416.383    23547423.4244
 99  9 17 16 31 30.0000000  0  8 03 23 21 17 29 26 09 31
  21401327.444    -5459376.998 9  -4234620.02647  21401327.379    21401333.9814
  20979221.894     1583865.678 9   1238704.93747  20979221.587    20979228.2484
  21190924.934    -6092716.426 9  -4732167.27047  21190924.678    21190931.5624
  21295570.702     3571460.025 8   2801663.22647  21295570.293    21295577.9114
  22207364.579   -10840683.197 8  -8099853.72346  22207364.682    22207372.2874
  24437768.628     9096136.069 8   7079763.55545  24437769.014    24437777.6544
  24064807.451    -3809708.825 7  -2732663.95445  24064807.391    24064818.4724
  23532230.988   -10868511.769 8  -8122042.68845  23532230.715    23532237.7374
 99  9 17 16 32  0.0000000  0  8 03 23 21 17 29 26 09 31
  21398086.915    -5476406.128 9  -4247889.49947  21398086.843    21398093.4514
  20985755.903     1618201.930 9   1265460.44347  20985755.584    20985762.2334
  21183632.531    -6131038.401 9  -4762028.54847  21183632.277    21183639.1414
  21306292.157     3627801.442 8   2845565.57847  21306291.761    21306299.3904
  22189744.476   -10933277.469 8  -8172005.04446  22189744.569    22189752.1274
  24457831.527     9201566.024 6   7161916.76844  24457831.747    24457839.7944
  24055052.612    -3860970.615 7  -2772608.17545  24055052.493    24055063.3124
  23517126.512   -10947886.806 8  -8183893.37845  23517126.262    23517133.2394
 99  9 17 16 32 30.0000000  0  8 03 23 21 17 29 26 09 31
  21394961.410    -5492830.956 9  -4260688.08247  21394961.326    21394967.9464
  20992333.628     1652767.950 9   1292394.98947  20992333.290    20992339.9304
  21176391.583    -6169090.122 9  -4791679.23847  21176391.319    21176398.1604
  21317082.534     3684504.865 8   2889750.02747  21317082.091    21317089.7414
  22172180.027   -11025579.181 8  -8243928.39346  22172180.139    22172187.6794
  24477928.710     9307177.383 7   7244211.19445  24477929.001    24477937.1834
  24045370.421    -3911851.565 7  -2812255.53045  24045370.277    24045381.2194
  23502102.848   -11026836.752 8  -8245412.83245  23502102.583    23502109.6354
 99  9 17 16 33  0.0000000  0  8 03 23 21 17 29 26 09 31
  21391951.708    -5508647.421 9  -4273012.62347  21391951.590    21391958.2074
  20998953.077     1687553.147 9   1319500.31747  20998952.737    20998959.3324
  21169199.866    -6206882.812 9  -4821128.09447  21169199.598    21169206.4424
  21327939.856     3741560.266 8   2934208.73547  21327939.435    21327947.0404
  22154672.342   -11117582.580 8  -8315619.29546  22154672.439    22154679.9634
  24498062.923     9412982.505 7   7326656.52445  24498063.043    24498071.7264
  24035758.823    -3962359.249 7  -2851611.96545  24035758.752    24035769.9784
  23487159.568   -11105364.433 8  -8306603.25245  23487159.298    23487166.3244
 99  9 17 16 33 30.0000000  0  8 03 23 21 17 29 26 09 31
  21389058.182    -5523853.062 9  -4284861.19447  21389058.073    21389064.6734
  21005615.634     1722565.128 9   1346782.36247  21005615.305    21005621.9004
  21162054.951    -6244429.614 9  -4850385.34147  21162054.704    21162061.5414
  21338861.868     3798955.573 8   2978932.30347  21338861.443    21338869.0294
  22137223.797   -11209275.082 8  -8387067.94446  22137223.909    22137231.3414
  24518232.862     9518975.375 8   7409248.47845  24518233.060    24518240.9954
  24026215.291    -4012509.171 7  -2890689.60945  24026215.167    24026226.6994
  23472293.032   -11183488.867 8  -8367479.43645  23472292.770    23472299.7884
 99  9 17 16 34  0.0000000  0  8 03 23 21 17 29 26 09 31
  21386282.185    -5538441.137 9  -4296228.54347  21386282.095    21386288.6714
  21012322.471     1757809.631 9   1374245.59247  21012322.142    21012328.7424
  21154956.346    -6281733.138 9  -4879453.02947  21154956.089    21154962.8974
  21349845.703     3856675.917 8   3023909.14147  21349845.280    21349852.8784
  22119838.016   -11300637.918 8  -8458259.70246  22119838.125    22119845.5594
  24538436.609     9625146.768 7   7491979.30245  24538436.764    24538445.3074
  24016743.860    -4062282.984 7  -2929474.37245  24016743.684    24016754.9534
  23457501.631   -11261218.397 8  -8428047.89845  23457501.330    23457508.3544
 99  9 17 16 34 30.0000000  0  8 03 23 21 17 29 26 09 31
  21383622.460    -5552418.298 9  -4307119.85947  21383622.376    21383628.9464
  21019070.169     1793268.753 9   1401876.05247  21019069.831    21019076.4234
  21147906.025    -6318782.885 9  -4908322.96747  21147905.759    21147912.5684
  21360888.631     3914706.413 8   3069127.65947  21360888.195    21360895.7864
  22102513.798   -11391676.866 8  -8529199.08546  22102513.928    22102521.3474
  24558672.899     9731489.086 7   7574843.20845  24558673.124    24558681.8034
  24007347.689    -4111659.954 7  -2967949.83445  24007347.609    24007358.5264
  23442786.614   -11338546.504 8  -8488303.57445  23442786.327    23442793.3394
 99  9 17 16 35  0.0000000  0  7 03 23 21 17 29 09 31
  21381071.062    -5565826.291 9  -4317567.66847  21381070.943    21381077.4754
  21025854.208     1828919.244 9   1429655.63047  21025853.854    21025860.4564
  21140900.483    -6355597.546 9  -4937009.71947  21140900.199    21140906.9804
  21371987.649     3973031.808 8   3114575.96847  21371987.221    21371994.8444
  22085244.127   -11482429.499 8  -8599915.37146  22085244.234    22085251.6194
  23998025.044    -4160649.859 7  -3006123.57545  23998024.953    23998036.0444
  23428143.473   -11415497.092 8  -8548265.07145  23428143.223    23428150.1554
 99  9 17 16 35 30.0000000  0  7 03 23 21 17 29 09 31
  21378633.422    -5578636.390 9  -4327549.58447  21378633.290    21378639.8184
  21032684.584     1864812.776 9   1457624.58747  21032684.236    21032690.8214
  21133943.752    -6392155.481 9  -4965496.42847  21133943.465    21133950.2394
  21383147.879     4031679.162 8   3160275.15547  21383147.495    21383155.1044
  22068033.539   -11572871.448 8  -8670389.55946  22068033.649    22068041.0734
  23988783.543    -4209214.332 7  -3043965.84145  23988783.471    23988794.4954
  23413577.281   -11492043.265 8  -8607911.44545  23413576.958    23413583.8804
 99  9 17 16 36  0.0000000  0  7 03 23 21 17 29 09 31
  21376310.505    -5590843.484 9  -4337061.62347  21376310.358    21376316.8964
  21039563.371     1900961.032 9   1485792.03247  21039563.024    21039569.6304
  21127039.264    -6428439.002 9  -4993769.30647  21127038.965    21127045.7174
  21394373.106     4090667.867 8   3206240.33447  21394372.664    21394380.3194
  22050883.957   -11662992.993 8  -8740614.09046  22050884.051    22050891.4474
  23979627.982    -4257326.731 7  -3081455.93745  23979627.799    23979638.7174
  23399093.219   -11568157.562 8  -8667221.29345  23399092.865    23399099.8574
 99  9 17 16 36 30.0000000  0  7 03 23 21 17 29 09 31
  21374100.195    -5602458.976 9  -4346112.67847  21374100.028    21374106.5614
  21046490.107     1937361.096 9   1514155.68747  21046489.758    21046496.3754
  21120183.130    -6464468.285 9  -5021844.07347  21120182.832    21120189.5634
  21405666.330     4150013.786 8   3252483.85447  21405665.886    21405673.5704
  22033792.482   -11752809.328 8  -8810600.78346  22033792.573    22033799.9264
  23970558.796    -4304985.031 7  -3118592.09445  23970558.698    23970569.5404
  23384689.965   -11643847.416 8  -8726200.40345  23384689.626    23384696.5574
 99  9 17 16 37  0.0000000  0  7 03 23 21 17 29 09 31
  21372002.663    -5613481.479 9  -4354701.66447  21372002.521    21372009.0694
  21053468.017     1974030.148 9   1542728.94547  21053467.648    21053474.2984
  21113372.493    -6500258.440 9  -5049732.50347  21113372.177    21113378.9274
  21417028.102     4209719.947 8   3299008.08447  21417027.660    21417035.3404
  22016761.481   -11842307.670 8  -8880339.70146  22016761.553    22016768.8994
  23961577.161    -4352183.454 7  -3155369.89445  23961577.006    23961587.9544
  23370363.320   -11719134.702 8  -8784865.82745  23370362.994    23370369.8904
 99  9 17 16 37 30.0000000  0  7 03 23 21 17 29 09 31
  21370018.798    -5623906.734 9  -4362825.26047  21370018.684    21370025.2384
  21060496.157     2010963.188 9   1571507.90547  21060495.822    21060502.4604
  21106610.236    -6535794.168 9  -5077422.67447  21106609.928    21106616.7004
  21428456.222     4269775.163 8   3345804.30047  21428455.809    21428463.5104
  21999794.012   -11931472.096 8  -8949818.42246  21999794.119    21999801.4614
  23952684.057    -4398916.161 7  -3191784.79545  23952683.863    23952695.0004
  23356114.865   -11794010.718 8  -8843210.78345  23356114.499    23356121.4934
 99  9 17 16 38  0.0000000  0  7 03 23 21 17 29 09 31
  21368147.414    -5633740.975 9  -4370488.33147  21368147.309    21368153.9114
  21067570.034     2048136.529 9   1600474.11347  21067569.695    21067576.3344
  21099900.568    -6571053.640 9  -5104897.58847  21099900.263    21099907.0764
  21439952.860     4330190.404 8   3392881.05847  21439952.420    21439960.1754
  21982890.423   -12020300.740 8  -9019035.50046  21982890.532    21982897.8754
  23943878.314    -4445189.673 8  -3227841.96745  23943878.118    23943889.2554
  23341945.228   -11868472.369 8  -8901232.85545  23341944.898    23341951.8894
 99  9 17 16 38 30.0000000  0  7 03 23 21 17 29 09 31
  21366390.167    -5642975.323 9  -4377683.95247  21366390.076    21366396.7164
  21074689.948     2085552.014 9   1629629.00647  21074689.636    21074696.2664
  21093245.265    -6606027.324 9  -5132149.81047  21093244.980    21093251.7934
  21451518.472     4390967.886 8   3440240.08647  21451518.023    21451525.8074
  21966051.644   -12108788.900 8  -9087987.26446  21966051.749    21966059.0294
  23935160.506    -4491002.062 7  -3263539.83445  23935160.363    23935171.2544
  23327853.319   -11942525.625 8  -8958936.70645  23327852.953    23327860.0244
 99  9 17 16 39  0.0000000  0  7 03 23 21 17 29 09 31
  21364747.908    -5651605.616 9  -4384408.88347  21364747.793    21364754.4884
  21081857.006     2123214.923 9   1658976.69547  21081856.674    21081863.3104
  21086647.914    -6640696.626 9  -5159164.85447  21086647.638    21086654.4664
  21463151.441     4452099.549 8   3487875.08947  21463151.000    21463158.8164
  21949280.261   -12196922.842 8  -9156663.01647  21949280.380    21949287.6714
  23926529.625    -4536356.906 8  -3298881.05945  23926529.469    23926540.5084
  23313844.020   -12016144.933 8  -9016302.41245  23313843.662    23313850.7264
 99  9 17 16 39 30.0000000  0  7 03 23 21 17 29 09 31
  21363221.173    -5659628.600 9  -4390660.58447  21363221.080    21363227.7604
  21089067.546     2161106.297 9   1688502.41047  21089067.213    21089073.8304
  21080106.793    -6675070.519 9  -5185949.71947  21080106.516    21080113.3514
  21474852.958     4513591.336 8   3535790.70947  21474852.549    21474860.3884
  21932575.593   -12284706.318 8  -9225065.67447  21932575.714    21932583.0074
  23917982.204    -4581274.099 8  -3333881.37145  23917982.085    23917992.8904
  23299923.375   -12089298.215 8  -9073304.98445  23299923.069    23299930.1184
 99  9 17 16 40  0.0000000  0  7 03 23 21 17 29 09 31
  21361810.548    -5667041.502 9  -4396436.89747  21361810.476    21361817.1754
  21096319.307     2199214.502 9   1718197.08147  21096318.982    21096325.6164
  21073614.093    -6709190.005 9  -5212536.33747  21073613.811    21073620.6574
  21486623.571     4575446.154 8   3583989.21447  21486623.170    21486631.0224
  21915935.453   -12372150.454 8  -9293203.91447  21915935.584    21915942.8614
  23909515.153    -4625768.476 7  -3368552.28945  23909515.088    23909525.3084
  23286091.408   -12161985.979 8  -9129944.83145  23286091.024    23286098.0484
 99  9 17 16 40 30.0000000  0  7 03 23 21 17 29 09 31
  21360514.921    -5673850.144 9  -4401742.35147  21360514.843    21360521.5614
  21103610.884     2237531.580 9   1748054.50947  21103610.544    21103617.1704
  21067164.026    -6743085.459 9  -5238948.38947  21067163.746    21067170.5954
  21498457.642     4637634.061 8   3632447.26247  21498457.218    21498465.0444
  21899357.418   -12459268.378 8  -9361087.96547  21899357.540    21899364.8194
  23901127.939    -4669841.877 7  -3402895.05045  23901127.944    23901138.1944
  23272347.738   -12234209.571 8  -9186222.97645  23272347.449    23272354.3204
 99  9 17 16 41  0.0000000  0  7 03 23 21 17 29 09 31
  21359332.716    -5680062.856 9  -4406583.45147  21359332.642    21359339.3684
  21110938.048     2276035.979 9   1778057.90547  21110937.732    21110944.3734
  21060754.106    -6776769.923 9  -5265196.03347  21060753.804    21060760.6694
  21510351.701     4700137.658 8   3681151.30847  21510351.294    21510359.1274
  21882838.810   -12546074.147 8  -9428728.76947  21882838.916    21882846.2174
  23892817.314    -4713513.821 7  -3436925.03345  23892817.367    23892827.8104
  23258691.626   -12305973.057 8  -9242142.59545  23258691.333    23258698.1244
 99  9 17 16 41 30.0000000  0  7 03 23 21 17 29 09 31
  21358263.388    -5685682.331 9  -4410962.28347  21358263.292    21358270.0494
  21118300.145     2314723.902 9   1808204.30647  21118299.815    21118306.4644
  21054384.230    -6810243.870 9  -5291279.63947  21054383.943    21054390.7884
  21522305.704     4762956.048 8   3730100.64547  21522305.288    21522313.0954
  21866376.273   -12632585.116 8  -9496139.86247  21866376.393    21866383.7034
  23884583.101    -4756784.389 7  -3470642.29345  23884583.108    23884593.5744
  23245119.204   -12377296.679 8  -9297719.46645  23245118.918    23245125.6904
 99  9 17 16 42  0.0000000  0  7 03 23 21 17 29 09 31
  21357306.473    -5690711.004 9  -4414880.75547  21357306.384    21357313.1444
  21125700.202     2353611.372 9   1838506.20447  21125699.892    21125706.5584
  21048060.900    -6843473.105 9  -5317172.55847  21048060.621    21048067.4694
  21534319.003     4826086.337 8   3779293.02247  21534318.581    21534326.4364
  21849970.799   -12718796.135 8  -9563317.23947  21849970.940    21849978.2244
  23876429.194    -4799633.476 7  -3504031.12445  23876429.112    23876439.5384
  23231629.357   -12448186.084 8  -9352957.97945  23231629.117    23231635.9944
 99  9 17 16 42 30.0000000  0  8 03 08 23 21 17 29 09 31
  21356462.987    -5695143.685 9  -4418334.81147  21356462.908    21356469.6664
  24704368.408     -786421.080 7   -590636.31945  24704367.552    24704380.0014
  21133141.278     2392714.305 9   1868975.99147  21133140.981    21133147.6394
  21041792.043    -6876416.030 9  -5342842.37447  21041791.771    21041798.6534
  21546393.818     4889539.367 8   3828736.88547  21546393.392    21546401.2084
  21833626.997   -12804683.383 8  -9630242.31247  21833627.105    21833634.4124
  23868359.183    -4842040.989 7  -3537075.87445  23868359.019    23868369.4544
  23218223.282   -12518635.548 8  -9407853.68245  23218223.018    23218229.9694
 99  9 17 16 43  0.0000000  0  8 03 08 23 21 17 29 09 31
  21355733.862    -5698975.556 9  -4421320.70447  21355733.773    21355740.5134
  24687503.607     -875046.032 7   -659694.73345  24687503.658    24687515.4504
  21140623.877     2432035.383 9   1899615.76047  21140623.551    21140630.2284
  21035578.254    -6909069.825 9  -5368286.88747  21035577.992    21035584.8934
  21558533.479     4953333.304 8   3878446.38547  21558533.068    21558540.8434
  21817345.943   -12890240.702 8  -9696910.30447  21817346.085    21817353.3764
  23860375.107    -4883997.314 8  -3569769.02145  23860374.976    23860385.4534
  23204901.526   -12588641.817 8  -9462404.03545  23204901.261    23204908.1944
 99  9 17 16 43 30.0000000  0  8 03 08 23 21 17 29 09 31
  21355119.132    -5702206.145 9  -4423838.07047  21355119.059    21355125.7634
  24670656.364     -963579.127 7   -728681.53945  24670656.171    24670668.1664
  21148150.490     2471587.994 9   1930435.94747  21148150.170    21148156.8554
  21029419.684    -6941433.255 9  -5393505.14147  21029419.406    21029426.3434
  21570740.719     5017482.435 8   3928432.67047  21570740.287    21570748.0814
  21801131.090   -12975450.246 8  -9763307.30747  21801131.221    21801138.5044
  23852483.609    -4925467.993 8  -3602083.77245  23852483.499    23852494.1074
  23191667.592   -12658186.540 8  -9516594.73145  23191667.293    23191674.2814
 99  9 17 16 44  0.0000000  0  8 03 08 23 21 17 29 09 31
  21354617.977    -5704839.957 9  -4425890.40747  21354617.895    21354624.5774
  24653825.819    -1052024.624 7   -797600.07445  24653825.721    24653837.5454
  21155718.987     2511360.595 9   1961427.55647  21155718.671    21155725.3494
  21023313.723    -6973520.300 9  -5418508.02747  21023313.453    21023320.4204
  21583015.483     5081986.624 8   3978695.61847  21583015.069    21583022.8854
  21784985.855   -13060293.827 8  -9829419.13647  21784986.008    21784993.2714
  23844685.980    -4966444.276 7  -3634013.33145  23844685.858    23844696.3504
  23178522.250   -12727265.741 8  -9570422.68245  23178521.963    23178529.0234
 99  9 17 16 44 30.0000000  0  8 03 08 23 21 17 29 09 31
  21354229.689    -5706880.516 9  -4427480.47347  21354229.594    21354236.3084
  24637013.564    -1140373.377 7   -866443.18445  24637013.381    24637025.4214
  21163329.399     2551353.539 9   1992590.86047  21163329.082    21163335.7814
  21017253.306    -7005367.978 9  -5443324.39547  21017253.029    21017259.9804
  21595356.450     5146838.702 8   4029229.65047  21595356.036    21595363.8844
  21768908.602   -13144780.072 8  -9895252.52347  21768908.758    21768916.0134
  23836982.287    -5006926.783 7  -3665558.14745  23836982.211    23836992.5654
  23165465.068   -12795881.985 8  -9623889.89045  23165464.782    23165471.7844
 99  9 17 16 45  0.0000000  0  8 03 08 23 21 17 29 09 31
  21353952.700    -5708336.077 9  -4428614.70247  21353952.626    21353959.3614
  24620218.335    -1228632.993 7   -935216.84745  24620218.048    24620230.3414
  21170980.443     2591559.938 9   2023920.49547  21170980.135    21170986.8334
  21011233.692    -7037001.266 9  -5467973.70747  21011233.426    21011240.3794
  21607760.590     5212022.682 8   4080022.30847  21607760.169    21607768.0514
  21752896.385   -13228924.650 8  -9960819.67447  21752896.523    21752903.7654
  23829369.867    -5046930.821 8  -3696730.09045  23829369.840    23829380.1204
  23152495.659   -12864036.703 8  -9676997.46345  23152495.331    23152502.3754
 99  9 17 16 45 30.0000000  0  8 03 08 23 21 17 29 09 31
  21353784.409    -5709220.523 9  -4429303.90447  21353784.343    21353791.0524
  24603437.001    -1316819.308 7  -1003933.38245  24603436.756    24603448.9364
  21178671.539     2631976.609 9   2055413.97547  21178671.221    21178677.9394
  21005255.129    -7068418.827 9  -5492454.92247  21005254.845    21005261.8114
  21620226.479     5277531.177 8   4131067.83447  21620226.039    21620233.9224
  21736950.646   -13312719.811 8 -10026114.55347  21736950.822    21736958.0234
  23821844.022    -5086479.612 7  -3727547.36745  23821844.031    23821854.0674
  23139612.934   -12931735.655 8  -9729749.89145  23139612.580    23139619.7564
 99  9 17 16 46  0.0000000  0  8 03 08 23 21 17 29 09 31
  21353728.328    -5709515.247 9  -4429533.58447  21353728.252    21353734.9874
  24586672.164    -1404919.343 7  -1072582.75645  24586671.901    24586683.9064
  21186403.755     2672609.816 9   2087076.18547  21186403.448    21186410.1984
  20999321.153    -7099602.171 9  -5516753.62847  20999320.873    20999327.8204
  21632754.764     5343367.496 8   4182368.80547  21632754.366    21632762.2534
  21721072.608   -13396159.264 8 -10091132.25747  21721072.784    21721079.9504
  23814401.162    -5125591.062 7  -3758023.83245  23814401.103    23814411.2954
  23126816.896   -12998979.160 8  -9782147.43645  23126816.638    23126823.8044
 99  9 17 16 46 30.0000000  0  8 03 08 23 21 17 29 09 31
  21353788.170    -5709200.895 9  -4429288.66147  21353788.110    21353794.8714
  24569927.197    -1492914.299 7  -1141150.14545  24569926.894    24569939.0314
  21194177.475     2713460.902 9   2118908.16947  21194177.176    21194183.9604
  20993433.381    -7130542.544 9  -5540863.01347  20993433.109    20993440.0484
  21645345.519     5409532.096 8   4233925.58347  21645345.109    21645353.0424
  21705262.957   -13479239.231 8 -10155869.83347  21705263.129    21705270.3264
  23807041.821    -5164264.306 7  -3788158.82345  23807041.698    23807052.0914
  23114109.346   -13065757.968 8  -9834182.86745  23114109.035    23114116.2454
 99  9 17 16 47  0.0000000  0  8 03 08 23 21 17 29 09 31
  21353964.581    -5708273.879 9  -4428566.33947  21353964.518    21353971.2874
  24553201.084    -1580810.586 7  -1209640.72945  24553200.733    24553212.8244
  21201989.167     2754511.362 9   2150895.51147  21201988.858    21201995.6544
  20987597.997    -7161207.705 9  -5564757.94847  20987597.728    20987604.6504
  21657999.741     5476030.446 8   4285742.42247  21657999.369    21658007.3364
  21689525.791   -13561938.480 8 -10220310.75947  21689525.974    21689533.1184
  23799765.785    -5202500.226 8  -3817953.03045  23799765.704    23799776.1844
  23101489.608   -13132075.161 8  -9885858.60745  23101489.302    23101496.4434
 99  9 17 16 47 30.0000000  0  8 03 08 23 21 17 29 09 31
  21354258.405    -5706730.059 9  -4427363.39347  21354258.334    21354265.1014
  24536496.649    -1668593.291 7  -1278042.76545  24536496.187    24536508.4084
  21209838.216     2795758.351 9   2183035.99247  21209837.915    21209844.7344
  20981817.715    -7191583.072 9  -5588427.06947  20981817.470    20981824.4154
  21670718.301     5542866.331 8   4337822.28347  21670717.894    21670725.8414
  21673862.578   -13644248.892 8 -10284448.68447  21673862.727    21673869.9214
  23792577.825    -5240274.024 7  -3847387.19245  23792577.701    23792588.0284
  23088958.472   -13197926.807 8  -9937171.58045  23088958.127    23088965.3204
 99  9 17 16 48  0.0000000  0  8 03 08 23 21 17 29 09 31
  21354671.068    -5704561.784 9  -4425673.86047  21354670.969    21354677.7434
  24519814.249    -1756259.489 7  -1346354.02345  24519813.696    24519826.1474
  21217724.763     2837202.142 9   2215329.82547  21217724.455    21217731.2714
  20976093.482    -7221664.273 9  -5611866.96947  20976093.213    20976100.1744
  21683499.309     5610030.821 8   4390158.18747  21683498.876    21683506.8854
  21658270.935   -13726183.329 8 -10348293.64047  21658271.111    21658278.2714
  23785481.676    -5277563.724 7  -3876444.05145  23785481.454    23785491.9484
  23076516.545   -13263309.590 8  -9988119.20345  23076516.200    23076523.4294
 99  9 17 16 48 30.0000000  0  8 03 08 23 21 17 29 09 31
  21355199.980    -5701782.264 9  -4423508.03147  21355199.923    21355206.6934
  24503152.069    -1843819.692 7  -1414582.67145  24503151.512    24503163.8964
  21225650.230     2878850.396 9   2247782.98147  21225649.908    21225656.7364
  20970423.908    -7251458.155 9  -5635082.98647  20970423.658    20970430.5944
  21696344.863     5677534.746 8   4442758.58947  21696344.483    21696352.5194
  21642750.482   -13807743.765 8 -10411847.17047  21642750.625    21642757.7944
  23778482.022    -5314347.374 8  -3905106.63545  23778481.969    23778492.2614
  23064164.144   -13328222.075 8 -10038700.36245  23064163.782    23064171.0074
 99  9 17 16 49  0.0000000  0  8 03 08 23 21 17 29 09 31
  21355842.908    -5698403.772 9  -4420875.46647  21355842.828    21355849.6384
  24486510.141    -1931273.755 7  -1482728.64045  24486509.542    24486522.0274
  21233618.494     2920723.896 9   2280411.66347  21233618.172    21233625.0054
  20964811.207    -7280953.196 9  -5658066.13947  20964810.943    20964817.8544
  21709257.091     5745388.873 8   4495631.87747  21709256.724    21709264.7954
  21627300.738   -13888932.470 8 -10475111.03547  21627300.861    21627308.0274
  23771581.017    -5350612.811 7  -3933365.39345  23771580.987    23771591.2294
  23051903.349   -13392653.091 8 -10088906.34345  23051903.009    23051910.2054
 99  9 17 16 49 30.0000000  0  8 03 08 23 21 17 29 09 31
  21356602.256    -5694413.559 9  -4417766.23647  21356602.202    21356608.9914
  24469889.279    -2018616.333 7  -1550787.74545  24469888.619    24469901.0684
  21241631.987     2962834.875 9   2313225.38847  21241631.664    21241638.5084
  20959251.230    -7310171.161 9  -5680833.38547  20959250.972    20959257.8654
  21722237.405     5813600.145 8   4548783.46946  21722236.968    21722245.0344
  21611918.784   -13969764.783 8 -10538097.19247  21611918.910    21611926.1054
  23764781.079    -5386346.031 7  -3961209.37045  23764781.035    23764791.3984
  23039737.741   -13456583.740 8 -10138722.44046  23039737.412    23039744.6274
 99  9 17 16 50  0.0000000  0  8 03 08 23 21 17 29 09 31
  21357477.981    -5689811.707 9  -4414180.40547  21357477.926    21357484.7264
  24453288.274    -2105855.004 7  -1618765.82945  24453287.612    24453300.0504
  21249691.324     3005187.001 9   2346227.01947  21249690.995    21249697.8364
  20953741.173    -7339126.825 9  -5703396.24047  20953740.907    20953747.7904
  21735287.104     5882176.866 8   4602219.82046  21735286.664    21735294.7604
  21596604.096   -14050243.957 8 -10600808.17747  21596604.232    21596611.3904
  23758081.650    -5421551.355 8  -3988642.00945  23758081.692    23758092.1074
  23027666.403   -13520019.195 8 -10188152.67946  23027666.089    23027673.3384
 99  9 17 16 50 30.0000000  0  8 03 08 23 21 17 29 09 31
  21358468.718    -5684605.514 9  -4410123.64947  21358468.650    21358475.4804
  24436709.493    -2192976.450 7  -1686652.60345  24436709.018    24436721.3694
  21257794.968     3047771.987 9   2379410.10147  21257794.665    21257801.5084
  20948279.816    -7367826.605 9  -5725759.70247  20948279.558    20948286.4114
  21748407.630     5951125.547 8   4655946.00746  21748407.221    21748415.3184
  21581358.310   -14130361.053 8 -10663237.01847  21581358.427    21581365.5754
  23751482.178    -5456232.855 8  -4015666.51645  23751482.131    23751492.3394
  23015689.618   -13582957.770 8 -10237195.72446  23015689.330    23015696.5534
 99  9 17 16 51  0.0000000  0  8 03 08 23 21 17 29 09 31
  21359575.360    -5678790.116 9  -4405592.19047  21359575.304    21359582.1404
  24420155.370    -2279968.758 7  -1754438.74445  24420154.889    24420167.1204
  21265936.428     3090555.626 9   2412747.97347  21265936.119    21265942.9764
  20942865.121    -7396280.865 9  -5747931.85147  20942864.876    20942871.7484
  21761593.888     6020419.675 8   4709941.37346  21761593.493    21761601.6374
  21566182.021   -14210112.957 8 -10725381.30047  21566182.133    21566189.2314
  23744978.531    -5490409.151 7  -4042297.32345  23744978.484    23744988.5684
  23003808.983   -13645390.914 8 -10285844.93846  23003808.745    23003815.9634
 99  9 17 16 51 30.0000000  0  8 03 08 23 21 17 29 09 31
  21360796.405    -5672373.772 9  -4400592.46147  21360796.348    21360803.1804
  24403622.612    -2366848.350 7  -1822137.02845  24403622.144    24403634.4354
  21274109.651     3133505.973 9   2446215.74547  21274109.331    21274116.1964
  20937493.626    -7424508.442 9  -5769927.36547  20937493.355    20937500.2434
  21774842.295     6090040.045 8   4764190.94946  21774841.891    21774850.0154
  21551074.437   -14289503.613 8 -10787244.08647  21551074.561    21551081.6284
  23738567.530    -5524098.056 7  -4068548.28845  23738567.491    23738577.9104
  22992020.979   -13707337.405 8 -10334114.94146  22992020.725    22992027.9084
 99  9 17 16 52  0.0000000  0  8 03 08 23 21 17 29 09 31
  21362127.983    -5665376.388 9  -4395139.96947  21362127.917    21362134.7244
  24387112.559    -2453608.962 7  -1889742.58745  24387111.964    24387124.4154
  21282313.509     3176617.422 9   2479809.05147  21282313.201    21282320.0864
  20932166.759    -7452501.406 9  -5791740.06447  20932166.493    20932173.3584
  21788151.028     6159977.507 8   4818687.60646  21788150.617    21788158.7064
  21536038.151   -14368519.800 8 -10848815.08447  21536038.251    21536045.2594
  23732246.238    -5557317.371 7  -4094433.34745  23732246.188    23732256.7474
  22980322.704   -13768812.601 8 -10382017.70546  22980322.374    22980329.5314
 99  9 17 16 52 30.0000000  0  8 03 08 23 21 17 29 09 31
  21363569.539    -5657801.201 9  -4389237.23847  21363569.469    21363576.2674
  24370627.541    -2540238.237 7  -1957245.78945  24370626.757    24370639.3384
  21290546.340     3219880.939 9   2513520.84447  21290546.022    21290552.9174
  20926885.196    -7480256.376 9  -5813367.31047  20926884.919    20926891.7674
  21801516.518     6230213.023 8   4873416.51446  21801516.064    21801524.1534
  21521076.712   -14447142.680 8 -10910079.60647  21521076.799    21521083.7764
  23726012.784    -5590073.836 7  -4119957.76045  23726012.754    23726023.3454
  22968717.998   -13829795.790 8 -10429537.09146  22968717.698    22968724.7904
 99  9 17 16 53  0.0000000  0  8 03 08 23 21 17 29 09 31
  21365120.345    -5649651.923 9  -4382887.17247  21365120.275    21365127.0674
  24354168.313    -2626731.620 7  -2024643.11345  24354167.551    24354180.1334
  21298806.804     3263289.843 9   2547345.93047  21298806.473    21298813.3594
  20921646.113    -7507788.031 9  -5834820.54847  20921645.826    20921652.6684
  21814936.225     6300733.659 8   4928367.59046  21814935.744    21814943.8794
  21506190.340   -14525371.179 8 -10971036.82047  21506190.424    21506197.3544
  23719866.300    -5622372.615 7  -4145125.56145  23719866.169    23719876.5404
  22957204.756   -13890298.478 8 -10476682.05846  22957204.418    22957211.5274
 99  9 17 16 53 30.0000000  0  8 03 08 23 21 17 29 09 31
  21366780.101    -5640930.008 9  -4376090.89447  21366780.006    21366786.8084
  24337735.953    -2713083.052 7  -2091929.82645  24337735.257    24337747.7754
  21307098.157     3306860.933 9   2581297.39247  21307097.823    21307104.7374
  20916450.976    -7535088.729 9  -5856093.81647  20916450.673    20916457.5254
  21828411.282     6371545.538 8   4983545.61046  21828410.876    21828419.0174
  21491378.510   -14603207.848 8 -11031688.71847  21491378.588    21491385.4634
  23713809.134    -5654203.433 8  -4169928.64745  23713808.992    23713819.4694
  22945780.228   -13950334.876 8 -10523463.67046  22945779.897    22945786.9724
 99  9 17 16 54  0.0000000  0  8 03 08 23 21 17 29 09 31
  21368550.206    -5631628.175 9  -4368842.72747  21368550.121    21368556.9054
  24321334.786    -2799271.014 7  -2159089.13345  24321334.310    24321346.6094
  21315421.840     3350602.115 9   2615381.38947  21315421.511    21315428.4154
  20911299.945    -7562157.396 9  -5877186.29047  20911299.668    20911306.5004
  21841943.713     6442658.431 8   5038958.18646  21841943.277    21841951.4134
  21476640.776   -14680654.781 8 -11092036.92547  21476640.871    21476647.7274
  23707841.579    -5685563.423 7  -4194364.86745  23707841.383    23707851.8924
  22934447.435   -14009889.146 8 -10569869.60946  22934447.133    22934454.1414
 99  9 17 16 54 30.0000000  0  8 03 08 23 21 17 29 09 31
  21370432.178    -5621738.354 9  -4361136.39347  21370432.108    21370438.8894
  24304962.667    -2885307.707 7  -2226130.58445  24304962.166    24304974.3014
  21323776.586     3394506.418 9   2649592.49547  21323776.267    21323783.1584
  20906192.675    -7588996.297 9  -5898099.72147  20906192.404    20906199.2564
  21855532.949     6514070.204 8   5094603.66946  21855532.520    21855540.6694
  21461974.074   -14757728.736 8 -11152094.50347  21461974.155    21461981.0074
  23701965.577    -5716441.385 7  -4218425.47645  23701965.321    23701975.7124
  22923207.941   -14068953.121 8 -10615893.49846  22923207.653    22923214.6744
 99  9 17 16 55  0.0000000  0  8 03 08 23 21 17 29 09 31
  21372427.685    -5611252.042 9  -4352965.26247  21372427.606    21372434.3924
  24288618.024    -2971198.467 7  -2293058.26645  24288617.501    24288629.8124
  21332164.380     3438584.322 9   2683938.87647  21332164.060    21332170.9524
  20901131.022    -7615595.757 9  -5918826.57747  20901130.728    20901137.5684
  21869183.322     6585803.024 8   5150499.32146  21869182.900    21869191.0204
  21447373.960   -14834452.456 8 -11211879.16947  21447374.052    21447380.8914
  23696181.674    -5746835.560 7  -4242109.13745  23696181.496    23696191.6324
  22912058.228   -14127545.450 8 -10661549.87646  22912057.892    22912064.9434
 99  9 17 16 55 30.0000000  0  8 03 08 23 21 17 29 09 31
  21374539.963    -5600152.176 9  -4344316.03847  21374539.864    21374546.6564
  24272297.632    -3056962.493 7  -2359887.22545  24272297.267    24272309.4204
  21340589.107     3482856.373 9   2718436.53347  21340588.778    21340595.6864
  20896118.859    -7641934.885 9  -5939350.57947  20896118.548    20896125.4144
  21882897.020     6657868.606 8   5206654.26546  21882896.596    21882904.7374
  21432841.042   -14910823.203 8 -11271388.78747  21432841.133    21432847.9564
  23690492.002    -5776733.999 7  -4265406.45745  23690491.883    23690502.1254
  22901004.231   -14185634.818 8 -10706814.32346  22901003.875    22901010.9374
 99  9 17 16 56  0.0000000  0  8 03 08 23 21 17 29 09 31
  21376769.998    -5588433.469 9  -4335184.59647  21376769.890    21376776.6594
  24255999.598    -3142609.431 7  -2426624.95645  24255999.271    24256011.0704
  21349053.476     3527336.717 9   2753096.50347  21349053.138    21349060.0274
  20891155.823    -7668015.948 9  -5959673.49047  20891155.524    20891162.3574
  21896674.317     6730268.460 8   5263069.68346  21896673.888    21896682.0784
  21418376.707   -14986833.634 8 -11330617.63947  21418376.806    21418383.6114
  23684898.794    -5806126.072 7  -4288309.20445  23684898.577    23684909.0274
  22890048.972   -14243205.386 8 -10751674.52346  22890048.579    22890055.6594
 99  9 17 16 56 30.0000000  0  8 03 08 23 21 17 29 09 31
  21379117.976    -5576094.795 9  -4325570.07147  21379117.864    21379124.6134
  24239725.349    -3228130.999 7  -2493264.94645  24239725.078    24239736.8584
  21357559.806     3572037.485 9   2787928.23047  21357559.459    21357566.3654
  20886245.498    -7693820.026 9  -5979780.56447  20886245.183    20886252.0274
  21910512.252     6802987.115 8   5319733.51446  21910511.838    21910520.0224
  21403986.668   -15062453.602 8 -11389542.23347  21403986.748    21403993.5354
  23679406.173    -5834989.908 7  -4310800.37945  23679405.979    23679416.2904
  22879191.859   -14300260.087 8 -10796132.74146  22879191.475    22879198.5454
 99  9 17 16 57  0.0000000  0  8 03 08 23 21 17 29 09 31
  21381584.424    -5563133.787 9  -4315470.60147  21381584.307    21381591.0344
  24223479.969    -3313500.086 7  -2559786.12645  24223479.574    24223491.5004
  21366110.976     3616973.902 9   2822943.57847  21366110.609    21366117.5214
  20881388.355    -7719344.723 9  -5999669.94147  20881388.036    20881394.8554
  21924411.348     6876026.932 8   5376647.59946  21924410.926    21924419.1274
  21389677.037   -15137650.973 8 -11448137.52847  21389677.125    21389683.9164
  23674015.924    -5863314.672 7  -4332871.49145  23674015.761    23674026.1204
  22868433.552   -14356795.570 8 -10840186.38446  22868433.143    22868440.2374
 99  9 17 16 57 30.0000000  0  8 03 08 23 21 17 29 09 31
  21384166.552    -5549564.844 9  -4304897.42547  21384166.420    21384173.1714
  24207266.198    -3398703.945 7  -2626178.58345  24207265.779    24207277.6354
  21374706.016     3662141.081 9   2858138.74347  21374705.669    21374712.6074
  20876583.106    -7744596.448 9  -6019346.61247  20876582.783    20876589.5954
  21938370.284     6949381.318 8   5433806.80546  21938369.882    21938378.0484
  21375452.362   -15212401.905 8 -11506384.95147  21375452.432    21375459.2514
  23668732.246    -5891080.177 7  -4354506.79445  23668732.098    23668742.4834
  22857776.753   -14412797.646 8 -10883824.37746  22857776.321    22857783.4604
 99  9 17 16 58  0.0000000  0  8 03 08 23 21 17 29 09 31
  21386861.188    -5535404.607 9  -4293863.49547  21386861.034    21386867.7814
  24191089.931    -3483709.260 7  -2692416.29845  24191089.547    24191101.6254
  21383342.792     3707527.481 9   2893504.73247  21383342.440    21383349.3854
  20871829.486    -7769576.786 9  -6038811.80747  20871829.163    20871835.9874
  21952391.074     7023060.879 8   5491219.38546  21952390.616    21952398.8264
  21361313.775   -15286700.531 8 -11564279.93447  21361313.850    21361320.6304
  23663555.578    -5918284.052 8  -4375704.47345  23663555.451    23663565.6424
  22847216.289   -14468293.234 8 -10927067.70346  22847215.882    22847223.0274
 99  9 17 16 58 30.0000000  0  8 03 08 23 21 17 29 09 31
  21389666.288    -5520663.711 9  -4282377.10447  21389666.152    21389672.9054
  24174955.743    -3568494.552 7  -2758482.54945  24174955.307    24174967.3824
  21392019.347     3753122.874 9   2929033.57247  21392018.993    21392025.9414
  20867125.963    -7794293.907 9  -6058071.90147  20867125.640    20867132.4374
  21966478.303     7097089.447 8   5548903.92346  21966477.844    21966486.0884
  21347260.794   -15360549.228 8 -11621824.31847  21347260.869    21347267.6674
  23658484.278    -5944933.951 8  -4396470.53545  23658484.143    23658494.1614
  22836753.672   -14523274.629 8 -10969910.36246  22836753.285    22836760.4144
 99  9 17 16 59  0.0000000  0  8 03 08 23 21 17 29 09 31
  21392580.660    -5505348.866 9  -4270443.47847  21392580.515    21392587.2794
  24158860.697    -3653074.396 7  -2824388.74145  24158860.210    24158872.0854
  21400733.478     3798915.846 9   2964716.37647  21400733.101    21400740.0274
  20862467.769    -7818773.083 9  -6077146.57947  20862467.434    20862474.2384
  21980634.812     7171482.164 8   5606872.21846  21980634.383    21980642.5954
  21333287.927   -15433977.033 8 -11679040.73547  21333288.022    21333294.7534
  23653515.188    -5971046.292 7  -4416817.70645  23653514.993    23653524.8664
  22826390.354   -14577734.512 8 -11012346.65146  22826389.909    22826397.1384
 99  9 17 16 59 30.0000000  0  8 03 08 23 21 17 29 09 31
  21395603.980    -5489461.272 9  -4258063.54847  21395603.812    21395610.5834
  24142800.310    -3737471.754 7  -2890152.73945  24142799.887    24142811.6254
  21409479.598     3844876.650 9   3000529.95947  21409479.226    21409486.1464
  20857853.746    -7843020.071 9  -6096040.33647  20857853.399    20857860.1764
  21994860.394     7246237.856 8   5665123.34446  21994859.975    21994868.1584
  21319390.680   -15507007.656 8 -11735947.65647  21319390.773    21319397.4514
  23648645.386    -5996635.965 7  -4436757.55845  23648645.214    23648655.2274
  22816126.226   -14631672.874 8 -11054376.56246  22816125.805    22816132.9714
 99  9 17 17  0  0.0000000  0  8 03 08 23 21 17 29 09 31
  21398738.373    -5472990.225 9  -4245228.98347  21398738.202    21398744.9784
  24126773.258    -3821694.268 8  -2955780.47845  24126772.753    24126784.5244
  21418253.833     3890985.269 9   3036458.71747  21418253.461    21418260.3594
  20853283.084    -7867039.065 9  -6114756.43047  20853282.753    20853289.5134
  22009152.429     7321342.552 8   5723646.41746  22009151.961    22009160.1934
  21305565.633   -15579658.577 8 -11792558.69847  21305565.704    21305572.3554
  23643870.093    -6021730.111 8  -4456311.33645  23643869.960    23643879.8434
  22805960.085   -14685096.292 8 -11096005.21346  22805959.653    22805966.7934
 99  9 17 17  0 30.0000000  0  8 03 08 23 21 17 29 09 31
  21401983.677    -5455935.998 9  -4231939.98547  21401983.515    21401990.3114
  24110775.870    -3905761.010 7  -3021286.82845  24110775.398    24110787.0904
  21427054.488     3937232.436 9   3072495.43647  21427054.099    21427060.9804
  20848754.420    -7890837.520 9  -6133300.67247  20848754.058    20848760.8204
  22023504.470     7396762.537 8   5782415.17846  22023503.985    22023512.1724
  21291810.893   -15651940.210 8 -11848881.99647  21291810.946    21291817.5944
  23639187.153    -6046338.623 7  -4475486.69945  23639186.962    23639196.7704
  22795894.326   -14737992.006 8 -11137222.66146  22795893.951    22795901.0584
 99  9 17 17  1  0.0000000  0  8 03 08 23 21 17 29 09 31
  21405340.730    -5438294.747 8  -4218193.57147  21405340.561    21405347.3664
  24094807.484    -3989675.162 8  -3086674.31245  24094806.952    24094818.3394
  21435880.080     3983611.123 9   3108634.63547  21435879.669    21435886.5734
  20844271.473    -7914395.717 9  -6151657.70647  20844271.111    20844277.8354
  22037911.348     7472470.293 8   5841408.16846  22037910.822    22037918.9544
  21278127.821   -15723845.134 8 -11904911.75547  21278127.879    21278134.4784
  23634597.068    -6070458.997 7  -4494281.68045  23634596.939    23634606.8314
  22785925.984   -14790376.230 8 -11178041.54546  22785925.582    22785932.6644
 99  9 17 17  1 30.0000000  0  8 03 08 23 21 17 29 09 31
  21408810.565    -5420060.674 9  -4203985.21547  21408810.379    21408817.2034
  24078872.088    -4073415.531 8  -3151926.37145  24078871.634    24078882.7524
  21444732.202     4030129.260 9   3144882.50247  21444731.791    21444738.6874
  20839839.000    -7937688.610 9  -6169808.00947  20839838.630    20839845.3224
  22052374.175     7548472.505 8   5900630.59346  22052373.629    22052381.7464
  21264518.253   -15795363.865 8 -11960640.58247  21264518.290    21264524.8874
  23630101.524    -6094083.202 7  -4512690.07545  23630101.412    23630111.1904
  22776054.443   -14842251.584 8 -11218463.90446  22776054.016    22776061.0914
 99  9 17 17  2  0.0000000  0  8 03 08 23 21 17 29 09 31
  21412392.081    -5401239.965 8  -4189319.73947  21412391.870    21412398.6524
  24062976.400    -4156947.064 8  -3217015.70645  24062975.969    24062987.0144
  21453619.341     4076831.172 9   3181273.57247  21453618.919    21453625.8044
  20835458.537    -7960708.157 9  -6187745.32247  20835458.152    20835464.8194
  22066893.521     7624771.957 8   5960084.63946  22066892.967    22066901.1194
  21250985.176   -15866480.404 8 -12016056.00747  21250985.209    21250991.7914
  23625703.462    -6117194.464 7  -4530698.79745  23625703.296    23625713.1404
  22766282.877   -14893601.522 8 -11258476.84246  22766282.430    22766289.5024
 99  9 17 17  2 30.0000000  0  8 03 08 23 21 17 29 09 31
  21416082.784    -5381845.194 9  -4174206.94247  21416082.604    21416089.3634
  24047122.869    -4240257.087 8  -3281932.41645  24047122.444    24047133.5134
  21462547.053     4123746.407 9   3217830.86847  21462546.608    21462553.4924
  20831131.085    -7983449.224 9  -6205465.63447  20831130.688    20831137.3684
  22081472.592     7701384.908 8   6019782.96846  22081472.005    22081480.1824
  21237531.339   -15937180.769 9 -12071147.13847  21237531.353    21237537.8884
  23621406.990    -6139772.285 7  -4548291.81945  23621406.771    23621416.6504
  22756614.068   -14944411.464 8 -11298069.01046  22756613.644    22756620.6604
 99  9 17 17  3  0.0000000  0  8 03 08 23 21 17 29 09 31
  21419884.461    -5361867.508 9  -4158639.93047  21419884.253    21419890.9704
  24031313.292    -4323336.213 8  -3346669.20045  24031312.889    24031324.0134
  21471516.773     4170882.263 9   3254560.07547  21471516.328    21471523.2154
  20826857.112    -8005909.259 9  -6222966.96447  20826856.717    20826863.3514
  22096116.247     7778337.191 8   6079745.71746  22096115.648    22096123.8554
  21224159.369   -16007450.652 9 -12125902.83047  21224159.390    21224165.9144
  23617215.222    -6161800.236 8  -4565456.36645  23617215.092    23617224.8904
  22747049.022   -14994676.614 8 -11337236.66246  22747048.576    22747055.5594
 99  9 17 17  3 30.0000000  0  8 03 08 23 21 17 29 09 31
  21423797.218    -5341306.079 9  -4142618.05447  21423797.014    21423803.7054
  24015546.075    -4406192.360 8  -3411232.30145  24015545.714    24015556.7624
  21480528.588     4218239.395 9   3291461.70647  21480528.130    21480535.0094
  20822634.031    -8028101.635 9  -6240259.73047  20822633.651    20822640.2854
  22110825.016     7855631.962 8   6139975.34546  22110824.425    22110832.6534
  21210869.327   -16077290.140 8 -12180323.15447  21210869.341    21210875.8494
  23613128.958    -6183274.003 7  -4582189.12645  23613128.811    23613138.5704
  22737590.762   -15044380.399 8 -11375966.88546  22737590.274    22737597.2614
 99  9 17 17  4  0.0000000  0  8 03 08 23 21 17 29 09 31
  21427820.787    -5320162.289 9  -4126142.38847  21427820.578    21427827.2854
  23999819.142    -4488836.969 8  -3475630.55245  23999818.642    23999829.7054
  21489579.265     4265800.626 9   3328522.36847  21489578.774    21489585.6534
  20818457.566    -8050049.327 9  -6257361.82747  20818457.162    20818463.7854
  22125594.873     7933248.198 8   6200455.46346  22125594.390    22125602.5634
  21197662.895   -16146690.227 8 -12234401.08847  21197662.913    21197669.4214
  23609148.439    -6204191.075 7  -4598488.09545  23609148.277    23609157.7804
  22728238.975   -15093524.457 8 -11414260.95646  22728238.538    22728245.4834
 99  9 17 17  4 30.0000000  0  8 03 08 23 21 17 29 09 31
  21431955.433    -5298434.730 9  -4109211.83847  21431955.186    21431961.9184
  23984127.298    -4571297.373 8  -3539885.25745  23984126.785    23984137.9344
  21498661.490     4313527.979 9   3365712.48147  21498661.017    21498667.8914
  20814326.073    -8071760.332 9  -6274279.49247  20814325.672    20814332.3164
  22140425.287     8011182.010 8   6261183.04146  22140424.733    22140432.9004
  21184539.045   -16215656.481 9 -12288140.98247  21184539.059    21184545.5574
  23605274.065    -6224550.624 8  -4614352.62145  23605273.869    23605283.3324
  22718990.734   -15142124.503 8 -11452131.11746  22718990.300    22718997.2204
 99  9 17 17  5  0.0000000  0  8 03 08 23 21 17 29 09 31
  21436202.672    -5276115.307 9  -4091820.09747  21436202.436    21436209.1864
  23968469.930    -4653576.966 8  -3603999.07245  23968469.404    23968480.4654
  21507769.814     4361392.539 9   3403009.50747  21507769.351    21507776.2244
  20810238.296    -8093241.922 9  -6291018.39147  20810237.892    20810244.5484
  22155315.395     8089429.885 8   6322155.34446  22155314.854    22155323.0494
  21171495.798   -16284199.012 9 -12341550.69347  21171495.809    21171502.2654
  23601504.440    -6244360.324 8  -4629788.72845  23601504.189    23601513.6964
  22709842.307   -15190199.642 8 -11489592.25646  22709841.893    22709848.8074
 99  9 17 17  5 30.0000000  0  8 03 08 23 21 17 29 09 31
  21440561.300    -5253210.553 8  -4073972.25947  21440561.068    21440567.8204
  23952847.763    -4735671.800 7  -3667968.90945  23952847.169    23952858.2294
  21516904.106     4409393.156 9   3440412.55547  21516903.628    21516910.4914
  20806193.000    -8114500.207 9  -6307583.28847  20806192.603    20806199.2434
  22170264.163     8167985.907 8   6383367.75846  22170263.616    22170271.8394
  21158531.276   -16352327.830 9 -12394638.03147  21158531.274    21158537.6944
  23597837.140    -6263632.510 8  -4644805.98245  23597836.887    23597846.3114
  22700792.696   -15237756.032 8 -11526649.18446  22700792.268    22700799.1184
 99  9 17 17  6  0.0000000  0  8 03 08 23 21 17 29 09 31
  21445030.001    -5229727.428 8  -4055673.73747  21445029.765    21445036.5114
  23937264.042    -4817564.357 8  -3731781.14445  23937263.448    23937274.4974
  21526064.421     4457530.944 9   3477922.48547  21526063.936    21526070.8084
  20802189.259    -8135540.253 9  -6323978.12447  20802188.844    20802195.4764
  22185271.653     8246850.342 8   6444820.51446  22185271.057    22185279.2914
  21145644.730   -16420047.188 9 -12447406.31447  21145644.715    21145651.0974
  23594272.385    -6282365.322 8  -4659402.93745  23594272.185    23594281.4724
  22691839.813   -15284804.024 8 -11563309.95946  22691839.376    22691846.2034
 99  9 17 17  6 30.0000000  0  8 03 08 23 21 17 29 09 31
  21449607.883    -5205670.594 8  -4036928.17047  21449607.656    21449614.4254
  23921720.930    -4899243.757 7  -3795427.29145  23921720.268    23921731.2134
  21535252.162     4505812.533 9   3515544.47447  21535251.685    21535258.5354
  20798230.913    -8156341.543 9  -6340186.91847  20798230.495    20798237.1174
  22200340.879     8326039.259 8   6506526.10646  22200340.274    22200348.5154
  21132834.495   -16487365.293 9 -12499861.93547  21132834.483    21132840.8274
  23590807.916    -6300571.042 8  -4673589.18545  23590807.743    23590816.8824
  22682983.140   -15331346.397 8 -11599576.74046  22682982.717    22682989.4864
 99  9 17 17  7  0.0000000  0  8 03 08 23 21 17 29 09 31
  21454296.449    -5181032.112 8  -4017729.37147  21454296.220    21454302.9764
  23906224.154    -4980679.135 8  -3858883.26245  23906223.606    23906234.3764
  21544472.544     4554265.808 9   3553300.24047  21544472.062    21544478.9174
  20794318.620    -8176900.804 9  -6356207.11647  20794318.183    20794324.8044
  22215471.836     8405552.626 8   6568484.51346  22215471.219    22215479.5174
  21120103.255   -16554268.444 9 -12551994.21947  21120103.217    21120109.5194
  23587442.728    -6318255.521 8  -4687369.26345  23587442.513    23587451.7044
  22674224.081   -15377375.820 8 -11635443.81946  22674223.621    22674230.3604
 99  9 17 17  7 30.0000000  0  8 03 08 23 21 17 29 09 31
  21459094.032    -5155820.642 8  -3998084.09247  21459093.798    21459100.5764
  23890774.599    -5061866.343 8  -3922145.86745  23890774.052    23890784.8494
  21553730.628     4602917.135 9   3591210.33647  21553730.143    21553737.0024
  20790453.330    -8197212.962 9  -6372034.76947  20790452.919    20790459.5334
  22230661.043     8485372.412 8   6630681.69046  22230660.444    22230668.7214
  21107455.245   -16620733.935 9 -12603785.47447  21107455.213    21107461.5144
  23584180.113    -6335401.709 8  -4700729.90546  23584179.822    23584189.0134
  22665567.815   -15422864.735 8 -11670889.71946  22665567.373    22665574.0854
 99  9 17 17  8  0.0000000  0  8 03 08 23 21 17 29 09 31
  21464000.379    -5130037.861 8  -3977993.63347  21464000.142    21464006.9034
  23875373.060    -5142801.873 7  -3985212.38145  23875372.434    23875383.1794
  21563025.332     4651761.147 9   3629270.57347  21563024.839    21563031.7404
  20786636.891    -8217268.638 9  -6387662.56847  20786636.451    20786643.0754
  22245907.457     8565492.660 8   6693112.99646  22245906.849    22245915.1334
  21094893.697   -16686745.121 9 -12655222.72747  21094893.669    21094899.9404
  23581021.458    -6352000.533 8  -4713664.01545  23581021.199    23581030.3874
  22657016.452   -15467802.732 8 -11705906.34146  22657015.994    22657022.7164
 99  9 17 17  8 30.0000000  0  8 03 08 23 21 17 29 09 31
  21469016.704    -5103676.923 8  -3957452.66447  21469016.469    21469023.2314
  23860019.065    -5223486.323 8  -4048083.19545  23860018.434    23860029.3754
  21572358.906     4700809.197 9   3667489.80147  21572358.427    21572365.3194
  20782871.334    -8237056.651 9  -6403081.79847  20782870.898    20782877.5364
  22261211.577     8645916.211 8   6755780.62646  22261211.014    22261219.2724
  21082422.558   -16752281.209 9 -12706289.76847  21082422.523    21082428.8034
  23577967.196    -6368050.046 8  -4726170.10145  23577966.943    23577976.2864
  22648571.548   -15512180.781 8 -11740486.64346  22648571.091    22648577.8554
 99  9 17 17  9  0.0000000  0  8 03 08 23 21 17 29 09 31
  21474144.164    -5076732.395 9  -3936456.94447  21474143.919    21474150.6484
  23844713.124    -5303919.376 8  -4110758.11245  23844712.509    23844723.2974
  21581732.107     4750065.553 9   3705871.34547  21581731.628    21581738.5414
  20779154.029    -8256591.203 9  -6418303.52847  20779153.601    20779160.2584
  22276570.065     8726625.169 8   6818670.66346  22276569.492    22276577.7124
  21070044.709   -16817327.244 9 -12756974.94847  21070044.662    21070050.9164
  23575020.981    -6383532.205 8  -4738234.10345  23575020.703    23575030.1354
  22640237.029   -15555978.862 8 -11774615.02046  22640236.581    22640243.3594
 99  9 17 17  9 30.0000000  0  8 03 08 23 21 17 29 09 31
  21479380.409    -5049215.773 8  -3915015.44747  21479380.164    21479386.9004
  23829451.951    -5384117.020 8  -4173249.61245  23829451.304    23829461.8614
  21591140.127     4799504.766 9   3744395.37447  21591139.635    21591146.5554
  20775486.346    -8275864.988 9  -6433322.06347  20775485.900    20775492.5634
  22291983.419     8807622.561 8   6881785.45746  22291982.842    22291991.0644
  21057759.498   -16881886.242 9 -12807280.62247  21057759.447    21057765.7134
  23572183.463    -6398442.980 8  -4749852.85645  23572183.177    23572192.6614
  22632014.343   -15599189.253 8 -11808285.43946  22632013.883    22632020.7274
 99  9 17 17 10  0.0000000  0  8 03 08 23 21 17 29 09 31
  21484728.049    -5021113.917 8  -3893117.91747  21484727.812    21484734.5604
  23814236.533    -5464073.588 8  -4235553.22445  23814235.898    23814246.6284
  21600579.589     4849109.544 9   3783048.40847  21600579.110    21600586.0464
  20771868.461    -8294877.018 9  -6448136.63347  20771868.025    20771874.7074
  22307454.592     8888923.854 8   6945137.04746  22307454.011    22307462.3094
  21045562.417   -16945982.225 9 -12857225.50447  21045562.380    21045568.6434
  23569452.422    -6412795.064 8  -4761036.28745  23569452.217    23569461.3704
  22623899.813   -15641831.488 8 -11841513.16246  22623899.351    22623906.2234
 99  9 17 17 10 30.0000000  0  8 03 08 23 21 17 29 09 31
  21490188.535    -4992418.849 8  -3870758.15047  21490188.292    21490195.0484
  23799068.137    -5543782.996 8  -4297664.27245  23799067.538    23799078.2464
  21610051.756     4898885.854 9   3821835.10747  21610051.283    21610058.2114
  20768301.187    -8313623.173 9  -6462744.02447  20768300.745    20768307.4204
  22322984.670     8970534.233 8   7008729.48846  22322984.050    22322992.2934
  21033451.075   -17009627.563 9 -12906819.23847  21033451.025    21033457.2834
  23566827.800    -6426588.306 8  -4771784.26945  23566827.485    23566836.4064
  22615892.674   -15683909.036 8 -11874300.85746  22615892.234    22615899.1304
 99  9 17 17 11  0.0000000  0  8 03 08 23 21 17 29 09 31
  21495760.223    -4963139.586 8  -3847943.16447  21495759.995    21495766.7394
  23783947.030    -5623243.769 8  -4359581.56645  23783946.347    23783957.1444
  21619553.246     4948816.441 9   3860742.02147  21619552.755    21619559.7314
  20764784.158    -8332105.089 9  -6477145.51447  20764783.729    20764790.4234
  22338573.501     9052454.071 8   7072563.06246  22338572.868    22338581.2104
  21021420.827   -17072846.910 9 -12956081.03647  21021420.783    21021427.0354
  23564311.333    -6439812.032 8  -4782088.45845  23564310.987    23564319.8064
  22607993.529   -15725418.999 8 -11906646.27546  22607993.042    22607999.9984
 99  9 17 17 11 30.0000000  0  8 03 08 23 21 17 29 09 31
  21501441.184    -4933285.967 8  -3824680.62947  21501440.962    21501447.7004
  23768873.968    -5702452.270 8  -4421302.27545  23768873.381    23768884.1774
  21629082.781     4998894.393 9   3899763.76347  21629082.318    21629089.2974
  20761318.905    -8350315.108 9  -6491335.13847  20761318.508    20761325.2054
  22354224.539     9134700.818 8   7136651.36646  22354223.903    22354232.2864
  21009468.892   -17135654.594 9 -13005022.05447  21009468.857    21009475.1074
  23561902.444    -6452470.259 8  -4791951.99145  23561902.085    23561911.1094
  22600199.520   -15766376.519 8 -11938561.22946  22600199.068    22600206.0854
 99  9 17 17 12  0.0000000  0  8 03 08 23 21 17 29 09 31
  21507231.208    -4902859.135 8  -3800971.43847  21507230.994    21507237.7894
  23753851.957    -5781392.371 8  -4482813.84945  23753851.420    23753862.0464
  21638641.380     5049125.046 9   3938904.48947  21638640.911    21638647.9284
  20757905.166    -8368254.406 9  -6505313.80847  20757904.771    20757911.4694
  22369937.252     9217271.418 8   7200992.03246  22369936.635    22369944.9744
  20997593.267   -17198061.203 9 -13053650.55247  20997593.249    20997599.4934
  23559601.585    -6464560.480 8  -4801372.90445  23559601.298    23559610.6224
  22592509.298   -15806788.772 8 -11970051.29246  22592508.852    22592515.8344
 99  9 17 17 12 30.0000000  0  8 03 08 23 21 17 29 09 31
  21513126.753    -4871877.803 9  -3776830.16647  21513126.562    21513133.3394
  23738880.377    -5860067.998 8  -4544119.34745  23738879.825    23738890.5044
  21648228.364     5099504.764 8   3978161.37547  21648227.874    21648234.8754
  20754542.569    -8385924.887 9  -6519083.00947  20754542.189    20754548.8834
  22385712.559     9300171.299 8   7265589.26846  22385711.974    22385720.3644
  20985796.214   -17260054.673 9 -13101957.11847  20985796.216    20985802.4844
  23557409.625    -6476079.268 8  -4810348.57645  23557409.395    23557418.8404
  22584926.211   -15846638.279 8 -12001102.85346  22584925.741    22584932.7704
 99  9 17 17 13  0.0000000  0  8 03 08 23 21 17 29 09 31
  21519123.430    -4840365.229 9  -3752274.93947  21519123.231    21519130.0044
  23723958.155    -5938484.537 8  -4605222.99545  23723957.585    23723968.0724
  21657842.474     5150027.053 9   4017529.35747  21657842.008    21657849.0054
  20751229.019    -8403337.815 9  -6532651.52247  20751228.643    20751235.3384
  22401549.701     9383396.077 8   7330439.69646  22401549.150    22401557.5394
  20974078.881   -17321629.512 9 -13149937.48247  20974078.897    20974085.1664
  23555326.793    -6487024.941 8  -4818877.63946  23555326.597    23555336.0654
  22577451.145   -15885919.633 8 -12031711.71346  22577450.706    22577457.7164
 99  9 17 17 13 30.0000000  0  8 03 08 23 21 17 29 09 31
  21525222.163    -4808316.153 9  -3727301.66047  21525221.989    21525228.7894
  23709085.514    -6016640.507 8  -4666123.57145  23709085.002    23709095.4894
  21667485.154     5200699.793 9   4057014.57847  21667484.702    21667491.7424
  20747963.399    -8420498.800 9  -6546023.71447  20747963.004    20747969.6964
  22417448.228     9466942.746 8   7395540.92646  22417447.684    22417456.0224
  20962443.340   -17382774.511 9 -13197582.90747  20962443.363    20962449.6284
  23553350.873    -6497408.666 8  -4826968.82645  23553350.605    23553360.0124
  22570083.810   -15924635.412 8 -12061879.84346  22570083.376    22570090.3614
 99  9 17 17 14  0.0000000  0  8 03 08 23 21 17 29 09 31
  21531424.208    -4775724.344 9  -3701905.47347  21531424.015    21531430.8534
  23694262.112    -6094537.043 8  -4726822.00345  23694261.604    23694272.0674
  21677157.175     5251526.578 9   4096619.83047  21677156.737    21677163.8114
  20744744.290    -8437415.353 9  -6559205.44447  20744743.903    20744750.6064
  22433402.542     9550783.173 8   7460871.05446  22433401.979    22433410.4024
  20950890.963   -17443482.434 9 -13244887.75047  20950890.970    20950897.2584
  23551481.933    -6507229.452 8  -4834621.35145  23551481.609    23551490.9984
  22562825.409   -15962778.776 8 -12091601.94046  22562824.971    22562831.9254
 99  9 17 17 14 30.0000000  0  8 03 08 23 21 17 29 09 31
  21537730.133    -4742586.725 8  -3676083.97847  21537729.930    21537736.7694
  23679487.614    -6172177.002 8  -4787320.52645  23679487.112    23679497.4134
  21686860.201     5302516.034 8   4136351.83247  21686859.720    21686866.8304
  20741569.435    -8454099.198 9  -6572205.84247  20741569.041    20741575.7624
  22449410.926     9634907.428 8   7526422.34646  22449410.367    22449418.7974
  20939425.642   -17503733.054 9 -13291836.26347  20939425.647    20939431.9484
  23549718.712    -6516494.321 8  -4841840.71745  23549718.500    23549727.6794
  22555676.889   -16000344.370 8 -12120873.83146  22555676.500    22555683.3694
 99  9 17 17 15  0.0000000  0  8 03 08 23 21 17 29 09 31
  21544143.794    -4708882.549 9  -3649821.01447  21544143.620    21544150.4884
  23664764.998    -6249544.374 8  -4847606.63445  23664764.445    23664774.6934
  21696595.410     5353674.892 8   4176215.84247  21696594.960    21696602.0834
  20738437.827    -8470555.757 9  -6585029.13547  20738437.439    20738444.1724
  22465468.371     9719289.855 8   7592174.81646  22465467.820    22465476.3414
  20928049.289   -17563515.775 9 -13338420.17247  20928049.323    20928055.6174
  23548061.648    -6525201.725 8  -4848625.69545  23548061.486    23548070.4634
  22548634.923   -16037350.136 8 -12149709.50046  22548634.505    22548641.4124
 99  9 17 17 15 30.0000000  0  8 03 08 23 21 17 29 09 31
  21550670.193    -4674586.291 8  -3623096.68847  21550670.032    21550676.8974
  23650095.820    -6326630.038 8  -4907673.24745  23650095.350    23650105.5364
  21706363.160     5405004.581 8   4216212.95647  21706362.728    21706369.8464
  20735350.381    -8486780.257 9  -6597671.60747  20735350.016    20735356.7384
  22481573.370     9803922.275 8   7658122.09646  22481572.861    22481581.4264
  20916764.307   -17622818.824 9 -13384630.31047  20916764.325    20916770.6064
  23546509.486    -6533358.236 8  -4854981.39345  23546509.291    23546518.3784
  22541698.879   -16073799.167 8 -12178111.33746  22541698.517    22541705.4464
 99  9 17 17 16  0.0000000  0  8 03 08 23 21 17 29 09 31
  21557309.909    -4639694.520 9  -3595908.32347  21557309.755    21557316.5944
  23635482.384    -6403424.349 8  -4967512.83345  23635481.857    23635492.0384
  21716162.827     5456502.223 8   4256340.95547  21716162.423    21716169.5674
  20732309.406    -8502760.718 9  -6610123.92247  20732309.051    20732315.7694
  22497727.048     9888810.152 8   7724268.40746  22497726.518    22497735.1434
  20905573.242   -17681628.100 9 -13430455.69247  20905573.263    20905579.5564
  23545062.217    -6540963.225 8  -4860907.32445  23545062.063    23545071.4024
  22534868.626   -16109692.289 8 -12206080.01146  22534868.285    22534875.2514
 99  9 17 17 16 30.0000000  0  8 03 08 23 21 17 29 09 31
  21564063.930    -4604202.094 9  -3568251.91647  21564063.759    21564070.5734
  23620925.753    -6479918.883 8  -5027118.83245  23620925.274    23620935.5264
  21725994.521     5508167.877 8   4296599.87047  21725994.117    21726001.2684
  20729316.288    -8518489.677 9  -6622380.25647  20729315.913    20729322.6214
  22513935.992     9973988.248 8   7790640.87646  22513935.437    22513944.0194
  20894477.138   -17739938.465 9 -13475892.31347  20894477.145    20894483.4094
  23543721.289    -6548009.364 8  -4866397.78445  23543721.092    23543730.7004
  22528142.956   -16145035.922 8 -12233620.49946  22528142.602    22528149.6194
 99  9 17 17 17  0.0000000  0  8 03 08 23 21 17 29 09 31
  21570931.992    -4568110.149 9  -3540128.35647  21570931.825    21570938.6824
  23606427.129    -6556109.265 8  -5086487.81245  23606426.592    23606436.9064
  21735857.241     5559996.437 8   4336985.72547  21735856.789    21735863.9434
  20726372.032    -8533962.092 9  -6634436.68847  20726371.642    20726378.3284
  22530203.130    10059472.269 8   7857251.72446  22530202.595    22530211.2094
  20883472.384   -17797768.897 9 -13520954.95947  20883472.393    20883478.6484
  23542488.878    -6554485.939 8  -4871444.42145  23542488.644    23542498.3534
  22521521.549   -16179831.424 8 -12260733.88346  22521521.156    22521528.2754
 99  9 17 17 17 30.0000000  0  8 03 08 23 21 17 29 09 31
  21577910.155    -4531439.923 9  -3511554.18347  21577909.984    21577916.8604
  23591987.525    -6631989.626 8  -5145615.22845  23591987.027    23591997.1824
  21745751.305     5611990.102 8   4377500.23647  21745750.860    21745758.0294
  20723478.961    -8549165.264 9  -6646283.31547  20723478.564    20723485.2614
  22546534.144    10145291.861 8   7924124.05646  22546533.589    22546542.2354
  20872557.543   -17855126.806 9 -13565649.40547  20872557.539    20872563.7664
  23541366.370    -6560385.345 8  -4876041.34745  23541366.131    23541375.7154
  22515009.430   -16214052.760 8 -12287399.86246  22515009.044    22515016.1934
 99  9 17 17 18  0.0000000  0  8 03 08 23 21 17 29 09 31
  21584994.227    -4494213.114 9  -3482546.30947  21584994.010    21585000.8994
  23577608.363    -6707552.538 8  -5204495.27145  23577607.812    23577617.9614
  21755676.701     5664148.118 8   4418142.81347  21755676.259    21755683.4304
  20720635.126    -8564109.889 9  -6657928.48147  20720634.733    20720641.4004
  22562930.500    10231455.114 8   7991264.16846  22562929.988    22562938.6454
  20861728.341   -17912034.602 9 -13609993.11347  20861728.336    20861734.5324
  23540356.143    -6565694.095 8  -4880177.99345  23540355.891    23540365.4544
  22508609.169   -16247686.556 8 -12313608.01946  22508608.785    22508615.8824
 99  9 17 17 18 30.0000000  0  8 03 08 23 21 17 29 09 31
  21592177.904    -4456462.826 9  -3453130.52947  21592177.676    21592184.5564
  23563286.584    -6782813.921 8  -5263140.35345  23563285.957    23563296.0404
  21765630.475     5716455.502 8   4458901.78047  21765630.028    21765637.2324
  20717832.528    -8578837.588 9  -6669404.61247  20717832.133    20717838.7984
  22579387.704    10317937.715 8   8058653.12646  22579387.175    22579395.8464
  20850977.756   -17968529.219 9 -13654014.86947  20850977.748    20850983.9374
  23539455.346    -6570428.164 8  -4883866.86245  23539455.084    23539464.3784
  22502319.557   -16280739.080 8 -12339363.23246  22502319.149    22502326.2154
 99  9 17 17 19  0.0000000  0  8 03 08 23 21 17 29 09 31
  21599453.058    -4418231.674 8  -3423340.05047  21599452.830    21599459.7394
  23549018.438    -6857793.384 8  -5321565.78145  23549017.805    23549027.7444
  21775607.473     5768884.986 8   4499755.88347  21775607.031    21775614.2454
  20715064.921    -8593381.602 9  -6680737.61447  20715064.529    20715071.1914
  22595896.916    10404693.984 8   8126255.32146  22595896.396    22595905.1074
  20840302.074   -18024630.238 9 -13697729.92147  20840302.069    20840308.2434
  23538660.347    -6574605.785 8  -4887122.14945  23538660.174    23538669.2704
  22496141.246   -16313206.539 8 -12364662.54946  22496140.826    22496147.8414
 99  9 17 17 19 30.0000000  0  8 03 08 23 21 17 29 09 31
  21606815.746    -4379540.491 8  -3393191.10447  21606815.543    21606822.4594
  23534799.326    -6932514.601 8  -5379789.93445  23534798.649    23534808.6874
  21785604.192     5821417.844 8   4540690.54647  21785603.730    21785610.9314
  20712330.061    -8607753.441 9  -6691936.45147  20712329.653    20712336.3214
  22612452.338    10491692.921 8   8194046.61146  22612451.785    22612460.5764
  20829701.850   -18080334.703 9 -13741135.97347  20829701.837    20829708.0164
  23537968.526    -6578242.110 8  -4889955.64945  23537968.393    23537977.2644
  22490072.570   -16345097.867 8 -12389512.92246  22490072.127    22490079.1164
 99  9 17 17 20  0.0000000  0  8 03 08 23 21 17 29 09 31
  21614268.132    -4340378.296 8  -3362675.13547  21614267.914    21614274.8464
  23520627.631    -7006986.221 8  -5437819.61545  23520626.990    23520636.9914
  21795620.699     5874054.769 8   4581706.29347  21795620.226    21795627.4664
  20709631.009    -8621937.248 9  -6702988.77247  20709630.611    20709637.2784
  22629052.175    10578925.090 8   8262019.63946  22629051.644    22629060.3774
  20819179.818   -18135628.266 9 -13784221.83947  20819179.802    20819185.9624
  23537380.028    -6581335.457 8  -4892366.05645  23537379.850    23537388.7034
  22484110.885   -16376426.821 8 -12413925.09546  22484110.424    22484117.3804
 99  9 17 17 20 30.0000000  0  8 03 08 23 21 17 29 09 31
  21621814.230    -4300723.399 8  -3331775.24247  21621813.999    21621820.9794
  23506506.394    -7081193.790 8  -5495643.56945  23506505.774    23506515.7094
  21805658.229     5926801.793 8   4622807.82947  21805657.737    21805664.9334
  20706976.031    -8635889.367 9  -6713860.55647  20706975.619    20706982.2664
  22645700.037    10666409.659 8   8330189.33746  22645699.478    22645708.1884
  20808743.311   -18190472.483 9 -13826957.56647  20808743.297    20808749.4044
  23536895.381    -6583882.855 8  -4894351.02045  23536895.206    23536903.8514
  22478256.075   -16407194.256 8 -12437899.71546  22478255.617    22478262.5044
 99  9 17 17 21  0.0000000  0  8 03 08 23 21 17 29 09 31
  21629459.483    -4260547.639 8  -3300469.47947  21629459.207    21629466.1804
  23492441.718    -7155103.738 8  -5553235.55845  23492441.072    23492450.9854
  21815719.879     5979675.636 8   4664008.18447  21815719.322    21815726.5384
  20704374.375    -8649561.357 9  -6724514.05547  20704373.970    20704380.5674
  22662400.919    10754172.879 8   8398576.17546  22662400.386    22662409.0864
  20798400.818   -18244822.707 9 -13869308.36247  20798400.797    20798406.9024
  23536518.740    -6585862.555 8  -4895893.64445  23536518.627    23536527.1544
  22472510.984   -16437385.223 8 -12461425.13846  22472510.505    22472517.3574
 99  9 17 17 21 30.0000000  0  8 03 08 23 21 17 29 09 31
  21637211.678    -4219809.809 8  -3268725.74447  21637211.430    21637218.3534
  23478440.798    -7228678.191 8  -5610566.16245  23478440.194    23478449.9874
  21825811.919     6032709.731 8   4705333.41047  21825811.405    21825818.6004
  20701833.083    -8662916.090 9  -6734920.34247  20701832.649    20701839.2464
  22679160.815    10842246.287 8   8467204.71446  22679160.215    22679168.9914
  20788155.966   -18298659.798 9 -13911259.31647  20788155.949    20788162.0054
  23536252.710    -6587260.424 8  -4896982.88045  23536252.511    23536261.1644
  22466876.908   -16466992.725 8 -12484495.91846  22466876.405    22466883.1804
 99  9 17 17 22  0.0000000  0  8 03 08 23 21 17 29 09 31
  21645075.040    -4178487.990 8  -3236526.95447  21645074.727    21645081.6724
  23464511.918    -7301874.322 8  -5667601.96245  23464511.327    23464521.0614
  21835939.181     6085928.442 8   4746802.48847  21835938.654    21835945.8104
  20699351.882    -8675955.005 9  -6745080.53547  20699351.467    20699358.0314
  22695985.744    10930661.645 8   8536099.71446  22695985.167    22695993.9554
  20778009.591   -18351979.310 9 -13952806.96147  20778009.563    20778015.6004
  23536099.324    -6588066.401 8  -4897610.90645  23536099.097    23536107.7964
  22461356.377   -16496003.010 8 -12507101.33646  22461355.917    22461362.6744
 99  9 17 17 22 30.0000000  0  8 03 08 23 21 17 29 09 31
  21653048.171    -4136588.843 8  -3203878.30047  21653047.887    21653054.8044
  23450655.962    -7374687.768 8  -5724339.60245  23450655.320    23450664.9244
  21846101.280     6139330.332 8   4788414.30247  21846100.759    21846107.8974
  20696922.063    -8688724.056 9  -6755030.44647  20696921.629    20696928.1594
  22712872.823    11019403.625 8   8605249.18846  22712872.266    22712881.0864
  20767959.271   -18404794.223 9 -13993961.41047  20767959.221    20767965.2374
  23536057.482    -6588286.572 8  -4897782.45445  23536057.247    23536065.9144
  22455951.487   -16524406.070 8 -12529233.58146  22455950.999    22455957.7804
 99  9 17 17 23  0.0000000  0  8 03 08 23 21 17 29 09 31
  21661127.100    -4094134.063 8  -3170796.67847  21661126.824    21661133.7264
  23436866.565    -7447151.034 8  -5780804.35545  23436865.926    23436875.4154
  21856297.138     6192909.560 8   4830164.30247  21856296.621    21856303.7044
  20694533.230    -8701277.588 9  -6764812.41847  20694532.793    20694539.3034
  22729814.003    11108429.295 8   8674619.74146  22729813.408    22729822.2154
  20758000.693   -18457126.754 9 -14034739.97747  20758000.655    20758006.6434
  23536125.716    -6587927.767 8  -4897502.83845  23536125.469    23536134.1854
  22450660.850   -16552208.638 8 -12550897.92946  22450660.371    22450667.1314
 99  9 17 17 23 30.0000000  0  8 03 08 23 21 17 29 09 31
  21669307.938    -4051143.425 8  -3137297.50747  21669307.670    21669314.5864
  23423136.873    -7519300.452 8  -5837024.53945  23423136.230    23423145.6524
  21866522.559     6246644.230 8   4872035.43047  21866522.012    21866529.1174
  20692180.234    -8713642.549 9  -6774447.45147  20692179.802    20692186.2984
  22746803.834    11197711.094 8   8744189.87046  22746803.256    22746812.0444
  20748129.237   -18509001.601 9 -14075161.90947  20748129.199    20748135.1884
  23536300.834    -6587007.595 8  -4896785.81245  23536300.568    23536309.2244
  22445481.441   -16579426.557 8 -12572106.69646  22445480.947    22445487.7154
 99  9 17 17 24  0.0000000  0  8 03 08 23 21 17 29 09 31
  21677587.210    -4007635.732 8  -3103395.43747  21677586.919    21677593.8504
  23409463.293    -7591155.168 8  -5893015.10745  23409462.637    23409472.0264
  21876773.417     6300512.891 8   4914010.96847  21876772.925    21876780.0544
  20689860.995    -8725830.308 9  -6783944.40447  20689860.578    20689867.0634
  22763839.484    11287233.649 8   8813947.59946  22763838.892    22763847.6834
  20738344.226   -18560422.150 9 -14115229.84147  20738344.173    20738350.1674
  23536582.826    -6585525.573 8  -4895630.98545  23536582.503    23536591.2374
  22440410.804   -16606072.966 8 -12592870.13746  22440410.317    22440417.1044
 99  9 17 17 24 30.0000000  0  8 03 08 23 21 17 29 09 31
  21685962.327    -3963624.083 8  -3069100.67647  21685962.041    21685969.0224
  23395842.668    -7662731.105 8  -5948788.45345  23395842.026    23395851.3754
  21887047.779     6354504.814 8   4956082.55247  21887047.292    21887054.4464
  20687581.431    -8737809.512 9  -6793278.84947  20687580.986    20687587.4774
  22780918.366    11376983.315 8   8883882.29146  22780917.809    22780926.5584
  20728648.588   -18611372.986 9 -14154931.76447  20728648.535    20728654.5514
  23536974.862    -6583464.812 8  -4894025.17745  23536974.542    23536983.3984
  22435448.973   -16632147.371 8 -12613187.85646  22435448.512    22435455.3064
 99  9 17 17 25  0.0000000  0  8 03 08 23 21 17 29 09 31
  21694435.844    -3919095.508 8  -3034403.11647  21694435.575    21694442.5664
  23382280.353    -7734000.663 8  -6004323.06545  23382279.755    23382289.1074
  21897347.221     6408628.685 8   4998256.94447  21897346.722    21897353.9004
  20685350.176    -8749534.625 9  -6802415.30047  20685349.750    20685356.2654
  22798046.810    11466994.047 8   8954020.40446  22798046.311    22798055.1504
  20719044.472   -18661842.580 9 -14194258.69447  20719044.434    20719050.4504
  23537479.246    -6580813.945 8  -4891959.54545  23537478.923    23537487.9064
  22430596.204   -16657648.758 8 -12633059.07846  22430595.762    22430602.5904
 99  9 17 17 25 30.0000000  0  8 03 08 23 21 17 29 09 31
  21703009.331    -3874041.566 8  -2999296.17247  21703009.089    21703016.0794
  23368784.109    -7804923.456 8  -6059587.48045  23368783.528    23368792.8104
  21907674.921     6462901.048 8   5040547.04947  21907674.432    21907681.6414
  20683175.041    -8760964.825 9  -6811321.94147  20683174.616    20683181.1674
  22815233.234    11557309.202 8   9024395.75846  22815232.723    22815241.6674
  20709530.732   -18711837.349 9 -14233215.62747  20709530.710    20709536.7374
  23538099.180    -6577555.308 8  -4889420.35945  23538098.924    23538107.9824
  22425852.744   -16682575.632 8 -12652482.62046  22425852.316    22425859.1734
 99  9 17 17 26  0.0000000  0  8 03 08 23 21 17 29 09 31
  21711683.377    -3828459.405 8  -2963777.63547  21711683.135    21711690.1004
  23355357.953    -7875477.638 8  -6114564.64945  23355357.413    23355366.7404
  21918034.983     6517343.296 8   5082969.52947  21918034.470    21918041.6874
  20681056.574    -8772097.103 9  -6819996.44047  20681056.193    20681062.7854
  22832480.278    11647942.842 8   9095019.26246  22832479.763    22832488.7624
  20700106.790   -18761360.217 9 -14271804.84647  20700106.804    20700112.8294
  23538838.295    -6573670.808 8  -4886393.49345  23538838.061    23538847.1954
  22421220.434   -16706918.244 8 -12671450.90046  22421220.032    22421226.9534
 99  9 17 17 26 30.0000000  0  8 03 08 23 21 17 29 09 31
  21720456.837    -3782354.391 8  -2927851.67747  21720456.601    21720463.6054
  23342004.417    -7945650.390 8  -6169244.63645  23342003.827    23342013.1214
  21928426.828     6571952.878 8   5125522.41047  21928426.346    21928433.5994
  20678992.096    -8782945.918 9  -6828450.05947  20678991.722    20678998.3184
  22849788.939    11738900.481 8   9165895.25446  22849788.441    22849797.5014
  20690771.881   -18810415.245 9 -14310029.51147  20690771.907    20690777.9554
  23539692.814    -6569180.276 8  -4882894.37145  23539692.560    23539701.7324
  22416701.273   -16730666.477 8 -12689956.02146  22416700.861    22416707.8384
 99  9 17 17 27  0.0000000  0  8 03 08 23 21 17 29 09 31
  21729328.794    -3735731.811 8  -2891522.42547  21729328.609    21729335.6444
  23328725.303    -8015431.599 8  -6223619.51245  23328724.770    23328734.1164
  21938850.073     6626727.410 8   5168203.81947  21938849.610    21938856.9184
  20676975.367    -8793543.661 9  -6836708.04147  20676974.998    20676981.6324
  22867157.412    11830172.048 8   9237015.84946  22867156.906    22867165.9974
  20681524.063   -18859012.655 9 -14347897.59447  20681524.099    20681530.1554
  23540658.130    -6564107.865 8  -4878941.83845  23540657.902    23540667.1254
  22412292.186   -16753836.269 8 -12708010.41846  22412291.773    22412298.7494
 99  9 17 17 27 30.0000000  0  8 03 08 23 21 17 29 09 31
  21738298.160    -3688597.587 8  -2854794.48747  21738297.950    21738305.0464
  23315518.647    -8084831.857 8  -6277697.53645  23315518.173    23315527.6484
  21949301.805     6681651.945 8   5211002.12047  21949301.355    21949308.7254
  20675002.872    -8803909.064 9  -6844784.97547  20675002.534    20675009.1664
  22884579.434    11921725.186 8   9308355.83946  22884578.936    22884588.0984
  20672364.122   -18907148.001 9 -14385405.62747  20672364.180    20672370.2374
  23541732.953    -6558459.365 8  -4874540.41845  23541732.777    23541742.0014
  22407992.674   -16776430.157 8 -12725616.05246  22407992.300    22407999.2904
 99  9 17 17 28  0.0000000  0  8 03 08 23 21 17 29 09 31
  21747364.436    -3640953.922 8  -2817669.58447  21747364.253    21747371.3754
  23302384.057    -8153854.431 8  -6331481.27545  23302383.586    23302392.9374
  21959776.660     6736697.586 8   5253894.78647  21959776.243    21959783.6404
  20673070.835    -8814061.875 9  -6852696.25647  20673070.491    20673077.1564
  22902048.712    12013526.040 8   9379888.86246  22902048.232    22902057.3854
  20663295.908   -18954801.705 9 -14422538.35747  20663295.968    20663302.0224
  23542912.456    -6552261.037 8  -4869710.53545  23542912.251    23542921.5494
  22403804.937   -16798436.764 8 -12742764.05446  22403804.609    22403811.6414
 99  9 17 17 28 30.0000000  0  8 03 08 23 21 17 29 09 31
  21756527.320    -3592802.521 8  -2780149.04147  21756527.150    21756534.2814
  23289320.448    -8222504.121 8  -6384974.48145  23289319.989    23289329.2284
  21970273.731     6791860.009 8   5296878.44647  21970273.316    21970280.7254
  20671180.648    -8823994.808 9  -6860436.20247  20671180.330    20671186.9784
  22919564.439    12105571.662 8   9451612.60646  22919564.036    22919573.2304
  20654322.438   -19001957.297 9 -14459282.94847  20654322.520    20654328.5944
  23544195.172    -6545519.907 8  -4864457.73945  23544195.073    23544204.3344
  22399728.083   -16819861.005 8 -12759458.26646  22399727.721    22399734.7774
 99  9 17 17 29  0.0000000  0  8 03 08 23 21 17 29 09 31
  21765788.465    -3544134.870 8  -2742226.22547  21765788.298    21765795.4704
  23276326.312    -8290788.428 8  -6438182.95745  23276325.806    23276335.1174
  21980795.917     6847154.704 8   5339965.17547  21980795.522    21980802.9174
  20669338.399    -8833675.939 9  -6867979.94047  20669338.075    20669344.7304
  22937126.921    12197862.768 8   9523527.64846  22937126.518    22937135.7514
  20645444.532   -19048610.936 9 -14495636.40447  20645444.596    20645450.6714
  23545585.799    -6538212.323 8  -4858763.52345  23545585.610    23545594.9884
  22395763.455   -16840695.153 8 -12775692.67746  22395763.096    22395770.1544
 99  9 17 17 29 30.0000000  0  8 03 08 23 21 17 29 09 31
  21775149.371    -3494943.160 8  -2703895.05747  21775149.208    21775156.3524
  23263400.173    -8358715.569 8  -6491113.11645  23263399.694    23263408.9604
  21991344.368     6902586.736 8   5383158.92047  21991343.960    21991351.3514
  20667547.883    -8843085.269 9  -6875311.88847  20667547.554    20667554.2204
  22954738.930    12290413.792 8   9595645.20846  22954738.515    22954747.6914
  20636661.517   -19094766.076 9 -14531601.42047  20636661.586    20636667.6464
  23547087.738    -6530318.959 8  -4852612.85345  23547087.571    23547096.9324
  22391916.355   -16860911.610 8 -12791445.76046  22391915.999    22391923.0594
 99  9 17 17 30  0.0000000  0  8 03 08 23 21 17 29 09 31
  21784606.794    -3445244.538 8  -2665168.88547  21784606.600    21784613.7214
  23250540.684    -8426292.291 8  -6543770.23145  23250540.146    23250549.3494
  22001919.867     6958161.351 8   5426463.76647  22001919.488    22001926.8594
  20665810.270    -8852216.762 9  -6882427.33947  20665809.927    20665816.5414
  22972404.263    12383244.727 8   9667980.88546  22972403.756    22972412.9614
  20627972.816   -19140425.646 9 -14567180.28047  20627972.842    20627978.8664
  23548703.535    -6521828.043 8  -4845996.55945  23548703.332    23548712.6484
  22388187.113   -16880509.043 8 -12806716.49846  22388186.731    22388193.7994
 99  9 17 17 30 30.0000000  0  8 03 08 23 21 17 29 09 31
  21794162.051    -3395031.697 8  -2626042.03147  21794161.855    21794168.9084
  23237746.762    -8493524.457 8  -6596158.85545  23237746.223    23237755.5714
  22012524.601     7013889.243 8   5469888.04847  22012524.216    22012531.5634
  20664128.214    -8861056.251 9  -6889315.25647  20664127.862    20664134.4534
  22990125.188    12476368.633 8   9740544.85246  22990124.727    22990133.9454
  20619377.596   -19185593.923 9 -14602376.31547  20619377.632    20619383.6234
  23550437.495    -6512716.331 8  -4838896.52845  23550437.321    23550446.5714
  22384573.837   -16899497.205 8 -12821512.47746  22384573.452    22384580.4794
 99  9 17 17 31  0.0000000  0  8 03 08 23 21 17 29 09 31
  21803816.335    -3344298.428 8  -2586509.64147  21803816.112    21803823.1204
  23225022.937    -8560388.498 8  -6648260.66345  23225022.431    23225031.6154
  22023156.972     7069762.099 8   5513425.28547  22023156.526    22023163.8834
  20662499.977    -8869612.910 9  -6895982.78347  20662499.599    20662506.1684
  23007900.373    12569777.247 8   9813330.66346  23007899.922    23007909.0694
  20610874.886   -19230276.098 9 -14637193.56947  20610874.888    20610880.8544
  23552289.538    -6502983.399 7  -4831312.44045  23552289.359    23552298.5604
  22381076.842   -16917874.192 8 -12835832.21846  22381076.414    22381083.4334
 99  9 17 17 31 30.0000000  0  8 03 08 23 21 17 29 09 31
  21813566.586    -3293060.745 8  -2546584.20447  21813566.362    21813573.4094
  23212372.024    -8626869.546 8  -6700064.01845  23212371.509    23212380.6304
  22033815.100     7125770.532 8   5557068.16747  22033814.618    22033822.0024
  20660919.236    -8877919.770 9  -6902455.66047  20660918.853    20660925.4204
  23025727.644    12663459.748 8   9886329.90245  23025727.150    23025736.3834
  20602466.008   -19274465.123 9 -14671626.55247  20602466.030    20602471.9314
  23554258.486    -6492636.057 8  -4823249.56945  23554258.246    23554267.6644
  22377693.723   -16935652.672 8 -12849685.59246  22377693.286    22377700.3174
 99  9 17 17 32  0.0000000  0  8 03 08 23 21 17 29 09 31
  21823411.000    -3241328.324 8  -2506273.25847  21823410.777    21823417.8234
  23199796.917    -8692951.733 8  -6751556.57845  23199796.415    23199805.5124
  22044499.940     7181919.124 8   5600820.26847  22044499.470    22044506.8204
  20659384.083    -8885987.141 9  -6908741.92447  20659383.686    20659390.2674
  23043605.013    12757405.144 8   9959533.98546  23043604.514    23043613.7494
  20594152.405   -19318153.369 9 -14705669.31247  20594152.415    20594158.2904
  23556340.568    -6481694.248 8  -4814723.53245  23556340.325    23556349.9524
  22374422.629   -16952842.469 8 -12863080.25246  22374422.190    22374429.2174
 99  9 17 17 32 30.0000000  0  8 03 08 23 21 17 29 09 31
  21833351.421    -3189091.400 8  -2465569.19447  21833351.165    21833358.2154
  23187300.385    -8758621.462 8  -6802727.75045  23187299.876    23187308.9974
  22055212.866     7238215.450 8   5644687.49547  22055212.364    22055219.7024
  20657891.483    -8893830.896 9  -6914853.94147  20657891.080    20657897.6424
  23061528.934    12851595.272 8  10032928.77145  23061528.445    23061537.6214
  20585934.056   -19361341.301 9 -14739322.22447  20585934.034    20585939.8794
  23558532.089    -6470177.851 7  -4805749.73445  23558531.908    23558541.5324
  22371264.473   -16969439.104 8 -12876012.71546  22371264.026    22371271.0254
 99  9 17 17 33  0.0000000  0  8 03 08 23 21 17 29 09 31
  21843384.537    -3136367.219 8  -2424485.45147  21843384.280    21843391.3164
  23174884.305    -8823868.842 8  -6853569.80345  23174883.731    23174892.8344
  22065953.975     7294660.189 8   5688670.35747  22065953.468    22065960.8204
  20656436.120    -8901479.067 9  -6920813.55847  20656435.687    20656442.2514
  23079499.104    12946028.235 8  10106512.77545  23079498.585    23079507.7544
  20577810.358   -19404031.591 9 -14772587.36147  20577810.348    20577816.1924
  23560828.272    -6458110.996 8  -4796346.98245  23560828.108    23560837.7694
  22368219.895   -16985438.883 8 -12888480.07846  22368219.404    22368226.4104
 99  9 17 17 33 30.0000000  0  8 03 08 23 21 17 29 09 31
  21853509.231    -3083161.724 8  -2383026.65847  21853508.951    21853516.0054
  23162542.966    -8888722.371 8  -6904104.97045  23162542.446    23162551.5074
  22076721.180     7351242.104 8   5732760.11747  22076720.704    22076728.0914
  20655018.011    -8908931.464 9  -6926620.62247  20655017.549    20655024.0934
  23097515.157    13040702.502 8  10180284.81145  23097514.623    23097523.7844
  20569779.820   -19446232.345 9 -14805471.04447  20569779.788    20569785.6064
  23563227.249    -6445505.073 8  -4786524.21045  23563226.988    23563236.4204
  22365288.249   -17000844.910 8 -12900484.78746  22365287.763    22365294.7604
 99  9 17 17 34  0.0000000  0  8 03 08 23 21 17 29 09 31
  21863728.226    -3029460.459 8  -2341181.55047  21863727.946    21863735.0104
  23150276.093    -8953185.136 8  -6954335.63545  23150275.548    23150284.6244
  22087512.057     7407948.304 8   5776946.71547  22087511.564    22087519.0064
  20653639.605    -8916175.107 9  -6932265.01547  20653639.153    20653645.6764
  23115576.716    13135616.059 8  10254243.31245  23115576.160    23115585.3474
  20561840.321   -19487954.626 9 -14837981.89047  20561840.284    20561846.1234
  23565727.747    -6432364.417 8  -4776284.74145  23565727.487    23565736.9104
  22362468.982   -17015660.580 8 -12912029.46746  22362468.485    22362475.4374
 99  9 17 17 34 30.0000000  0  8 03 08 23 21 17 29 09 31
  21874041.202    -2975265.737 8  -2298951.93047  21874040.926    21874047.9924
  23138084.332    -9017253.242 8  -7004258.78845  23138083.738    23138092.7804
  22098323.396     7464762.024 8   5821217.10747  22098322.909    22098330.3584
  20652301.833    -8923205.238 9  -6937743.03947  20652301.379    20652307.8724
  23133683.899    13230769.159 8  10328388.45445  23133683.324    23133692.4534
  20553991.250   -19529201.681 9 -14870122.43147  20553991.198    20553997.0254
  23568332.773    -6418675.218 8  -4765617.87445  23568332.533    23568341.8794
  22359759.949   -17029896.663 8 -12923122.52546  22359759.451    22359766.3924
 99  9 17 17 35  0.0000000  0  8 03 08 23 21 17 29 09 31
  21884445.775    -2920589.828 8  -2256347.36047  21884445.483    21884452.5234
  23125966.232    -9080933.907 8  -7053880.04845  23125965.628    23125974.6354
  22109155.130     7521682.704 8   5865570.84747  22109154.631    22109162.0444
  20651008.621    -8930001.272 9  -6943038.65047  20651008.135    20651014.6364
  23151839.123    13326174.854 8  10402730.41045  23151838.556    23151847.7494
  20546231.816   -19569977.808 9 -14901896.01247  20546231.770    20546237.5764
  23571046.915    -6404412.990 8  -4754504.46045  23571046.654    23571055.8934
  22357160.098   -17043559.299 8 -12933768.73846  22357159.600    22357166.5164
 99  9 17 17 35 30.0000000  0  8 03 08 23 21 17 29 09 31
  21894940.322    -2865440.928 8  -2213374.22047  21894940.008    21894947.0244
  23113921.036    -9144231.809 8  -7103203.04146  23113920.446    23113929.4934
  22120008.353     7578716.670 8   5910012.85247  22120007.857    22120015.2604
  20649765.599    -8936533.625 9  -6948128.79247  20649765.115    20649771.6044
  23170043.708    13421840.128 8  10477274.65345  23170043.143    23170052.3564
  20538561.965   -19610283.229 9 -14933302.81147  20538561.899    20538567.7024
  23573875.400    -6389550.075 8  -4742922.98645  23573875.095    23573884.2164
  22354670.728   -17056641.256 8 -12943962.47246  22354670.204    22354677.0984
 99  9 17 17 36  0.0000000  0  8 03 08 23 21 17 29 09 31
  21905521.297    -2809837.674 8  -2170047.04447  21905520.973    21905527.9774
  23101953.334    -9207122.060 8  -7152208.38046  23101952.751    23101961.8204
  22130885.860     7635877.681 8   5954553.85947  22130885.327    22130892.6724
  20648574.463    -8942793.157 9  -6953006.34747  20648573.960    20648580.4594
  23188299.951    13517776.433 8  10552030.07745  23188299.314    23188308.5434
  20530981.608   -19650118.348 9 -14964343.14647  20530981.537    20530987.3134
  23576820.637    -6374072.812 8  -4730862.81045  23576820.357    23576829.4824
  22352294.773   -17069127.157 8 -12953691.74846  22352294.229    22352301.1264
 99  9 17 17 36 30.0000000  0  8 03 08 23 21 17 29 09 31
  21916186.795    -2753790.191 8  -2126373.72047  21916186.480    21916193.4854
  23090060.906    -9269617.196 8  -7200905.83946  23090060.304    23090069.3024
  22141790.341     7693180.425 8   5999205.30847  22141789.768    22141797.0414
  20647434.015    -8948786.418 9  -6957676.42447  20647433.519    20647439.9984
  23206609.216    13613991.947 7  10627003.09245  23206608.569    23206617.8604
  20523492.255   -19689475.113 9 -14995010.73347  20523492.192    20523497.9444
  23579883.573    -6357976.994 8  -4718320.61045  23579883.307    23579892.5184
  22350033.326   -17081011.282 8 -12962952.10746  22350032.764    22350039.6614
 99  9 17 17 37  0.0000000  0  8 03 08 23 21 17 29 09 31
  21926939.158    -2697286.455 8  -2082344.86747  21926938.836    21926945.8084
  23078239.731    -9331738.077 8  -7249311.67546  23078239.157    23078248.1124
  22152722.803     7750630.312 8   6043971.40847  22152722.169    22152729.4414
  20646342.761    -8954521.129 9  -6962145.03347  20646342.245    20646348.7104
  23224971.285    13710484.981 8  10702192.32145  23224970.696    23224979.9864
  20516093.894   -19728353.940 9 -15025305.89847  20516093.804    20516099.5154
  23583062.611    -6341271.497 8  -4705303.37345  23583062.305    23583071.5714
  22347888.341   -17092283.257 8 -12971735.46746  22347887.789    22347894.6824
 99  9 17 17 37 30.0000000  0  8 03 08 23 21 17 29 09 31
  21937779.961    -2640317.874 8  -2037953.80247  21937779.631    21937786.6364
  23066491.384    -9393476.655 8  -7297419.61146  23066490.721    23066499.5954
  22163679.333     7808207.327 8   6088836.57347  22163678.744    22163685.9874
  20645298.091    -8960010.908 9  -6966422.78847  20645297.568    20645304.0304
  23243381.273    13807229.736 8  10777577.70545  23243380.662    23243390.0744
  20508786.424   -19766754.798 9 -15055228.62647  20508786.333    20508792.0484
  23586353.670    -6323977.571 8  -4691827.60745  23586353.248    23586362.5484
  22345860.760   -17102938.069 8 -12980037.93346  22345860.203    22345867.1404
 99  9 17 17 38  0.0000000  0  8 03 08 23 21 17 29 09 31
  21948711.820    -2582870.818 8  -1993189.90647  21948711.533    21948718.5294
  23054815.896    -9454831.577 8  -7345228.59146  23054815.184    23054824.1304
  22174659.102     7865906.218 8   6133796.69747  22174658.523    22174665.7384
  20644296.485    -8965274.373 9  -6970524.19547  20644295.971    20644302.4484
  23261834.711    13904202.791 7  10853140.98645  23261834.037    23261843.5264
  20501572.447   -19804664.359 9 -15084768.53047  20501572.377    20501578.0954
  23589752.629    -6306116.149 8  -4677909.64945  23589752.284    23589761.4304
  22343947.924   -17112990.156 8 -12987870.74846  22343947.407    22343954.2584
 99  9 17 17 38 30.0000000  0  8 03 08 23 21 17 29 09 31
  21959738.254    -2524926.680 8  -1948038.67047  21959737.950    21959745.0014
  23043214.351    -9515797.785 8  -7392734.68846  23043213.705    23043222.5464
  22185663.345     7923733.825 8   6178857.13847  22185662.785    22185670.0064
  20643338.136    -8970310.476 9  -6974448.43247  20643337.635    20643344.1204
  23280329.868    14001395.408 8  10928875.34545  23280329.203    23280338.7434
  20494456.196   -19842060.183 9 -15113908.11147  20494456.133    20494461.8574
  23593258.002    -6287695.201 8  -4663555.70045  23593257.658    23593266.6114
  22342147.925   -17122449.329 8 -12995241.55246  22342147.413    22342154.2264
 99  9 17 17 39  0.0000000  0  9 03 08 23 21 17 15 29 09 31
  21970858.195    -2466490.712 8  -1902504.18247  21970857.951    21970865.0184
  23031693.536    -9576340.089 8  -7439910.42846  23031692.861    23031701.8144
  22196691.625     7981687.997 8   6224016.18347  22196691.070    22196698.3964
  20642424.985    -8975108.770 9  -6978187.36447  20642424.497    20642431.0044
  23298867.509    14098810.482 7  11004783.07945  23298866.810    23298876.4424
  24293350.596    -7473953.375 7  -5488147.12045  24293349.813    24293358.0754
  20487438.822   -19878936.689 9 -15142643.02747  20487438.761    20487444.5014
  23596871.284    -6268707.248 8  -4648759.90245  23596870.976    23596879.9274
  22340463.690   -17131300.117 8 -13002138.28146  22340463.179    22340470.0164
 99  9 17 17 39 30.0000000  0  9 03 08 23 21 17 15 29 09 31
  21982068.214    -2407581.767 8  -1856601.13847  21982067.971    21982075.0614
  23020260.048    -9636422.536 8  -7486727.85646  23020259.436    23020268.3974
  22207744.912     8039773.756 8   6269277.77247  22207744.438    22207751.8074
  20641558.906    -8979659.593 9  -6981733.46447  20641558.456    20641565.0184
  23317448.903    14196456.147 7  11080870.48545  23317448.257    23317457.9184
  24273129.704    -7580215.295 7  -5570948.67745  24273129.092    24273137.1134
  20480520.969   -19915289.982 9 -15170970.25048  20480520.930    20480526.6724
  23600593.668    -6249146.285 8  -4633517.59045  23600593.359    23600602.2224
  22338896.745   -17139534.176 8 -13008554.43846  22338896.254    22338903.1674
 99  9 17 17 40  0.0000000  0  9 03 08 23 21 17 15 29 09 31
  21993364.201    -2348220.649 8  -1810345.76547  21993364.001    21993371.1474
  23008914.031    -9696046.177 8  -7533187.76746  23008913.441    23008922.2904
  22218824.276     8097996.382 8   6314646.01847  22218823.828    22218831.2414
  20640739.004    -8983968.093 9  -6985090.74147  20640738.564    20640745.1434
  23336080.025    14294363.194 8  11157161.53845  23336079.438    23336089.1714
  24252915.274    -7686442.819 7  -5653723.41945  24252914.577    24252922.7894
  20473702.035   -19951123.479 9 -15198892.43548  20473702.001    20473707.7604
  23604425.227    -6229010.785 8  -4617827.61145  23604424.967    23604433.8434
  22337444.942   -17147163.527 8 -13014499.38846  22337444.489    22337451.3754
 99  9 17 17 40 30.0000000  0  9 03 08 23 21 17 15 29 09 31
  22004743.894    -2288420.163 8  -1763748.02347  22004743.693    22004750.8644
  22997655.229    -9755211.513 8  -7579290.57346  22997654.615    22997663.3764
  22229928.054     8156347.120 8   6360114.07647  22229927.601    22229935.1064
  20639965.594    -8988032.283 9  -6988257.65147  20639965.170    20639971.7664
  23354761.790    14392536.372 7  11233659.98045  23354761.235    23354771.0884
  24232707.512    -7792634.740 7  -5736470.42245  24232706.857    24232715.2594
  20466977.128   -19986462.786 9 -15226429.54448  20466977.127    20466982.9074
  23608368.758    -6208287.024 8  -4601679.27145  23608368.606    23608377.5024
  22336109.029   -17154183.850 8 -13019969.77646  22336108.574    22336115.5074
 99  9 17 17 41  0.0000000  0  9 03 08 23 21 17 15 29 09 31
  22016204.052    -2228196.482 8  -1716820.52247  22016203.869    22016211.1224
  22986480.767    -9813932.682 8  -7625047.25646  22986480.241    22986489.0504
  22241055.504     8214822.436 8   6405679.21347  22241055.098    22241062.6594
  20639237.520    -8991858.192 9  -6991238.88347  20639237.123    20639243.7414
  23373492.609    14490967.232 8  11310359.19245  23373492.117    23373501.9324
  24212505.366    -7898797.338 7  -5819194.56445  24212504.712    24212513.2164
  20460341.276   -20021334.126 9 -15253601.99848  20460341.291    20460347.0934
  23612426.699    -6186962.656 8  -4585062.87145  23612426.548    23612435.3854
  22334887.549   -17160602.440 8 -13024971.28546  22334887.110    22334894.0734
 99  9 17 17 41 30.0000000  0  9 03 08 23 21 17 15 29 09 31
  22027744.856    -2167549.101 8  -1669562.86047  22027744.710    22027751.9574
  22975387.893    -9872225.933 8  -7670470.51446  22975387.360    22975396.1754
  22252207.348     8273425.205 8   6451343.66747  22252206.908    22252214.4294
  20638555.415    -8995442.523 9  -6994031.87347  20638555.016    20638561.6474
  23392270.752    14589646.430 8  11387251.92045  23392270.227    23392280.1234
  24192308.580    -8004932.315 7  -5901897.20245  24192307.894    24192316.5254
  20453794.652   -20055736.911 9 -15280409.34448  20453794.663    20453800.4754
  23616597.547    -6165045.109 8  -4567984.30245  23616597.350    23616606.2224
  22333777.053   -17166438.064 8 -13029518.52446  22333776.628    22333783.5764
 99  9 17 17 42  0.0000000  0  9 03 08 23 21 17 15 29 09 31
  22039369.293    -2106462.479 8  -1621962.93647  22039369.122    22039376.3924
  22964375.357    -9930097.220 8  -7715564.95046  22964374.785    22964383.6074
  22263385.016     8332164.055 8   6497114.15447  22263384.560    22263392.0934
  20637921.617    -8998773.197 9  -6996627.21347  20637921.224    20637927.8594
  23411094.504    14688565.542 7  11464331.59845  23411093.907    23411103.9294
  24172118.163    -8111033.673 7  -5984573.64045  24172117.501    24172126.0554
  20447338.703   -20089662.979 9 -15306845.22648  20447338.742    20447344.5374
  23620882.009    -6142530.646 7  -4550440.62145  23620881.764    23620890.7254
  22332773.400   -17171712.306 8 -13033628.34346  22332772.993    22332779.9354
 99  9 17 17 42 30.0000000  0  9 03 08 23 21 17 15 29 09 31
  22051081.135    -2044916.570 8  -1574005.12647  22051080.964    22051088.2194
  22953445.366    -9987534.464 8  -7760321.16246  22953444.791    22953453.6784
  22274590.392     8391048.882 8   6542998.37647  22274590.022    22274597.5634
  20637337.458    -9001843.136 9  -6999019.38347  20637337.059    20637343.6914
  23429959.217    14787699.325 7  11541578.55745  23429958.657    23429968.6314
  24151934.643    -8217099.234 7  -6067222.16645  24151934.044    24151942.6114
  20440976.042   -20123099.047 9 -15332899.29248  20440976.047    20440981.8284
  23625280.820    -6119414.185 7  -4532427.83745  23625280.539    23625289.7504
  22331878.727   -17176413.963 8 -13037291.98246  22331878.312    22331885.2124
 99  9 17 17 43  0.0000000  0  9 03 08 23 21 17 15 29 09 31
  22062880.755    -1982909.599 8  -1525688.04047  22062880.576    22062887.8084
  22942601.372   -10044519.566 8  -7804725.08346  22942600.808    22942609.6364
  22285823.054     8450076.455 8   6588993.84446  22285822.666    22285830.1914
  20636802.917    -9004652.286 9  -7001208.33947  20636802.499    20636809.1444
  23448867.161    14887060.289 7  11619002.51445  23448866.507    23448876.5824
  24131757.987    -8323128.482 7  -6149842.41845  24131757.452    24131766.0774
  20434710.818   -20156023.047 9 -15358554.33948  20434710.834    20434716.6094
  23629789.885    -6095717.686 7  -4513963.08245  23629789.678    23629798.9884
  22331094.685   -17180534.392 8 -13040502.71846  22331094.295    22331101.1034
 99  9 17 17 43 30.0000000  0  9 03 08 23 21 17 15 29 09 31
  22074770.909    -1920426.507 8  -1476999.95547  22074770.714    22074777.9304
  22931846.443   -10101037.314 8  -7848764.82246  22931845.883    22931854.4954
  22297080.140     8509232.501 8   6635089.41146  22297079.733    22297087.2454
  20636317.201    -9007204.794 9  -7003197.31747  20636316.795    20636323.4124
  23467820.633    14986661.132 7  11696613.41945  23467820.076    23467830.0764
  24111589.386    -8429115.882 7  -6232430.06045  24111588.654    24111597.3654
  20428546.125   -20188418.690 9 -15383797.68248  20428546.122    20428551.8834
  23634406.936    -6071454.650 7  -4495056.85745  23634406.760    23634416.0734
  22330423.638   -17184061.113 8 -13043250.81646  22330423.210    22330430.0044
 99  9 17 17 44  0.0000000  0  9 03 08 23 21 17 15 29 09 31
  22086752.414    -1857463.593 8  -1427937.98847  22086752.220    22086759.4304
  22921179.312   -10157093.182 8  -7892444.64046  22921178.748    22921187.4444
  22308361.557     8568516.298 8   6681284.52146  22308361.103    22308368.6404
  20635877.489    -9009515.783 9  -7004998.09847  20635877.050    20635883.6624
  23486819.340    15086498.959 7  11774408.95945  23486818.704    23486828.7204
  24091427.949    -8535065.334 7  -6314988.11045  24091427.142    24091435.9124
  20422480.124   -20220295.922 9 -15408637.06948  20422480.121    20422485.8334
  23639131.382    -6046629.297 8  -4475712.47345  23639131.180    23639140.2284
  22329867.651   -17186982.903 8 -13045527.54346  22329867.215    22329874.0284
 99  9 17 17 44 30.0000000  0  9 03 08 23 21 17 15 29 09 31
  22098822.045    -1794037.637 8  -1378515.21147  22098821.814    22098829.0164
  22910598.447   -10212695.877 8  -7935771.34946  22910597.884    22910606.5544
  22319662.734     8627904.181 8   6727560.74746  22319662.239    22319669.8314
  20635478.708    -9011611.580 9  -7006631.19247  20635478.276    20635484.8754
  23505863.408    15186575.006 7  11852390.13045  23505862.710    23505872.7514
  24071272.632    -8640982.669 7  -6397521.15745  24071271.875    24071280.5764
  20416511.623   -20251660.722 9 -15433077.15848  20416511.603    20416517.3134
  23643961.461    -6021248.088 7  -4455934.94645  23643961.126    23643970.2274
  22329430.620   -17189279.821 8 -13047317.35246  22329430.167    22329436.9684
 99  9 17 17 45  0.0000000  0  9 03 08 23 21 17 15 29 09 31
  22110975.762    -1730169.544 8  -1328747.90547  22110975.510    22110982.7174
  22900101.263   -10267858.862 8  -7978755.43346  22900100.710    22900109.3534
  22330982.671     8687390.403 8   6773913.59046  22330982.182    22330989.7354
  20635121.606    -9013488.498 9  -7008093.73547  20635121.163    20635127.7244
  23524952.924    15286890.566 7  11930557.91345  23524952.234    23524962.2844
  24051122.510    -8746872.802 7  -6480032.99745  24051121.615    24051130.4364
  20410636.982   -20282532.055 9 -15457132.72748  20410636.980    20410642.6694
  23648894.597    -5995323.321 7  -4435733.89345  23648894.302    23648903.6394
  22329109.822   -17190965.793 8 -13048631.11046  22329109.339    22329116.1414
 99  9 17 17 45 30.0000000  0  9 03 08 23 21 17 15 29 09 31
  22123212.240    -1665866.509 8  -1278641.68247  22123211.979    22123219.2154
  22889687.173   -10322585.305 8  -8021399.34546  22889686.570    22889695.2244
  22342325.500     8746997.048 8   6820360.27146  22342324.970    22342332.5534
  20634807.359    -9015139.807 9  -7009380.48147  20634806.911    20634813.4904
  23544085.243    15387431.014 7  12008900.95645  23544084.599    23544094.6814
  24030978.812    -8852729.148 7  -6562518.50145  24030977.880    24030986.6694
  20404853.335   -20312925.450 9 -15480815.87648  20404853.304    20404859.0134
  23653935.444    -5968833.180 8  -4415092.25645  23653935.241    23653944.6814
  22328902.461   -17192055.781 8 -13049480.46146  22328901.953    22328908.7514
 99  9 17 17 46  0.0000000  0  9 03 08 23 21 17 15 29 09 31
  22135526.966    -1601152.620 8  -1228215.33347  22135526.684    22135533.9554
  22879357.266   -10376869.174 8  -8063698.38946  22879356.691    22879365.3654
  22353691.927     8806727.628 8   6866903.53746  22353691.411    22353698.9244
  20634537.149    -9016559.868 9  -7010487.03847  20634536.717    20634543.2704
  23563257.912    15488183.286 7  12087409.05845  23563257.216    23563267.3494
  24010841.273    -8958553.284 7  -6644978.90545  24010840.330    24010848.9764
  20399159.598   -20342846.220 9 -15504130.75448  20399159.576    20399165.2324
  23659086.747    -5941764.338 8  -4393999.68645  23659086.495    23659095.7074
  22328807.471   -17192555.072 8 -13049869.53346  22328807.008    22328813.8014
 99  9 17 17 46 30.0000000  0  9 03 08 23 21 17 15 29 09 31
  22147917.927    -1536037.886 8  -1177476.62147  22147917.626    22147924.9144
  22869115.950   -10430687.398 8  -8105634.58446  22869115.361    22869124.1084
  22365080.424     8866574.263 8   6913537.22146  22365079.887    22365087.4404
  20634313.551    -9017735.000 9  -7011402.73247  20634313.082    20634319.6244
  23582471.641    15589151.591 7  12166085.48445  23582470.985    23582481.0964
  23990710.751    -9064340.190 7  -6727410.27845  23990709.867    23990718.4534
  20393559.063   -20372277.405 9 -15527064.12948  20393559.033    20393564.6954
  23664349.815    -5914107.994 8  -4372449.30545  23664349.522    23664358.4574
  22328824.021   -17192468.496 8 -13049802.08146  22328823.517    22328830.3064
 99  9 17 17 47  0.0000000  0  9 03 08 23 21 17 15 29 09 31
  22160386.773    -1470513.914 8  -1126419.03647  22160386.444    22160393.7294
  22858965.597   -10484027.543 8  -8147198.27146  22858965.028    22858973.6014
  22376496.754     8926567.144 8   6960284.87046  22376496.204    22376503.8074
  20634139.746    -9018648.418 9  -7012114.49847  20634139.293    20634145.8314
  23601726.070    15690333.898 7  12244928.66945  23601725.455    23601735.6754
  23970588.326    -9170084.367 7  -6809808.35145  23970587.537    23970596.2344
  20388050.948   -20401222.657 9 -15549618.86148  20388050.896    20388056.5444
  23669725.893    -5885856.450 8  -4350435.15145  23669725.570    23669734.5224
  22328949.966   -17191806.827 8 -13049286.50446  22328949.470    22328956.2284
 99  9 17 17 47 30.0000000  0  9 03 08 23 21 17 15 29 09 31
  22172933.814    -1404578.722 8  -1075041.01546  22172933.498    22172940.8114
  22848908.268   -10536878.944 8  -8188381.11346  22848907.690    22848916.2344
  22387939.582     8986699.260 8   7007141.00946  22387939.013    22387946.6184
  20634011.875    -9019320.361 9  -7012638.09447  20634011.421    20634017.9574
  23621022.787    15791737.541 7  12323944.35045  23621022.256    23621032.2414
  23950475.694    -9275776.752 7  -6892166.08345  23950474.892    23950483.6324
  20382638.954   -20429662.972 9 -15571780.12848  20382638.903    20382644.5424
  23675216.472    -5857002.565 8  -4327951.67545  23675216.259    23675225.2854
  22329186.729   -17190562.633 8 -13048317.01246  22329186.226    22329193.0204
 99  9 17 17 48  0.0000000  0  9 03 08 23 21 17 15 29 09 31
  22185560.394    -1338225.606 8  -1023337.33146  22185560.106    22185567.4274
  22838940.712   -10589258.446 8  -8229196.26346  22838940.140    22838948.5994
  22399404.992     9046950.183 8   7054089.72346  22399404.435    22399412.0064
  20633928.283    -9019759.653 9  -7012980.40747  20633927.819    20633934.3874
  23640362.058    15893365.158 7  12403134.53045  23640361.437    23640371.6434
  23930372.315    -9381420.612 7  -6974485.97145  23930371.538    23930380.1834
  20377325.801   -20457583.639 9 -15593536.47748  20377325.741    20377331.3854
  23680818.127    -5827565.691 7  -4305013.90845  23680817.891    23680826.9614
  22329535.735   -17188728.548 8 -13046887.86446  22329535.225    22329542.0544
 99  9 17 17 48 30.0000000  0  9 03 08 23 21 17 15 29 09 31
  22198269.826    -1271437.285 8   -971294.54246  22198269.538    22198276.8284
  22829062.189   -10641170.385 8  -8269647.05946  22829061.610    22829070.0134
  22410895.978     9107335.333 8   7101143.02046  22410895.390    22410902.9984
  20633887.817    -9019972.279 9  -7013146.09647  20633887.357    20633893.9294
  23659745.409    15995225.016 7  12482505.69745  23659744.869    23659755.0724
  23910279.556    -9487008.771 7  -7056762.45745  23910278.868    23910287.3674
  20372110.619   -20484989.514 9 -15614891.69248  20372110.571    20372116.1994
  23686526.911    -5797566.346 8  -4281637.83645  23686526.659    23686535.6284
  22329996.715   -17186306.141 8 -13045000.29846  22329996.196    22330003.0354
 99  9 17 17 49  0.0000000  0  9 03 08 23 21 17 15 29 09 31
  22211061.271    -1204217.945 8   -918915.88546  22211061.012    22211068.3214
  22819270.941   -10692623.951 8  -8309740.69646  22819270.328    22819278.5744
  22422411.900     9167851.731 8   7148298.59946  22422411.268    22422418.9164
  20633888.409    -9019969.299 9  -7013143.78247  20633887.937    20633894.5224
  23679172.388    16097313.572 7  12562055.04445  23679171.710    23679182.1014
  23890197.982    -9592538.835 7  -7138993.67945  23890197.201    23890205.8154
  20366989.066   -20511903.378 9 -15635863.52548  20366989.017    20366994.6284
  23692339.479    -5767020.445 7  -4257835.87745  23692339.185    23692348.4504
  22330570.263   -17183292.115 8 -13042651.71846  22330569.758    22330576.5794
 99  9 17 17 49 30.0000000  0  9 03 08 23 21 17 15 29 09 31
  22223932.315    -1136580.615 8   -866211.52346  22223932.052    22223939.3574
  22809566.300   -10743621.748 8  -8349479.16746  22809565.697    22809573.9364
  22433946.541     9228466.467 8   7195530.79646  22433945.962    22433953.5914
  20633929.460    -9019753.522 9  -7012975.65547  20633928.998    20633935.5614
  23698642.329    16199628.102 7  12641780.48045  23698641.831    23698651.9664
  23870126.354    -9698016.399 7  -7221183.97745  23870125.495    23870134.2784
  20361960.461   -20538328.797 9 -15656454.75048  20361960.408    20361966.0104
  23698254.036    -5735939.259 8  -4233616.82045  23698253.810    23698263.1194
  22331257.395   -17179681.258 8 -13039838.08246  22331256.863    22331263.6794
 99  9 17 17 50  0.0000000  0  9 03 08 23 21 17 15 29 09 31
  22236880.382    -1068538.430 8   -813191.69346  22236880.108    22236887.4244
  22799950.199   -10794154.160 8  -8388855.01746  22799949.624    22799957.8714
  22445498.285     9289171.267 8   7242833.17246  22445497.715    22445505.4264
  20634015.765    -9019300.287 9  -7012622.49647  20634015.278    20634021.8444
  23718153.437    16302159.201 7  12721674.71045  23718152.855    23718163.1234
  23850063.526    -9803446.988 7  -7303337.68545  23850062.755    23850071.4814
  20357022.289   -20564279.254 9 -15676675.87248  20357022.227    20357027.8344
  23704271.700    -5704316.936 8  -4208976.10245  23704271.484    23704280.6674
  22332058.224   -17175473.144 8 -13036559.03946  22332057.698    22332064.4824
 99  9 17 17 50 30.0000000  0  9 03 08 23 21 17 15 29 09 31
  22249901.574    -1000111.761 8   -759872.26146  22249901.284    22249908.6204
  22790427.733   -10844194.603 8  -8427847.51546  22790427.146    22790435.4534
  22457067.374     9349967.178 8   7290206.54346  22457066.846    22457074.5324
  20634149.550    -9018597.054 9  -7012074.53347  20634149.076    20634155.6634
  23737705.243    16404904.517 7  12801735.83245  23737704.849    23737715.0124
  23830010.371    -9908826.799 7  -7385451.82245  23830009.618    23830018.2904
  20352173.191   -20589761.348 9 -15696532.04148  20352173.124    20352178.7424
  23710396.292    -5672132.713 8  -4183897.52045  23710396.084    23710405.1354
  22332973.177   -17170665.391 8 -13032812.75246  22332972.655    22332979.4254
 99  9 17 17 51  0.0000000  0  9 03 08 23 21 17 15 29 09 31
  22262993.163     -931315.099 8   -706264.52546  22262992.900    22263000.2354
  22781001.088   -10893731.504 8  -8466447.63946  22781000.511    22781008.8744
  22468650.957     9410838.742 8   7337638.86746  22468650.417    22468658.0324
  20634333.291    -9017631.533 9  -7011322.19147  20634332.829    20634339.4404
  23757296.908    16507857.989 7  12881959.17145  23757296.465    23757306.4024
  23809967.128   -10014154.212 7  -7467525.13345  23809966.403    23809975.1934
  20347415.552   -20614762.718 9 -15716013.61748  20347415.507    20347421.1324
  23716631.615    -5639365.457 7  -4158364.66345  23716631.388    23716640.6514
  22334001.799   -17165259.924 8 -13028600.70846  22334001.273    22334008.0154
 99  9 17 17 51 30.0000000  0  9 03 08 23 21 17 15 29 09 31
  22276156.179     -862143.275 8   -652364.46146  22276155.888    22276163.2504
  22771671.443   -10942758.285 8  -8504650.27146  22771670.900    22771679.2614
  22480251.547     9471800.442 8   7385141.42246  22480251.056    22480258.7174
  20634569.928    -9016387.940 9  -7010353.16647  20634569.485    20634576.0824
  23776925.976    16611009.188 7  12962336.56545  23776925.458    23776935.5884
  23789935.151   -10119422.837 7  -7549552.63345  23789934.591    23789943.3054
  20342754.149   -20639258.556 9 -15735101.27448  20342754.094    20342759.7464
  23722980.065    -5606003.598 7  -4132368.47945  23722979.793    23722989.2094
  22335144.762   -17159253.525 8 -13023920.40146  22335144.251    22335150.9734
 99  9 17 17 52  0.0000000  0  9 03 08 23 21 17 15 29 09 31
  22289394.574     -792575.489 8   -598155.85946  22289394.263    22289401.6154
  22762438.933   -10991275.290 8  -8542455.68646  22762438.402    22762446.8524
  22491875.372     9532883.830 8   7432738.80646  22491874.929    22491882.5824
  20634859.622    -9014865.704 9  -7009167.02247  20634859.164    20634865.7724
  23796591.871    16714353.867 7  13042864.72945  23796591.153    23796601.4224
  23769917.801   -10224615.131 7  -7631520.65345  23769917.219    23769925.7504
  20338192.266   -20663231.339 9 -15753781.35948  20338192.213    20338197.8624
  23729443.262    -5572039.605 8  -4105903.09645  23729443.088    23729452.4924
  22336403.123   -17152640.758 8 -13018767.60046  22336402.630    22336409.3404
 99  9 17 17 52 30.0000000  0  9 03 08 23 21 17 15 29 09 31
  22302712.648     -722588.721 8   -543620.77446  22302712.383    22302719.6964
  22753302.186   -11039289.432 8  -8579869.24546  22753301.527    22753310.0724
  22503526.020     9594108.010 8   7480445.87846  22503525.543    22503533.2204
  20635198.473    -9013085.330 9  -7007779.72947  20635198.000    20635204.5934
  23816294.755    16817892.561 7  13123544.07945  23816294.121    23816304.3324
  23749916.827   -10329721.013 8  -7713421.33845  23749916.166    23749924.7024
  20333730.904   -20686675.870 9 -15772049.81848  20333730.861    20333736.4644
  23736017.620    -5537491.709 7  -4078982.74345  23736017.347    23736026.9164
  22337776.442   -17145424.212 8 -13013144.32846  22337775.929    22337782.6214
 99  9 17 17 53  0.0000000  0  9 03 08 23 21 17 15 29 09 31
  22316112.261     -652173.779 8   -488752.04846  22316111.967    22316119.2594
  22744257.279   -11086820.537 8  -8616906.42646  22744256.669    22744265.1144
  22515204.318     9655477.507 8   7528266.19346  22515203.809    22515211.4744
  20635584.907    -9011054.779 9  -7006197.49747  20635584.442    20635591.0104
  23836034.025    16921622.374 8  13204372.32345  23836033.406    23836043.7284
  23729932.504   -10434739.475 7  -7795253.89045  23729931.760    23729940.3614
  20329370.206   -20709591.595 9 -15789906.22148  20329370.150    20329375.7644
  23742699.562    -5502378.922 8  -4051622.23445  23742699.361    23742708.8434
  22339264.750   -17137603.185 8 -13007050.03346  22339264.219    22339270.9244
 99  9 17 17 53 30.0000000  0  9 03 08 23 21 17 15 29 09 31
  22329593.754     -581328.244 8   -433547.79646  22329593.464    22329600.8054
  22735302.578   -11133877.478 8  -8653574.12246  22735301.968    22735310.4444
  22526910.873     9716995.282 8   7576202.05146  22526910.325    22526917.9624
  20636016.285    -9008787.926 9  -7004431.12947  20636015.823    20636022.3974
  23855810.573    17025547.967 8  13285353.16045  23855810.016    23855820.3584
  23709964.836   -10539670.508 7  -7877018.32745  23709964.163    23709972.6944
  20325108.515   -20731986.992 9 -15807357.17548  20325108.440    20325114.0204
  23749487.827    -5466706.548 7  -4023825.64745  23749487.562    23749496.9454
  22340868.813   -17129173.725 8 -13000481.64046  22340868.279    22340874.9894
 99  9 17 17 54  0.0000000  0  9 03 08 23 21 17 15 29 09 31
  22343153.555     -510071.373 8   -378023.01846  22343153.277    22343160.6294
  22726439.324   -11180454.264 8  -8689867.67246  22726438.684    22726447.0854
  22538642.710     9778646.029 8   7624241.52746  22538642.103    22538649.7494
  20636489.048    -9006303.782 9  -7002495.44847  20636488.566    20636495.0994
  23875627.754    17129686.591 7  13366499.98145  23875627.217    23875637.3384
  23690012.650   -10644520.223 7  -7958719.39045  23690011.896    23690020.4894
  20320943.299   -20753875.451 9 -15824413.11248  20320943.234    20320948.8014
  23756382.522    -5430475.340 8  -3995593.62145  23756382.338    23756391.3274
  22342586.736   -17120146.077 8 -12993447.12246  22342586.209    22342592.8684
 99  9 17 17 54 30.0000000  0  9 03 08 23 21 17 15 29 09 31
  22356784.111     -438442.629 8   -322208.46146  22356783.800    22356791.1764
  22717670.363   -11226535.336 8  -8725774.94146  22717669.714    22717678.1604
  22550396.386     9840411.738 8   7672370.58146  22550395.786    22550403.4574
  20637002.275    -9003606.971 9  -7000394.04847  20637001.771    20637008.2874
  23895486.809    17234046.106 7  13447818.90845  23895486.389    23895496.6354
  23670073.784   -10749299.627 7  -8040365.66645  23670073.009    23670081.5394
  20316871.401   -20775273.542 9 -15841086.94248  20316871.323    20316876.8704
  23763382.976    -5393688.636 8  -3966928.74045  23763382.752    23763391.7184
  22344415.720   -17110534.940 8 -12985957.94346  22344415.153    22344421.8594
 99  9 17 17 55  0.0000000  0  9 03 08 23 21 17 15 29 09 31
  22370480.860     -366465.845 8   -266122.71746  22370480.578    22370487.9444
  22708997.055   -11272113.848 8  -8761290.62646  22708996.419    22709004.8064
  22562170.569     9902285.240 8   7720583.63346  22562169.954    22562177.6624
  20637558.906    -9000681.884 9  -6998114.77147  20637558.406    20637564.9084
  23915386.627    17338619.804 7  13529304.73645  23915386.162    23915396.5604
  23650147.780   -10854011.262 7  -8121959.12145  23650147.084    23650155.4864
  20312892.075   -20796185.037 9 -15857381.60748  20312891.998    20312897.5364
  23770490.672    -5356337.738 7  -3937824.22345  23770490.433    23770499.5154
  22346355.060   -17100343.646 8 -12978016.69146  22346354.491    22346361.2474
 99  9 17 17 55 30.0000000  0  9 03 08 23 21 17 15 29 09 31
  22384242.939     -294146.131 8   -209769.75046  22384242.602    22384249.9214
  22700424.221   -11317164.508 8  -8796394.99346  22700423.594    22700431.9834
  22573965.710     9964268.587 8   7768882.27346  22573965.069    22573972.7824
  20638157.750    -8997534.861 9  -6995662.55947  20638157.261    20638163.8044
  23935327.611    17443409.545 7  13610958.93945  23935326.998    23935337.5444
  23630235.205   -10958651.944 7  -8203497.29445  23630234.509    23630242.9624
  20309004.909   -20816612.052 9 -15873298.75448  20309004.858    20309010.3884
  23777705.419    -5318424.070 7  -3908281.17745  23777705.187    23777714.5094
  22348403.122   -17089580.918 8 -12969630.15946  22348402.563    22348409.3234
 99  9 17 17 56  0.0000000  0  9 03 08 23 21 17 15 29 09 31
  22398069.919     -221484.850 8   -153150.63846  22398069.589    22398076.9764
  22691952.599   -11361682.874 8  -8831084.59646  22691951.979    22691960.3954
  22585781.980    10026363.436 8   7817267.79146  22585781.388    22585789.1034
  20638802.856    -8994144.780 9  -6993020.95047  20638802.374    20638808.9314
  23955307.003    17548401.569 7  13692770.70145  23955306.406    23955317.1944
  23610336.591   -11063219.676 8  -8284978.60345  23610335.935    23610344.3784
  20305210.453   -20836552.421 9 -15888836.70448  20305210.395    20305215.9074
  23785023.899    -5279965.260 7  -3878313.37045  23785023.551    23785032.9904
  22350557.690   -17078258.501 8 -12960807.50346  22350557.171    22350563.9394
 99  9 17 17 56 30.0000000  0  9 03 08 23 21 17 15 29 09 31
  22411965.712     -148462.351 8    -96250.03746  22411965.379    22411972.8024
  22683581.045   -11405675.841 8  -8865364.80046  22683580.414    22683588.7854
  22597622.245    10088584.095 8   7865751.36546  22597621.602    22597629.3724
  20639498.744    -8990488.007 9  -6990171.52347  20639498.243    20639504.7884
  23975322.594    17653582.546 7  13774729.71545  23975321.889    23975332.6794
  23590454.455   -11167700.919 8  -8366392.55545  23590453.828    23590462.2714
  20301510.079   -20855998.174 9 -15903989.23048  20301510.007    20301515.5264
  23792445.602    -5240964.547 8  -3847923.28345  23792445.273    23792454.5394
  22352820.011   -17066370.056 8 -12951543.79446  22352819.475    22352826.3074
 99  9 17 17 57  0.0000000  0  9 03 08 23 21 17 15 29 09 31
  22425935.988      -75048.568 8    -39044.56546  22425935.638    22425943.0664
  22675306.927   -11449156.204 8  -8899245.55846  22675306.312    22675314.6864
  22609488.079    10150939.324 8   7914339.78146  22609487.497    22609495.2854
  20640246.468    -8986558.607 9  -6987109.66547  20640245.965    20640252.5184
  23995374.179    17758953.686 7  13856836.89745  23995373.408    23995384.4934
  23570591.034   -11272084.416 8  -8447730.30945  23570590.330    23570598.6984
  20297906.468   -20874935.323 9 -15918745.44448  20297906.372    20297911.9024
  23799971.300    -5201416.788 8  -3817106.94145  23799971.012    23799980.4994
  22355191.182   -17053909.466 8 -12941834.24946  22355190.683    22355197.5264
 99  9 17 17 57 30.0000000  0  9 03 08 23 21 17 15 29 09 31
  22439981.230       -1240.554 8     18468.11446  22439980.874    22439988.3314
  22667129.886   -11492126.688 8  -8932729.01046  22667129.283    22667137.6164
  22621379.806    10213430.026 8   7963033.78246  22621379.215    22621386.9804
  20641046.146    -8982356.441 9  -6983835.25547  20641045.651    20641052.1704
  24015465.054    17864530.894 7  13939104.64945  24015464.390    24015475.5524
  23550746.778   -11376366.639 8  -8528989.15845  23550746.018    23550754.4924
  20294400.079   -20893361.453 9 -15933103.46348  20294399.979    20294405.5144
  23807601.521    -5161320.746 8  -3785863.33745  23807601.201    23807610.6674
  22357671.490   -17040875.369 8 -12931677.82546  22357670.937    22357677.8624
 99  9 17 17 58  0.0000000  0  9 03 08 23 21 17 15 29 09 31
  22454101.889       72963.592 8     76289.46346  22454101.519    22454108.9734
  22659048.566   -11534594.621 8  -8965820.87846  22659047.907    22659056.1274
  22633297.818    10276059.418 8   8011835.83346  22633297.254    22633305.0074
  20641899.681    -8977871.407 9  -6980340.43247  20641899.161    20641905.6724
  24035593.806    17970307.966 7  14021528.13545  24035593.154    24035604.2804
  23530922.371   -11480544.589 8  -8610166.75045  23530921.712    23530930.0114
  20290993.367   -20911263.658 9 -15947053.22848  20290993.278    20290998.8024
  23815337.703    -5120666.643 8  -3754184.89645  23815337.345    23815346.6994
  22360261.453   -17027264.736 8 -12921072.14046  22360260.924    22360267.8684
 99  9 17 17 58 30.0000000  0  9 03 08 23 21 17 15 29 09 31
  22468297.089      147559.673 8    134416.20646  22468296.751    22468304.1994
  22651063.923   -11576554.314 8  -8998516.70746  22651063.265    22651071.4064
  22645243.758    10338835.191 8   8060751.94746  22645243.194    22645250.9804
  20642803.381    -8973122.365 9  -6976639.89047  20642802.875    20642809.3914
  24055762.057    18076292.754 7  14104113.49545  24055761.412    24055772.7584
  23511118.439   -11584615.334 8  -8691260.80545  23511117.702    23511126.0954
  20287685.433   -20928647.071 9 -15960598.74048  20287685.318    20287690.8604
  23823183.835    -5079435.308 8  -3722056.65845  23823183.453    23823192.9034
  22362963.147   -17013067.437 8 -12910009.33046  22362962.583    22362969.5184
 99  9 17 17 59  0.0000000  0  9 03 08 23 21 17 15 29 09 31
  22482563.948      222532.166 8    192836.26646  22482563.605    22482571.0394
  22643177.588   -11617997.259 8  -9030809.88246  22643176.905    22643185.0814
  22657214.233    10401740.154 8   8109768.73146  22657213.647    22657221.4224
  20643755.101    -8968121.114 9  -6972742.82447  20643754.596    20643761.1164
  24075970.969    18182490.137 7  14186864.51245  24075970.312    24075981.4704
  23491333.611   -11688585.491 8  -8772276.47145  23491332.828    23491341.2894
  20284474.207   -20945522.264 9 -15973748.23848  20284474.101    20284479.6044
  23831138.749    -5037633.022 8  -3689483.50245  23831138.426    23831147.7954
  22365775.849   -16998286.832 8 -12898491.99146  22365775.266    22365782.2064
 99  9 17 17 59 30.0000000  0  9 03 08 23 21 17 15 29 09 31
  22496899.205      297864.231 8    251536.50546  22496898.881    22496906.3194
  22635391.570   -11658912.348 8  -9062691.73246  22635390.925    22635399.1164
  22669206.759    10464761.459 8   8158876.17746  22669206.215    22669214.0774
  20644753.747    -8962873.595 9  -6968653.86147  20644753.215    20644759.7114
  24096215.788    18288876.282 7  14269762.59145  24096215.167    24096226.0454
  23471566.862   -11792460.400 8  -8853217.92745  23471566.003    23471574.6074
  20281358.002   -20961898.065 9 -15986508.60148  20281357.858    20281363.3664
  23839200.335    -4995270.181 8  -3656473.53645  23839199.985    23839209.2014
  22368700.451   -16982918.155 8 -12886516.41546  22368699.891    22368706.8124
 99  9 17 18  0  0.0000000  0  9 03 08 23 21 17 15 29 09 31
  22511303.402      373558.573 8    310519.03646  22511303.089    22511310.5304
  22627708.045   -11699289.123 8  -9094154.12746  22627707.414    22627715.6844
  22681219.989    10527891.193 8   8208068.11246  22681219.438    22681227.2884
  20645797.100    -8957390.719 9  -6964381.50047  20645796.572    20645803.0674
  24116492.947    18395432.642 7  14352793.30545  24116492.460    24116503.6554
  23451818.914   -11896236.487 8  -8934082.37945  23451818.104    23451826.6544
  20278338.433   -20977766.113 9 -15998873.30948  20278338.299    20278343.7824
  23847367.192    -4952353.285 8  -3623031.83845  23847366.831    23847376.0354
  22371736.921   -16966961.593 8 -12874082.74246  22371736.319    22371743.2554
 99  9 17 18  0 30.0000000  0  9 03 08 23 21 17 15 29 09 31
  22525774.605      449604.995 8    369775.93346  22525774.301    22525781.7294
  22620127.793   -11739124.578 8  -9125194.71746  22620127.102    22620135.2194
  22693251.352    10591116.230 8   8257334.30846  22693250.799    22693258.7114
  20646883.408    -8951682.306 9  -6959933.39547  20646882.880    20646889.3534
  24136803.853    18502166.253 7  14435962.12645  24136803.208    24136814.6414
  23432090.025   -11999912.144 8  -9014868.57245  23432089.232    23432097.8224
  20275413.294   -20993137.979 9 -16010851.38248  20275413.153    20275418.6014
  23855638.248    -4908888.588 8  -3589163.31745  23855637.856    23855647.1634
  22374885.472   -16950415.762 8 -12861189.91346  22374884.880    22374891.8254
 99  9 17 18  1  0.0000000  0  9 03 08 23 21 17 15 29 09 31
  22540311.476      525996.527 8    429301.71546  22540311.098    22540318.6294
  22612650.259   -11778419.088 8  -9155813.80646  22612649.599    22612657.6594
  22705299.259    10654428.093 8   8306668.16946  22705298.688    22705306.5744
  20648010.959    -8945757.219 9  -6955316.45647  20648010.410    20648016.8564
  24157147.148    18609070.924 7  14519264.22745  24157146.354    24157157.7604
  23412380.238   -12103487.306 8  -9095576.45945  23412379.397    23412388.1144
  20272583.482   -21008008.890 9 -16022439.10248  20272583.342    20272588.7964
  23864011.337    -4864887.832 8  -3554877.07545  23864011.019    23864020.2434
  22378146.726   -16933277.933 8 -12847835.78046  22378146.112    22378153.0404
 99  9 17 18  1 30.0000000  0  9 03 08 23 21 17 15 29 09 31
  22554912.556      602725.376 8    489090.35346  22554912.169    22554919.7374
  22605275.817   -11817172.072 8  -9186010.91346  22605275.173    22605283.1874
  22717366.314    10717840.321 8   8356080.21746  22717365.695    22717373.6564
  20649177.737    -8939625.935 9  -6950538.84247  20649177.182    20649183.6254
  24177521.159    18716136.687 7  14602691.89945  24177520.382    24177531.6664
  23392690.111   -12206959.713 7  -9176204.27045  23392689.258    23392697.9264
  20269848.406   -21022381.872 9 -16033638.82748  20269848.256    20269853.6984
  23872486.163    -4820352.203 8  -3520174.04745  23872485.832    23872495.3004
  22381519.401   -16915554.589 8 -12834025.39846  22381518.777    22381525.6854
 99  9 17 18  2  0.0000000  0  9 03 08 23 21 17 15 29 09 31
  22569575.557      679779.226 8    549132.24546  22569575.118    22569582.6984
  22598003.686   -11855387.871 8  -9215789.44146  22598002.958    22598010.9524
  22729454.075    10781361.657 8   8405577.30246  22729453.507    22729461.4244
  20650383.850    -8933287.922 9  -6945600.14447  20650383.307    20650389.7464
  24197928.883    18823380.674 7  14686258.38344  24197928.134    24197939.9234
  23373019.660   -12310328.792 7  -9256751.55745  23373018.776    23373027.4864
  20267205.456   -21036270.723 9 -16044461.30848  20267205.316    20267210.7274
  23881062.904    -4775281.024 8  -3485053.71045  23881062.564    23881072.1264
  22385001.143   -16897258.082 8 -12819768.41246  22385000.507    22385007.4104
 99  9 17 18  2 30.0000000  0  9 03 08 23 21 17 15 29 09 31
  22584296.939      757140.568 8    609413.73546  22584296.536    22584304.0994
  22590830.556   -11893082.406 8  -9245161.79446  22590829.874    22590837.9404
  22741562.852    10844993.514 8   8455160.49046  22741562.284    22741570.2524
  20651629.957    -8926739.795 9  -6940497.72447  20651629.384    20651635.8214
  24218372.209    18930810.120 7  14769969.37444  24218371.430    24218383.1184
  23353367.807   -12413600.509 8  -9337223.00045  23353366.841    23353375.4484
  20264650.872   -21049695.116 9 -16054921.87348  20264650.734    20264656.1494
  23889742.643    -4729669.197 8  -3449512.11845  23889742.276    23889751.9824
  22388591.656   -16878390.008 8 -12805066.04146  22388591.031    22388597.9354
 99  9 17 18  3  0.0000000  0  9 03 08 23 21 17 15 29 09 31
  22599077.577      834812.775 8    669937.47246  22599077.174    22599084.7284
  22583754.668   -11930266.515 8  -9274136.40846  22583754.002    22583761.9944
  22753692.063    10908732.635 8   8504827.27946  22753691.497    22753699.4474
  20652918.398    -8919969.223 9  -6935221.97147  20652917.813    20652924.2624
  24238848.523    19038412.832 7  14853815.43944  24238847.774    24238859.3634
  23333734.022   -12516776.624 7  -9417619.91445  23333733.093    23333741.5434
  20262183.208   -21062662.738 9 -16065026.51448  20262183.062    20262188.4884
  23898524.094    -4683522.822 8  -3413553.94745  23898523.756    23898533.3174
  22392289.414   -16858958.301 8 -12789924.46146  22392288.801    22392295.7184
 99  9 17 18  3 30.0000000  0  9 03 08 23 21 17 15 29 09 31
  22613918.225      912800.213 8    730706.83046  22613917.800    22613925.3374
  22576776.217   -11966938.137 8  -9302711.67446  22576775.554    22576783.6104
  22765840.705    10972573.777 8   8554573.54146  22765840.097    22765848.0494
  20654253.071    -8912955.538 9  -6929756.77447  20654252.479    20654258.9144
  24259357.866    19146189.701 7  14937797.17245  24259357.196    24259369.1674
  23314118.809   -12619855.414 8  -9497940.99745  23314117.882    23314126.2964
  20259802.767   -21075172.308 9 -16074774.22948  20259802.610    20259808.0234
  23907408.015    -4636838.348 8  -3377176.46845  23907407.596    23907417.1834
  22396091.463   -16838978.523 8 -12774355.81846  22396090.819    22396097.7694
 99  9 17 18  4  0.0000000  0  9 03 08 23 21 17 15 29 09 31
  22628820.717      991113.181 8    791729.84446  22628820.333    22628827.8464
  22569894.841   -12003100.409 8  -9330890.06046  22569894.187    22569902.0174
  22778006.317    11036504.082 8   8604389.30746  22778005.675    22778013.6724
  20655636.874    -8905683.567 9  -6924090.31247  20655636.310    20655642.7464
  24279900.390    19254140.591 7  15021914.53445  24279899.625    24279911.7124
  23294523.205   -12722830.833 8  -9578181.52445  23294522.318    23294530.6634
  20257511.786   -21087211.418 9 -16084155.35348  20257511.636    20257517.0554
  23916397.015    -4589601.251 8  -3340368.36745  23916396.703    23916405.9894
  22399998.657   -16818446.218 8 -12758356.62746  22399998.014    22400005.0034
 99  9 17 18  4 30.0000000  0  9 03 08 23 21 17 15 29 09 31
  22643787.374     1069762.762 8    853015.16646  22643786.972    22643794.4384
  22563112.512   -12038741.908 8  -9358662.64646  22563111.803    22563119.6574
  22790186.629    11100511.557 8   8654265.18746  22790185.992    22790193.9714
  20657069.212    -8898156.886 9  -6918225.38347  20657068.619    20657075.0394
  24300475.444    19362261.839 7  15106164.61545  24300474.640    24300486.6574
  23274949.714   -12825690.248 8  -9658331.66745  23274948.898    23274957.2024
  20255314.935   -21098756.098 9 -16093151.20648  20255314.777    20255320.1984
  23925492.435    -4541804.674 7  -3303124.33045  23925492.047    23925501.5444
  22404011.885   -16797357.078 8 -12741923.55546  22404011.226    22404018.1944
 99  9 17 18  5  0.0000000  0  9 03 08 23 21 17 15 29 09 31
  22658820.373     1148761.208 8    914572.33846  22658819.945    22658827.4354
  22556433.567   -12073839.677 8  -9386011.53146  22556432.847    22556440.8194
  22802382.899    11164602.912 8   8704206.42646  22802382.209    22802390.2164
  20658552.649    -8890361.599 9  -6912151.14947  20658552.052    20658558.4524
  24321080.985    19470542.988 7  15190539.33945  24321080.245    24321092.0804
  23255400.181   -12928423.200 8  -9738383.25245  23255399.352    23255407.6574
  20253213.493   -21109799.129 9 -16101756.16848  20253213.322    20253218.7504
  23934692.329    -4493458.335 8  -3265451.90545  23934692.008    23934701.4414
  22408130.419   -16775714.356 8 -12725059.11446  22408129.744    22408136.7134
 99  9 17 18  5 30.0000000  0  9 03 08 23 21 17 15 29 09 31
  22673916.855     1228093.570 8    976389.68546  22673916.424    22673923.9454
  22549861.960   -12108372.947 8  -9412920.55846  22549861.356    22549869.3664
  22814597.165    11228789.109 8   8754221.56546  22814596.474    22814604.4894
  20660087.428    -8882296.148 9  -6905866.39147  20660086.840    20660093.2644
  24341717.068    19578985.674 7  15275039.89545  24341716.420    24341728.3344
  23235876.341   -13031020.952 8  -9818329.48945  23235875.578    23235883.9834
  20251209.144   -21120332.078 9 -16109963.65648  20251208.970    20251214.4054
  23943997.188    -4444561.878 7  -3227350.81145  23943996.806    23944006.1884
  22412355.859   -16753509.287 8 -12707756.47946  22412355.170    22412362.1884
 99  9 17 18  6  0.0000000  0  9 03 08 23 21 17 15 29 09 31
  22689074.461     1307746.888 8   1038457.12846  22689074.021    22689081.5844
  22543401.379   -12142323.777 8  -9439375.73446  22543400.778    22543408.7494
  22826830.791    11293076.910 8   8804315.88946  22826830.134    22826838.1954
  20661672.732    -8873965.307 9  -6899374.84347  20661672.152    20661678.5754
  24362384.110    19687590.190 7  15359666.58645  24362383.512    24362395.4454
  23216379.823   -13133475.559 8  -9898164.18345  23216379.015    23216387.5484
  20249303.871   -21130344.328 9 -16117765.41548  20249303.709    20249309.1444
  23953404.519    -4395125.721 7  -3188829.24545  23953404.133    23953413.8434
  22416689.837   -16730733.945 8 -12690009.48046  22416689.169    22416696.2064
 99  9 17 18  6 30.0000000  0  9 03 08 23 21 17 15 29 09 31
  22704292.782     1387719.558 8   1100773.41746  22704292.366    22704299.9254
  22537054.439   -12175677.142 8  -9465365.34446  22537053.822    22537061.8304
  22839086.830    11357482.890 8   8854502.29446  22839086.199    22839094.3214
  20663308.082    -8865371.511 9  -6892678.39047  20663307.490    20663313.9014
  24383082.020    19796356.642 7  15444419.45845  24383081.304    24383093.3284
  23196910.854   -13235785.232 8  -9977885.95145  23196910.064    23196918.5994
  20247498.418   -21139831.935 9 -16125158.35748  20247498.259    20247503.6984
  23962909.861    -4345175.162 7  -3149906.77745  23962909.393    23962919.0734
  22421133.333   -16707383.248 8 -12671814.14946  22421132.673    22421139.6974
 99  9 17 18  7  0.0000000  0  9 03 08 23 21 17 15 29 09 31
  22719570.294     1468002.994 8   1163331.86446  22719569.899    22719577.4324
  22530820.775   -12208434.410 8  -9490890.46246  22530820.228    22530828.1984
  22851369.220    11422027.207 8   8904796.48446  22851368.617    22851376.7984
  20664996.138    -8856500.609 9  -6885766.01647  20664995.561    20665001.9844
  24403810.565    19905285.519 7  15529298.86745  24403809.744    24403821.8964
  23177469.009   -13337952.231 8 -10057496.53545  23177468.312    23177476.8354
  20245791.319   -21148802.709 9 -16132148.57148  20245791.170    20245796.6404
  23972510.815    -4294721.714 8  -3110592.45345  23972510.406    23972520.1454
  22425687.313   -16683451.828 8 -12653166.30446  22425686.690    22425693.6744
 99  9 17 18  7 30.0000000  0  9 03 08 23 21 17 15 29 09 31
  22734904.234     1548583.766 8   1226122.00446  22734903.844    22734911.5314
  22524699.815   -12240599.952 8  -9515954.51046  22524699.275    22524707.3084
  22863678.671    11486713.409 8   8955201.23746  22863678.085    22863686.2854
  20666732.620    -8847375.138 9  -6878655.27647  20666732.089    20666738.5204
  24424574.242    20014398.351 7  15614321.65345  24424573.389    24424585.5404
  23158055.084   -13439972.422 8 -10136992.72145  23158054.453    23158062.9454
  20244186.649   -21157235.249 9 -16138719.38748  20244186.521    20244191.9934
  23982209.729    -4243754.063 8  -3070877.45045  23982209.351    23982219.1364
  22430352.225   -16658937.751 8 -12634064.44346  22430351.601    22430358.6134
 99  9 17 18  8  0.0000000  0  9 03 08 23 21 17 15 29 09 31
  22750297.228     1629474.826 8   1289153.92046  22750296.957    22750304.6264
  22518690.072   -12272181.439 8  -9540563.44446  22518689.505    22518697.5164
  22876014.861    11551540.425 8   9005715.72146  22876014.354    22876022.4564
  20668515.978    -8838003.567 9  -6871352.76747  20668515.424    20668521.8924
  24445373.134    20123696.534 7  15699488.86645  24445372.270    24445384.6794
  23138669.107   -13541845.984 8 -10216374.65945  23138668.533    23138677.0404
  20242684.050   -21165131.262 9 -16144872.12648  20242683.932    20242689.4284
  23992008.111    -4192263.831 8  -3030755.22345  23992007.729    23992017.5024
  22435127.555   -16633842.770 8 -12614509.92346  22435126.965    22435133.9944
 99  9 17 18  8 30.0000000  0  9 03 08 23 21 17 15 29 09 31
  22765750.619     1710682.678 8   1352432.69546  22765750.329    22765758.0584
  22512787.111   -12303201.721 8  -9564735.08046  22512786.513    22512794.5444
  22888377.899    11616508.169 8   9056339.85146  22888377.376    22888385.5444
  20670346.365    -8828384.814 9  -6863857.64747  20670345.797    20670352.3004
  24466209.073    20233189.344 7  15784807.72145  24466208.286    24466220.5654
  23119310.594   -13643575.132 8 -10295644.06545  23119309.955    23119318.6714
  20241277.075   -21172524.815 9 -16150633.33948  20241276.976    20241282.4884
  24001907.586    -4140241.682 8  -2990218.56645  24001907.315    24001917.0254
  22440013.288   -16608167.897 8 -12594503.54946  22440012.742    22440019.7734
 99  9 17 18  9  0.0000000  0  9 03 08 23 21 17 15 29 09 31
  22781261.037     1792190.476 8   1415945.18946  22781260.761    22781268.5004
  22506987.140   -12333680.039 8  -9588484.39146  22506986.538    22506994.8154
  22900765.036    11681602.993 8   9107063.01946  22900764.581    22900772.7074
  20672221.244    -8818532.071 9  -6856180.19847  20672220.719    20672227.2614
  24487082.023    20342876.703 7  15870278.19845  24487081.196    24487093.4384
  23099978.732   -13745164.523 8 -10374804.57945  23099978.038    23099986.7944
  20239960.698   -21179442.330 9 -16156023.61248  20239960.607    20239966.1544
  24011909.903    -4087678.556 7  -2949260.32945  24011909.592    24011919.3804
  22445007.314   -16581924.206 8 -12574053.93246  22445006.765    22445013.8244
 99  9 17 18  9 30.0000000  0  8 03 08 23 21 15 29 09 31
  22796829.500     1874003.333 8   1479695.38646  22796829.244    22796837.0184
  22501290.672   -12363614.775 8  -9611810.15946  22501290.131    22501298.3884
  22913173.362    11746808.942 8   9157872.77246  22913172.881    22913181.0554
  20674138.143    -8808458.342 9  -6848330.55447  20674137.652    20674144.2404
  23080673.381   -13846614.895 8 -10453856.75745  23080672.633    23080681.3694
  20238732.622   -21185895.724 9 -16161052.23548  20238732.557    20238738.1234
  24022016.366    -4034568.609 7  -2907875.99145  24022016.134    24022025.9624
  22450108.361   -16555117.705 8 -12553165.76946  22450107.824    22450114.9384
 99  9 17 18 10  0.0000000  0  8 03 08 23 21 15 29 09 31
  22812457.584     1956128.965 8   1543689.30946  22812457.314    22812465.1144
  22495696.632   -12393011.816 8  -9634716.92746  22495696.114    22495704.3114
  22925600.467    11812113.536 8   9208759.39046  22925599.958    22925608.2214
  20676098.288    -8798157.766 9  -6840304.14547  20676097.785    20676104.4034
  23061392.883   -13947934.541 8 -10532807.07745  23061392.121    23061400.8154
  20237585.064   -21191925.974 9 -16165751.13548  20237585.012    20237590.5734
  24032222.299    -3980936.340 7  -2866084.72845  24032221.989    24032232.0894
  22455315.323   -16527754.919 8 -12531844.13746  22455314.809    22455321.9484
 99  9 17 18 10 30.0000000  0  8 03 08 23 21 15 29 09 31
  22828139.477     2038537.551 8   1607903.73046  22828139.208    22828147.0244
  22490201.880   -12421887.000 8  -9657217.06846  22490201.288    22490209.4994
  22938044.195    11877505.755 8   9259714.27646  22938043.683    22938052.0264
  20678099.417    -8787641.766 9  -6832109.87647  20678098.940    20678105.5494
  23042134.164   -14049139.326 8 -10611667.90745  23042133.493    23042142.0884
  20236514.621   -21197551.174 9 -16170134.41048  20236514.582    20236520.1664
  24042522.232    -3926810.380 8  -2823908.69845  24042521.858    24042531.8084
  22460623.085   -16499862.511 8 -12510109.80746  22460622.584    22460629.7404
 99  9 17 18 11  0.0000000  0  8 03 08 23 21 15 29 09 31
  22843872.715     2121216.145 8   1672328.52946  22843872.466    22843880.3544
  22484808.520   -12450229.215 8  -9679301.90746  22484807.991    22484816.2334
  22950502.908    11942976.185 8   9310730.11146  22950502.308    22950510.7434
  20680140.935    -8776913.553 9  -6823750.24547  20680140.467    20680147.0744
  23022896.494   -14150233.904 8 -10690442.84445  23022895.791    23022904.3684
  20235525.628   -21202748.532 9 -16174184.30148  20235525.567    20235531.1284
  24052913.439    -3872204.718 7  -2781358.92345  24052913.025    24052923.1044
  22466029.314   -16471452.372 8 -12487972.04946  22466028.832    22466035.9934
 99  9 17 18 11 30.0000000  0  8 03 08 23 21 15 29 09 31
  22859657.858     2204167.162 8   1736965.61546  22859657.588    22859665.5004
  22479520.196   -12478019.485 8  -9700956.65446  22479519.653    22479527.9534
  22962977.654    12008531.062 8   9361811.75046  22962977.072    22962985.4904
  20682225.850    -8765957.336 9  -6815212.95047  20682225.383    20682231.9634
  23003681.422   -14251209.825 8 -10769125.33945  23003680.724    23003689.1794
  20234622.010   -21207497.055 9 -16177884.45348  20234621.933    20234627.4894
  24063393.647    -3817130.603 7  -2738444.16345  24063393.299    24063403.4134
  22471532.993   -16442530.643 8 -12465435.65746  22471532.511    22471539.6344
 99  9 17 18 12  0.0000000  0  8 03 08 23 21 15 29 09 31
  22875494.865     2287390.814 8   1801815.14146  22875494.554    22875502.4864
  22474338.887   -12505247.033 8  -9722172.92446  22474338.319    22474346.7124
  22975471.567    12074187.085 8   9412972.19546  22975471.012    22975479.5644
  20684357.383    -8754756.407 9  -6806484.97347  20684356.888    20684363.4574
  22984491.842   -14352051.667 8 -10847703.33845  22984491.108    22984499.5284
  20233808.651   -21211771.387 9 -16181215.10248  20233808.586    20233814.1434
  24073963.323    -3761586.870 7  -2695163.40445  24073963.012    24073973.1024
  22477134.047   -16413097.083 8 -12442500.42946  22477133.534    22477140.6354
 99  9 17 18 12 30.0000000  0  8 03 08 23 21 15 29 09 31
  22891382.487     2370880.138 8   1866871.66946  22891382.145    22891390.1154
  22469268.291   -12531893.702 8  -9742936.56946  22469267.739    22469275.9014
  22987986.731    12139953.904 8   9464218.97946  22987986.079    22987994.6874
  20686537.264    -8743301.274 9  -6797558.91447  20686536.759    20686543.3074
  22965330.714   -14452744.193 8 -10926164.99045  22965329.903    22965338.3854
  20233093.031   -21215532.133 9 -16184145.55748  20233092.971    20233098.5064
  24084627.157    -3705548.557 7  -2651497.25245  24084626.850    24084636.6844
  22482834.452   -16383141.412 8 -12419158.37446  22482833.978    22482841.0264
 99  9 17 18 13  0.0000000  0  8 03 08 23 21 15 29 09 31
  22907321.454     2454639.251 8   1932138.44546  22907321.101    22907329.0134
  22464312.373   -12557937.469 8  -9763230.41546  22464311.791    22464319.9154
  23000523.949    12205837.310 8   9515556.60346  23000523.338    23000531.9644
  20688765.976    -8731589.510 9  -6788432.87647  20688765.456    20688772.0114
  22946201.905   -14553266.593 8 -11004494.07145  22946201.046    22946209.5924
  20232478.170   -21218763.291 9 -16186663.34348  20232478.097    20232483.6084
  24095388.866    -3648995.686 7  -2607430.10345  24095388.569    24095398.3764
  22488637.945   -16352644.124 8 -12395394.26546  22488637.460    22488644.4694
 99  9 17 18 13 30.0000000  0  8 03 08 23 21 15 29 09 31
  22923312.595     2538672.724 8   1997619.00846  22923312.271    22923320.1154
  22459471.294   -12583377.851 8  -9783054.08946  22459470.702    22459478.7094
  23013085.815    12271850.360 8   9566995.25246  23013085.282    23013093.8534
  20691043.683    -8719620.110 9  -6779106.09047  20691043.169    20691049.7104
  22927108.096   -14653604.683 8 -11082679.53645  22927107.334    22927115.7924
  20231963.621   -21221467.586 9 -16188770.58848  20231963.513    20231969.0184
  24106251.738    -3591911.816 7  -2562949.26745  24106251.459    24106261.3254
  22494544.973   -16321602.830 8 -12371206.27246  22494544.441    22494551.4224
 99  9 17 18 14  0.0000000  0  8 03 08 23 21 15 29 09 31
  22939355.305     2622977.527 8   2063310.98946  22939354.955    22939362.8344
  22454743.920   -12608220.523 8  -9802412.01146  22454743.305    22454751.2704
  23025670.601    12337983.503 8   9618527.48346  23025670.030    23025678.6214
  20693368.335    -8707404.374 9  -6769587.35047  20693367.800    20693374.3024
  22908049.418   -14753758.615 8 -11160721.49545  22908048.687    22908057.1114
  20231546.125   -21223661.492 9 -16190480.12748  20231546.032    20231551.5064
  24117218.515    -3534280.797 7  -2518042.08945  24117218.149    24117228.2854
  22500556.738   -16290011.127 8 -12346589.38646  22500556.179    22500563.1344
 99  9 17 18 14 30.0000000  0  8 03 08 23 21 15 29 09 31
  22955447.708     2707543.345 8   2129206.35546  22955447.375    22955455.3314
  22450128.963   -12632472.135 8  -9821309.35446  22450128.350    22450136.3914
  23038275.991    12404224.361 8   9670143.64946  23038275.423    23038283.9324
  20695738.721    -8694948.104 9  -6759881.18547  20695738.169    20695744.6714
  22889024.716   -14853734.056 8 -11238624.36145  22889023.968    22889032.3674
  20231221.749   -21225366.221 9 -16191808.49048  20231221.627    20231227.0924
  24128289.514    -3476101.513 7  -2472707.71145  24128289.302    24128299.3894
  22506673.885   -16257865.686 8 -12321541.01046  22506673.314    22506680.1984
 99  9 17 18 15  0.0000000  0  8 03 08 23 21 15 29 09 31
  22971589.679     2792369.595 8   2195304.64946  22971589.300    22971597.2694
  22445622.997   -12656151.801 8  -9839761.03546  22445622.349    22445630.3884
  23050900.124    12470563.770 8   9721836.60046  23050899.494    23050907.9944
  20698154.451    -8682253.613 9  -6749989.39147  20698153.886    20698160.3984
  22870032.665   -14953537.559 8 -11316393.24745  22870031.947    22870040.3064
  20230987.153   -21226599.276 9 -16192769.31648  20230987.019    20230992.4714
  24139462.015    -3417391.109 7  -2426959.29945  24139461.708    24139471.6194
  22512894.972   -16225173.705 8 -12296066.76146  22512894.378    22512901.2614
 99  9 17 18 15 30.0000000  0  8 03 08 23 21 15 29 09 31
  22987783.795     2877469.802 8   2261616.42246  22987783.398    22987791.3964
  22441223.513   -12679271.594 8  -9857776.46346  22441222.864    22441230.8314
  23063541.450    12536993.939 8   9773600.27346  23063540.823    23063549.3914
  20700615.935    -8669318.499 9  -6739910.09947  20700615.382    20700621.8784
  22851071.570   -15053178.352 8 -11394035.35545  22851070.843    22851079.2134
  20230840.208   -21227371.640 9 -16193371.16048  20230840.071    20230845.5014
  24150732.766    -3358163.503 8  -2380808.12145  24150732.455    24150742.7354
  22519218.877   -16191941.527 8 -12270171.58646  22519218.270    22519225.1574
 99  9 17 18 16  0.0000000  0  8 03 08 23 21 15 29 09 31
  23004029.261     2962840.112 8   2328138.67146  23004028.892    23004036.8964
  22436929.559   -12701836.916 8  -9875359.82046  22436928.898    22436936.7264
  23076197.595    12603501.486 8   9825424.24246  23076196.851    23076205.4524
  20703122.758    -8656145.214 9  -6729645.21947  20703122.197    20703128.6794
  22832140.175   -15152663.409 8 -11471556.10245  22832139.469    22832147.7414
  20230781.156   -21227682.082 9 -16193613.06548  20230781.002    20230786.4394
  24162097.903    -3298440.131 8  -2334270.50145  24162097.578    24162107.6834
  22525646.753   -16158162.750 8 -12243850.48446  22525646.149    22525653.0544
 99  9 17 18 16 30.0000000  0  8 03 08 23 21 15 29 09 31
  23020325.989     3048479.983 8   2394870.96046  23020325.670    23020333.6844
  22432740.522   -12723849.943 8  -9892512.82346  22432739.848    22432747.7414
  23088870.779    12670099.794 8   9877318.92246  23088870.098    23088878.7604
  20705675.815    -8642728.955 9  -6719191.01047  20705675.259    20705681.7044
  22813239.065   -15251989.167 8 -11548952.73845  22813238.413    22813246.6104
  20230814.931   -21227504.558 9 -16193474.74048  20230814.778    20230820.2074
  24173553.774    -3238239.550 8  -2287360.92845  24173553.407    24173563.1624
  22532177.785   -16123842.096 8 -12217107.14846  22532177.188    22532184.0784
 99  9 17 18 17  0.0000000  0  8 03 08 23 21 15 29 09 31
  23036675.306     3134395.971 8   2461818.39446  23036674.992    23036683.0904
  22428659.432   -12745295.570 8  -9909223.68346  22428658.793    22428666.7044
  23101564.576    12736805.909 8   9929297.62946  23101563.940    23101572.6434
  20708276.372    -8629063.159 9  -6708542.35747  20708275.799    20708282.2494
  22794370.441   -15351144.353 8 -11626216.45645  22794369.746    22794377.8964
  20230943.949   -21226826.521 9 -16192946.40148  20230943.819    20230949.2584
  24185101.639    -3177555.791 7  -2240075.03645  24185101.262    24185111.3964
  22538810.867   -16088984.916 8 -12189945.73346  22538810.306    22538817.2264
 99  9 17 18 17 30.0000000  0  8 03 08 23 21 15 29 09 31
  23053075.448     3220579.098 8   2528974.00046  23053075.099    23053083.2444
  22424691.434   -12766146.932 8  -9925471.48946  22424690.810    22424698.9094
  23114280.225    12803627.179 8   9981366.06846  23114279.697    23114288.3224
  20710925.766    -8615140.612 9  -6697693.63547  20710925.195    20710931.6364
  22775535.597   -15450122.066 8 -11703341.88345  22775534.895    22775543.0474
  20231167.084   -21225653.918 9 -16192032.69048  20231166.955    20231172.4004
  24196741.540    -3116387.585 7  -2192411.65045  24196740.976    24196751.3224
  22545544.780   -16053598.178 8 -12162371.67246  22545544.224    22545551.1514
 99  9 17 18 18  0.0000000  0  8 03 08 23 21 15 29 09 31
  23069522.379     3307008.263 8   2596321.32946  23069522.092    23069530.2144
  22420839.572   -12786388.938 8  -9941244.47546  22420838.966    22420846.9684
  23127017.941    12870563.980 8  10033524.51046  23127017.439    23127026.1094
  20713624.671    -8600957.971 9  -6686642.24747  20713624.106    20713630.5164
  22756735.800   -15548915.508 8 -11780323.72345  22756735.061    22756743.2294
  20231486.062   -21223977.841 9 -16190726.66148  20231485.924    20231491.3364
  24208473.526    -3054736.389 8  -2144371.75145  24208473.042    24208483.1114
  22552377.635   -16017691.544 8 -12134392.50346  22552377.084    22552384.0164
 99  9 17 18 18 30.0000000  0  8 03 08 23 21 15 29 09 31
  23086015.127     3393677.853 8   2663855.98646  23086014.785    23086023.0004
  22417107.484   -12806001.380 8  -9956526.87846  22417106.830    22417114.8444
  23139779.361    12937624.680 8  10085779.51346  23139778.854    23139787.4124
  20716374.485    -8586507.516 9  -6675382.16947  20716373.923    20716380.3324
  22737973.261   -15647512.953 8 -11857152.82545  22737972.509    22737980.6294
  20231900.090   -21221802.130 9 -16189031.30748  20231899.957    20231905.3714
  24220301.220    -2992581.609 7  -2095939.55645  24220300.726    24220311.0394
  22559308.088   -15981272.037 8 -12106013.70046  22559307.516    22559314.4854
 99  9 17 18 19  0.0000000  0  8 03 08 23 21 15 29 09 31
  23102552.066     3480579.744 8   2731571.66346  23102551.686    23102559.8914
  22413495.990   -12824979.532 8  -9971315.02346  22413495.420    22413503.4264
  23152562.718    13004801.534 8  10138125.01746  23152562.184    23152570.8214
  20719175.567    -8571787.855 9  -6663912.31747  20719175.004    20719181.4204
  22719248.690   -15745911.041 8 -11933826.59846  22719247.952    22719256.0824
  20232403.728   -21219155.628 9 -16186969.10548  20232403.578    20232408.9954
  24232226.305    -2929914.402 8  -2047108.08345  24232226.098    24232236.2754
  22566336.482   -15944337.934 8 -12077233.90446  22566335.921    22566342.8704
 99  9 17 18 19 30.0000000  0  8 03 08 23 21 15 29 09 31
  23119131.055     3567702.423 8   2799459.39346  23119130.649    23119138.8054
  22410001.806   -12843341.458 8  -9985622.99846  22410001.249    22410009.2444
  23165366.960    13072087.186 8  10190555.31946  23165366.410    23165375.0164
  20722026.647    -8556805.408 9  -6652237.69647  20722026.080    20722032.5284
  22700561.467   -15844113.045 8 -12010347.57446  22700560.689    22700568.8554
  20232996.194   -21216042.074 9 -16184542.96648  20232996.078    20233001.4994
  24244244.082    -2866761.900 7  -1997898.33645  24244243.879    24244253.8574
  22573463.959   -15906883.003 8 -12048048.27446  22573463.367    22573470.3674
 99  9 17 18 20  0.0000000  0  8 03 08 23 21 15 29 09 31
  23135752.973     3655050.519 8   2867522.76246  23135752.521    23135760.6534
  22406621.071   -12861107.296 8  -9999466.48846  22406620.429    22406628.4934
  23178191.244    13139478.892 8  10243068.23146  23178190.692    23178199.3104
  20724925.540    -8541571.610 9  -6640367.21947  20724924.993    20724931.4434
  22681911.551   -15942118.662 8 -12086715.52446  22681910.810    22681918.9634
  20233679.988   -21212448.693 9 -16181742.93648  20233679.855    20233685.2774
  24256353.715    -2803125.171 7  -1948311.36745  24256353.475    24256363.4774
  22580692.658   -15868896.195 8 -12018448.19746  22580692.082    22580699.0884
 99  9 17 18 20 30.0000000  0  8 03 08 23 21 15 29 09 31
  23152419.430     3742632.827 8   2935768.63246  23152418.954    23152427.1304
  22403351.604   -12878288.631 8 -10012854.52246  22403351.003    22403358.9154
  23191038.076    13206989.063 8  10295673.45146  23191037.469    23191046.1984
  20727872.978    -8526082.739 9  -6628297.98447  20727872.422    20727878.8904
  22663299.621   -16039924.498 8 -12162927.79646  22663298.865    22663307.0524
  20234452.254   -21208390.362 9 -16178580.60448  20234452.130    20234457.5654
  24268554.687    -2739009.505 7  -1898351.08945  24268554.470    24268564.3654
  22588023.443   -15830372.736 8 -11988429.94746  22588022.857    22588029.8884
 99  9 17 18 21  0.0000000  0  9 03 08 23 21 15 29 25 09 31
  23169130.441     3830449.584 8   3004197.19146  23169130.015    23169138.2424
  22400191.691   -12894894.167 8 -10025793.87846  22400191.061    22400198.9834
  23203907.452    13274618.026 8  10348371.26346  23203906.879    23203915.5964
  20730869.690    -8510335.053 9  -6616027.07447  20730869.118    20730875.5774
  22644725.733   -16137530.860 8 -12238984.62946  22644724.973    22644733.1104
  20235312.201   -21203871.332 9 -16175059.28448  20235312.085    20235317.5344
  24722800.226    -5304923.754 7  -4120107.90145  24722799.753    24722810.5194
  24280842.343    -2674437.107 7  -1848035.07445  24280842.043    24280852.2674
  22595456.261   -15791313.312 8 -11957994.05846  22595455.651    22595462.7204
 99  9 17 18 21 30.0000000  0  9 03 08 23 21 15 29 25 09 31
  23185885.259     3918496.686 8   3072805.23846  23185884.896    23185893.1094
  22397139.490   -12910933.136 8 -10038291.75646  22397138.854    22397146.8054
  23216797.324    13342354.458 8  10401152.79346  23216796.736    23216805.5824
  20733913.202    -8494341.368 9  -6603564.47447  20733912.641    20733919.1214
  22626188.191   -16234946.156 8 -12314892.57646  22626187.416    22626195.5304
  20236260.538   -21198887.808 9 -16171176.02348  20236260.428    20236265.8774
  24703431.858    -5406704.337 7  -4199417.28745  24703431.391    24703442.1424
  24293214.066    -2609423.228 7  -1797374.94745  24293213.767    24293223.7114
  22602987.449   -15751736.724 8 -11927155.18546  22602986.827    22602993.8864
 99  9 17 18 22  0.0000000  0  9 03 08 23 21 15 29 25 09 31
  23202684.431     4006777.133 8   3141595.11046  23202684.106    23202692.3334
  22394197.967   -12926390.682 8 -10050336.58446  22394197.369    22394205.3754
  23229706.199    13410191.307 8  10454012.58146  23229705.649    23229714.5704
  20737003.556    -8478101.379 9  -6590909.95247  20737003.001    20737009.4824
  22607688.226   -16332163.899 8 -12390646.58346  22607687.444    22607695.5274
  20237296.799   -21193442.112 9 -16166932.63348  20237296.701    20237302.1474
  24684053.768    -5508536.215 7  -4278766.63545  24684053.285    24684064.0054
  24305674.436    -2543944.143 7  -1746352.27245  24305674.082    24305684.0554
  22610615.249   -15711652.527 8 -11895920.78246  22610614.637    22610621.7214
 99  9 17 18 22 30.0000000  0  9 03 08 23 21 15 29 25 09 31
  23219525.824     4095278.919 8   3210557.45046  23219525.487    23219533.7304
  22391369.706   -12941253.291 8 -10061917.81746  22391369.077    22391377.0564
  23242635.015    13478132.448 8  10506953.62746  23242634.519    23242643.4554
  20740141.167    -8461612.963 9  -6578061.85047  20740140.649    20740147.1264
  22589227.445   -16429175.707 8 -12466240.13346  22589226.684    22589234.7314
  20238419.119   -21187544.348 9 -16162336.97848  20238419.014    20238424.4784
  24664665.751    -5610420.253 8  -4358156.63145  24664665.358    24664675.9144
  24318224.570    -2477992.812 7  -1694961.63745  24318224.303    24318234.3064
  22618338.288   -15671067.371 8 -11864296.01146  22618337.691    22618344.7384
 99  9 17 18 23  0.0000000  0  9 03 08 23 21 15 29 25 09 31
  23236407.687     4183993.254 8   3279685.42246  23236407.360    23236415.6634
  22388653.950   -12955524.829 8 -10073038.48546  22388653.328    22388661.3174
  23255583.470    13546176.757 8  10559975.06846  23255582.886    23255591.8894
  20743324.560    -8444884.058 9  -6565026.35447  20743324.065    20743330.5694
  22570805.716   -16525982.021 8 -12541673.55746  22570805.007    22570813.0364
  20239630.231   -21181179.819 9 -16157377.60848  20239630.146    20239635.6114
  24645265.563    -5712368.044 8  -4437596.32845  24645265.208    24645275.7094
  24330864.455    -2411569.067 7  -1643202.99845  24330864.164    24330874.5054
  22626156.792   -15629980.705 8 -11832280.45346  22626156.217    22626163.2774
 99  9 17 18 23 30.0000000  0  9 03 08 23 21 15 29 25 09 31
  23253331.730     4272929.558 8   3348986.34746  23253331.463    23253339.7734
  22386051.910   -12969198.946 8 -10083693.63246  22386051.319    22386059.2844
  23268552.071    13614326.594 8  10613078.75746  23268551.427    23268560.4004
  20746552.312    -8427922.036 9  -6551809.21247  20746551.801    20746558.3264
  22552424.133   -16622577.549 8 -12616942.71846  22552423.432    22552431.5224
  20240930.333   -21174347.629 9 -16152053.83148  20240930.236    20240935.7234
  24625855.673    -5814367.337 7  -4517076.14445  24625855.355    24625865.7904
  24343595.458    -2344667.629 7  -1591072.08345  24343595.081    24343605.5274
  22634071.656   -15588387.546 8 -11799870.23546  22634071.079    22634078.1854
 99  9 17 18 24  0.0000000  0  9 03 08 23 21 15 29 25 09 31
  23270294.635     4362069.985 8   3418446.33446  23270294.390    23270302.7954
  22383564.178   -12982271.624 8 -10093880.11146  22383563.552    22383571.5594
  23281539.135    13682574.357 8  10666258.71546  23281538.476    23281547.6394
  20749825.151    -8410723.222 9  -6538407.55447  20749824.665    20749831.1934
  22534082.592   -16718962.633 8 -12692047.90546  22534081.880    22534090.0014
  20242316.903   -21167061.184 9 -16146376.08648  20242316.816    20242322.3124
  24606439.663    -5916398.492 7  -4596580.78745  24606439.457    24606449.6984
  24356416.262    -2277293.286 7  -1538572.73245  24356415.813    24356426.4524
  22642082.604   -15546289.715 8 -11767066.75846  22642082.073    22642089.1924
 99  9 17 18 24 30.0000000  0  9 03 08 23 21 15 29 25 09 31
  23287294.620     4451405.242 8   3488058.14646  23287294.382    23287302.8214
  22381190.179   -12994746.422 8 -10103600.73246  22381189.585    22381197.6644
  23294545.413    13750922.512 8  10719516.93346  23294544.822    23294553.8664
  20753143.912    -8393282.786 9  -6524817.62447  20753143.418    20753149.9854
  22515780.145   -16815142.162 8 -12766992.92546  22515779.410    22515787.5654
  20243789.819   -21159320.813 9 -16140344.63648  20243789.756    20243795.2624
  24587020.097    -6018448.155 7  -4676099.85045  24587019.881    24587030.0594
  24369324.395    -2209461.306 7  -1485716.71145  24369324.128    24369334.5804
  22650187.196   -15503699.723 8 -11733879.77946  22650186.682    22650193.8374
 99  9 17 18 25  0.0000000  0  9 03 08 23 21 15 29 25 09 31
  23304334.300     4540949.363 8   3557832.71246  23304334.035    23304342.5044
  22378930.740   -13006619.898 8 -10112852.77046  22378930.169    22378938.2274
  23307570.258    13819368.810 8  10772851.60346  23307569.695    23307578.8354
  20756511.560    -8375585.505 9  -6511027.55847  20756511.077    20756517.6544
  22497516.598   -16911117.327 8 -12841778.69346  22497515.904    22497524.0754
  20245348.884   -21151127.812 9 -16133960.48248  20245348.807    20245354.3544
  24567597.147    -6120515.493 7  -4755632.67845  24567596.997    24567606.9724
  24382317.529    -2141182.319 7  -1432512.44045  24382317.313    24382327.7794
  22658384.206   -15460623.958 8 -11700314.26746  22658383.688    22658390.8654
 99  9 17 18 25 30.0000000  0  9 03 08 23 21 15 29 25 09 31
  23321413.470     4630700.868 8   3627768.86846  23321413.232    23321421.6694
  22376789.611   -13017872.261 8 -10121620.83446  22376788.951    22376796.8744
  23320611.171    13887898.375 8  10826251.19246  23320610.627    23320619.6734
  20759928.627    -8357628.840 9  -6497035.37647  20759928.171    20759934.7484
  22479292.647   -17006884.440 8 -12916402.35646  22479291.970    22479300.1054
  20246991.372   -21142496.470 9 -16127234.76348  20246991.320    20246996.8744
  24548174.019    -6222584.055 7  -4835166.46645  24548173.803    24548183.8884
  24395396.768    -2072450.677 7  -1378955.37045  24395396.547    24395406.6184
  22666673.422   -15417063.736 8 -11666371.26746  22666672.909    22666680.0834
 99  9 17 18 26  0.0000000  0  9 03 08 23 21 15 29 25 09 31
  23338528.111     4720638.531 8   3697850.07246  23338527.893    23338536.3774
  22374765.887   -13028507.229 8 -10129907.81646  22374765.282    22374773.1154
  23333667.437    13956509.723 8  10879714.47346  23333666.979    23333676.0884
  20763394.449    -8339415.742 9  -6482843.37347  20763394.011    20763400.6074
  22461108.506   -17102442.587 8 -12990863.18646  22461107.839    22461115.9734
  20248719.075   -21133417.247 9 -16120160.04648  20248719.014    20248724.5934
  24528751.845    -6324647.696 7  -4914696.41345  24528751.629    24528761.7704
  24408562.888    -2003262.638 7  -1325042.53745  24408562.504    24408572.5074
  22675052.938   -15373029.184 8 -11632058.66246  22675052.438    22675059.6384
 99  9 17 18 26 30.0000000  0  9 03 08 23 21 15 29 25 09 31
  23355679.801     4810770.769 8   3768082.90746  23355679.589    23355688.0774
  22372858.805   -13038528.971 8 -10137716.95446  22372858.203    22372865.9884
  23346743.334    14025223.194 8  10933257.35046  23346742.856    23346751.9354
  20766906.510    -8320959.817 9  -6468462.15747  20766906.080    20766912.6834
  22442964.885   -17197787.883 8 -13065158.16946  22442964.199    22442972.2894
  20250532.393   -21123888.234 9 -16112734.84448  20250532.348    20250537.9264
  24509325.829    -6426731.641 7  -4994242.18545  24509325.697    24509335.6494
  24421814.614    -1933624.290 8  -1270779.04645  24421814.359    24421824.6774
  22683524.849   -15328509.078 8 -11597367.69746  22683524.333    22683531.5414
 99  9 17 18 27  0.0000000  0  9 03 08 23 21 15 29 25 09 31
  23372867.212     4901090.900 8   3838462.12646  23372867.011    23372875.4624
  22371067.792   -13047941.420 8 -10145051.32846  22371067.162    22371074.7904
  23359838.689    14094038.552 8  10986879.59646  23359838.040    23359847.2184
  20770462.289    -8302274.376 9  -6453902.09847  20770461.828    20770468.4364
  22424862.937   -17292914.137 8 -13139282.45846  22424862.231    22424870.3554
  20252430.674   -21113912.683 9 -16104961.69148  20252430.634    20252436.2174
  24489893.816    -6528846.829 7  -5073812.31145  24489893.660    24489903.6434
  24435151.588    -1863539.186 7  -1216167.34045  24435151.207    24435161.4324
  22692091.999   -15283488.511 8 -11562286.77046  22692091.482    22692098.6624
 99  9 17 18 27 30.0000000  0  9 03 08 23 21 15 29 25 09 31
  23390085.603     4991573.706 8   3908968.10746  23390085.381    23390093.8014
  22369390.799   -13056753.773 8 -10151918.09446  22369390.173    22369397.8014
  23372953.276    14162955.546 8  11040581.05445  23372952.622    23372961.7254
  20774057.615    -8283381.030 9  -6439180.03647  20774057.129    20774063.7334
  22406803.557   -17387816.595 8 -13213232.36746  22406802.863    22406810.9044
  20254415.977   -21103479.957 9 -16096832.29548  20254415.930    20254421.4744
  24470456.682    -6630989.187 8  -5153403.62045  24470456.506    24470466.4654
  24448575.209    -1792998.28016  -1161200.40444  24448575.071    24448585.1654
  22700754.934   -15237964.660 8 -11526813.66246  22700754.435    22700761.6084
 99  9 17 18 28  0.0000000  0  9 03 08 23 21 15 29 25 09 31
  23407334.093     5082214.363 8   3979597.07246  23407333.820    23407342.1874
  22367825.715   -13064977.961 8 -10158326.55446  22367825.097    22367832.8184
  23386089.618    14231987.194 8  11094371.85245  23386089.017    23386098.1004
  20777693.361    -8264275.281 9  -6424292.46547  20777692.872    20777699.4924
  22388788.208   -17482487.724 8 -13287002.02046  22388787.455    22388795.4454
  20256491.751   -21092571.896 9 -16088332.51148  20256491.683    20256497.2354
  24451012.290    -6733169.264 7  -5233024.32745  24451012.207    24451022.2124
  24462086.960    -1721992.594 7  -1105871.15145  24462087.829    24462097.6174
  22709512.076   -15191945.722 8 -11490954.77046  22709511.582    22709518.7484
 99  9 17 18 28 30.0000000  0  9 03 08 23 21 15 29 25 09 31
  23424613.986     5173020.139 8   4050354.70846  23424613.727    23424622.1124
  22366374.081   -13072606.399 8 -10164270.78946  22366373.422    22366381.2874
  23399248.159    14301135.299 8  11148253.37745  23399247.597    23399256.6634
  20781372.680    -8244940.436 9  -6409226.38447  20781372.185    20781378.7994
  22370817.426   -17576924.777 8 -13360589.28446  22370816.646    22370824.6034
  20258658.225   -21081187.070 9 -16079461.22148  20258658.143    20258663.7034
  24431559.099    -6835396.037 7  -5312681.42245  24431558.914    24431569.0354
  24475689.052    -1650515.834 7  -1050175.06045  24475689.453    24475699.5134
  22718362.926   -15145434.691 8 -11454712.44746  22718362.385    22718369.5944
 99  9 17 18 29  0.0000000  0  9 03 08 23 21 15 29 25 09 31
  23441925.229     5263990.759 8   4121240.77746  23441924.953    23441933.3764
  22365037.556   -13079629.559 8 -10169743.37846  22365036.917    22365044.9474
  23412426.419    14370387.180 8  11202215.79145  23412425.835    23412434.9964
  20785101.170    -8225347.146 9  -6393958.91447  20785100.684    20785107.3044
  22352892.886   -17671118.604 8 -13433987.01946  22352892.125    22352900.0364
  20260918.825   -21069307.677 9 -16070204.55448  20260918.718    20260924.2464
  24412103.336    -6937636.552 7  -5392349.21645  24412103.083    24412113.0694
  24489382.102    -1578559.282 7   -994105.25745  24489382.264    24489392.6474
  22727303.200   -15098453.657 8 -11418103.87646  22727302.656    22727309.8814
 99  9 17 18 29 30.0000000  0  9 03 08 23 21 15 29 25 09 31
  23459272.046     5355148.336 8   4192272.52746  23459271.784    23459280.2374
  22363820.775   -13086024.087 8 -10174726.13046  22363820.119    22363828.1934
  23425626.658    14439754.678 8  11256268.27045  23425626.016    23425635.3344
  20788882.198    -8205477.957 9  -6378476.45447  20788881.677    20788888.3104
  22335016.249   -17765060.800 8 -13507188.67646  22335015.511    22335023.3224
  20263274.417   -21056929.160 9 -16060558.96248  20263274.317    20263279.8324
  24392648.246    -7039873.444 7  -5472014.20445  24392647.911    24392657.7794
  24503166.718    -1506122.022 8   -937660.87445  24503166.651    24503177.0964
  22736330.558   -15051014.760 8 -11381138.53946  22736329.997    22736337.2274
 99  9 17 18 30  0.0000000  0  9 03 08 23 21 15 29 25 09 31
  23476658.002     5446511.419 8   4263464.39446  23476657.738    23476666.1614
  22362724.766   -13091783.585 8 -10179214.04846  22362724.149    22362732.2104
  23438850.579    14509245.863 8  11310417.13845  23438849.872    23438859.1294
  20792720.612    -8185307.181 9  -6362758.98947  20792720.089    20792726.7144
  22317187.615   -17858750.562 8 -13580193.62546  22317186.893    22317194.6914
  20265721.868   -21044067.813 9 -16050537.13648  20265721.743    20265727.2424
  24373195.464    -7142097.737 7  -5551669.37845  24373195.218    24373205.0974
  24517039.405    -1433221.129 7   -880854.86345  24517039.207    24517048.7974
  22745444.088   -15003123.066 8 -11343820.37346  22745443.507    22745450.6994
 99  9 17 18 30 30.0000000  0 10 03 08 23 21 15 29 25 09 01 31
  23494085.872     5538094.571 8   4334827.73746  23494085.563    23494094.0114
  22361752.613   -13096891.894 8 -10183194.56246  22361752.041    22361760.1414
  23452098.846    14578866.020 8  11364666.50745  23452098.210    23452107.4744
  20796618.398    -8164824.271 9  -6346798.30947  20796617.841    20796624.5134
  22299409.472   -17952175.065 8 -13652991.86846  22299408.730    22299416.5604
  20268260.340   -21030728.194 9 -16040142.63248  20268260.215    20268265.6984
  24353750.235    -7244282.207 7  -5631293.53445  24353750.060    24353759.9504
  24530999.090    -1359862.304 7   -823692.22445  24530998.982    24531009.2074
  24653559.908    -4900761.183 7  -3798104.89945  24653559.646    24653570.0964
  22754647.207   -14954760.566 8 -11306135.34146  22754646.606    22754653.7954
 99  9 17 18 31  0.0000000  0 10 03 08 23 21 15 29 25 09 01 31
  23511552.100     5629879.396 8   4406348.26346  23511551.752    23511560.1694
  22360900.630   -13101369.132 8 -10186683.31846  22360900.021    22360908.2244
  23465368.155    14648596.003 8  11419001.47245  23465367.564    23465376.6844
  20800568.573    -8144066.204 9  -6330623.21347  20800568.006    20800574.7064
  22281680.081   -18045343.404 8 -13725590.52146  22281679.374    22281687.1694
  20270884.274   -21016939.398 9 -16029398.11648  20270884.149    20270889.6464
  24334313.404    -7346423.178 7  -5710883.80545  24334313.195    24334323.1784
  24545038.546    -1286085.171 7   -766203.79645  24545038.493    24545048.9574
  24633902.680    -5004060.285 7  -3878597.58845  24633902.394    24633912.8954
  22763938.955   -14905932.183 8 -11268087.28846  22763938.413    22763945.5694
 99  9 17 18 31 30.0000000  0 10 03 08 23 21 15 29 25 09 01 31
  23529052.149     5721842.254 8   4478007.52146  23529051.767    23529060.2674
  22360165.090   -13105234.255 8 -10189695.11746  22360164.510    22360172.6954
  23478656.801    14718428.292 8  11473416.13945  23478656.174    23478665.3474
  20804565.733    -8123061.129 9  -6314255.64947  20804565.169    20804571.8574
  22263996.938   -18138268.907 8 -13797999.94846  22263996.216    22264003.9714
  20273587.988   -21002731.440 9 -16018326.98948  20273587.837    20273593.3324
  24314883.585    -7448527.600 7  -5790445.59845  24314883.336    24314893.2454
  24559154.268    -1211906.743 7   -708402.63445  24559154.212    24559164.8604
  24614274.928    -5107204.282 7  -3958969.41945  24614274.553    24614285.0934
  22773321.089   -14856628.888 8 -11229669.17146  22773320.519    22773327.6904
 99  9 17 18 32  0.0000000  0  9 03 08 23 21 15 29 25 01 31
  23546585.172     5813978.413 8   4549801.80546  23546584.798    23546593.3124
  22359546.124   -13108487.420 8 -10192230.05946  22359545.489    22359553.6584
  23491966.162    14788368.344 8  11527914.81645  23491965.490    23491974.5934
  20808612.276    -8101796.657 9  -6297685.94847  20808611.688    20808618.3834
  22246364.328   -18230928.922 8 -13870202.49546  22246363.573    22246371.3204
  20276374.356   -20988089.010 9 -16006917.30948  20276374.228    20276379.6994
  24295464.289    -7550576.085 7  -5869963.80045  24295464.050    24295473.8444
  24594676.929    -5210191.970 7  -4039219.45445  24594676.669    24594687.2174
  22782800.851   -14806812.681 8 -11190851.38646  22782800.285    22782807.4414
 99  9 17 18 32 30.0000000  0  9 03 08 23 21 15 29 25 01 31
  23564143.630     5906248.105 8   4621700.15546  23564143.193    23564151.8234
  22359039.095   -13111152.554 8 -10194306.79346  22359038.400    22359046.4724
  23505287.625    14858372.228 8  11582463.17845  23505286.908    23505296.0704
  20812700.268    -8080314.098 9  -6280946.31547  20812699.708    20812706.3814
  22228777.498   -18323348.148 8 -13942217.41346  22228776.778    22228784.4824
  20279239.517   -20973032.815 9 -15995185.21748  20279239.355    20279244.8214
  24276050.189    -7652597.640 7  -5949461.01045  24276049.861    24276059.7334
  24575103.224    -5313052.207 7  -4119370.17945  24575102.910    24575113.4404
  22792373.743   -14756507.141 8 -11151652.30346  22792373.149    22792380.3114
 99  9 17 18 33  0.0000000  0  9 03 08 23 21 15 29 25 01 31
  23581725.171     5998639.440 8   4693693.29745  23581724.722    23581733.4594
  22358644.810   -13113224.924 8 -10195921.64046  22358644.132    22358652.0574
  23518622.775    14928448.581 8  11637068.03045  23518622.136    23518631.3034
  20816832.093    -8058601.504 9  -6264027.42847  20816831.527    20816838.1904
  22211236.029   -18415529.207 8 -14014046.75046  22211235.262    22211242.9384
  20282182.642   -20957566.653 9 -15983133.66848  20282182.457    20282187.8974
  24256639.867    -7754598.663 7  -6028942.22445  24256639.667    24256649.3884
  24555550.146    -5415803.899 7  -4199436.30445  24555549.837    24555560.3034
  22802036.850   -14705727.451 8 -11112083.74346  22802036.219    22802043.3984
 99  9 17 18 33 30.0000000  0  9 03 08 23 21 15 29 25 01 31
  23599328.576     6091145.618 8   4765775.90545  23599328.125    23599336.8864
  22358365.848   -13114691.473 8 -10197064.40946  22358365.136    22358372.9324
  23531971.239    14998595.021 8  11691727.44745  23531970.545    23531979.8784
  20821012.390    -8036634.188 9  -6246910.06047  20821011.803    20821018.4454
  22193740.639   -18507467.894 8 -14085687.22446  22193739.913    22193747.5384
  20285203.773   -20941690.661 9 -15970762.77248  20285203.586    20285209.0244
  24237230.806    -7856593.536 7  -6108418.63845  24237230.714    24237240.4354
  24536016.431    -5518454.049 7  -4279423.30845  24536015.990    24536026.4794
  22811788.858   -14654480.875 8 -11072151.38746  22811788.217    22811795.3784
 99  9 17 18 34  0.0000000  0  9 03 08 23 21 15 29 25 01 31
  23616955.374     6183775.046 8   4837954.56945  23616954.952    23616963.7624
  22358204.271   -13115540.866 8 -10197726.28346  22358203.528    22358211.2604
  23545334.507    15068819.332 8  11746447.60445  23545333.894    23545343.2304
  20825241.208    -8014411.864 9  -6229593.98747  20825240.626    20825247.2644
  22176293.396   -18599153.567 8 -14157130.55946  22176292.652    22176300.2484
  20288304.801   -20925394.758 9 -15958064.67248  20288304.609    20288310.0314
  24217822.467    -7958585.340 7  -6187892.68445  24217822.211    24217831.9414
  24516505.875    -5620982.377 7  -4359315.38545  24516505.387    24516515.8684
  22821626.861   -14602781.862 8 -11031866.48446  22821626.217    22821633.4164
 99  9 17 18 34 30.0000000  0  9 03 08 23 21 15 29 25 01 31
  23634605.380     6276526.289 8   4910228.15745  23634605.013    23634613.8364
  22358163.334   -13115755.676 8 -10197893.68546  22358162.696    22358170.4374
  23558714.575    15139131.602 8  11801236.27345  23558713.921    23558723.1904
  20829519.339    -7991930.340 9  -6212075.93547  20829518.754    20829525.3844
  22158893.781   -18690589.058 8 -14228378.93546  22158893.018    22158900.5434
  20291486.537   -20908674.551 9 -15945035.95148  20291486.346    20291491.7824
  24198414.668    -8060573.839 7  -6267364.15045  24198414.486    24198424.1024
  24497019.722    -5723382.272 7  -4439107.37645  24497019.077    24497029.7414
  22831546.112   -14550655.963 8 -10991248.93746  22831545.500    22831552.6634
 99  9 17 18 35  0.0000000  0  9 03 08 23 21 15 29 25 01 31
  23652277.762     6369394.685 8   4982593.03145  23652277.379    23652286.2794
  22358243.626   -13115333.775 8 -10197564.93546  22358242.990    22358250.6864
  23572114.523    15209548.052 8  11856106.13545  23572113.825    23572123.1264
  20833845.495    -7969196.444 9  -6194361.23147  20833844.879    20833851.5004
  22141542.631   -18781769.738 8 -14299428.76146  22141541.850    22141549.3934
  20294750.455   -20891522.527 9 -15931670.74348  20294750.277    20294755.7204
  24179008.589    -8162553.727 7  -6346828.88245  24179008.321    24179017.7844
  24477557.331    -5825657.369 7  -4518802.10345  24477556.670    24477567.2844
  22841545.649   -14498108.186 8 -10950302.66046  22841545.027    22841552.1374
 99  9 17 18 35 30.0000000  0  9 03 08 23 21 15 29 25 01 31
  23669975.830     6462398.486 8   5055063.40845  23669975.497    23669984.4014
  22358443.100   -13114286.091 8 -10196748.57146  22358442.462    22358450.0584
  23585534.437    15280069.688 8  11911057.96345  23585533.714    23585542.9974
  20838215.929    -7946229.736 9  -6176465.12047  20838215.314    20838221.9694
  22124242.351   -18872683.341 8 -14370270.47546  22124241.556    22124249.0874
  20298098.617   -20873927.856 9 -15917960.62148  20298098.439    20298103.9074
  24159605.650    -8264515.766 8  -6426279.70945  24159605.464    24159614.8564
  24458120.018    -5927800.382 7  -4598393.91345  24458119.476    24458129.9404
  22851626.488   -14445133.195 8 -10909023.49046  22851625.908    22851632.9914
 99  9 17 18 36  0.0000000  0  9 03 08 23 21 15 29 25 01 31
  23687702.838     6555554.281 8   5127652.21845  23687702.544    23687711.4914
  22358758.012   -13112631.535 8 -10195459.32546  22358757.374    22358764.8974
  23598977.073    15350710.445 8  11966102.59745  23598976.319    23598985.6374
  20842629.915    -7923033.891 9  -6158390.45347  20842629.318    20842635.9664
  22106993.053   -18963328.593 8 -14440903.07946  22106992.258    22106999.8094
  20301533.221   -20855878.652 9 -15903896.31548  20301533.061    20301538.5554
  24140207.171    -8366454.851 8  -6505712.63045  24140206.903    24140216.3924
  24438708.026    -6029810.414 7  -4677882.10745  24438707.565    24438717.9944
  22861788.800   -14391729.804 8 -10867410.50646  22861788.204    22861795.3434
 99  9 17 18 36 30.0000000  0  9 03 08 23 21 15 29 25 01 31
  23705460.670     6648871.735 8   5200366.99045  23705460.332    23705469.4374
  22359188.284   -13110370.171 8 -10193697.23946  22359187.667    22359195.2054
  23612440.776    15421462.289 8  12021233.79645  23612440.098    23612449.3794
  20847093.068    -7899579.912 9  -6140114.65047  20847092.478    20847099.1384
  22089796.648   -19053695.765 8 -14511318.99746  22089795.943    22089803.4514
  20305056.440   -20837363.969 9 -15889469.30348  20305056.282    20305061.7864
  24120813.610    -8468367.968 8  -6585125.32945  24120813.408    24120822.8824
  24419320.493    -6131692.498 7  -4757270.59945  24419319.927    24419330.4594
  22872035.817   -14337881.620 8 -10825450.92546  22872035.229    22872042.3844
 99  9 17 18 37  0.0000000  0  9 03 08 23 21 15 29 25 01 31
  23723252.306     6742366.897 8   5273220.24745  23723251.964    23723261.0574
  22359733.445   -13107505.414 8 -10191464.97346  22359732.839    22359740.3364
  23625927.470    15492334.637 8  12076458.90645  23625926.802    23625935.9824
  20851607.164    -7875858.181 9  -6121630.20247  20851606.603    20851613.2474
  22072657.314   -19143763.413 8 -14581501.52346  22072656.558    22072664.0304
  20308667.841   -20818385.952 9 -15874681.24948  20308667.692    20308673.1984
  24101425.762    -8570251.239 8  -6664514.77345  24101425.630    24101435.0934
  24399960.539    -6233429.437 7  -4836545.99145  24399960.039    24399970.4884
  22882370.470   -14283572.815 8 -10783132.42446  22882369.845    22882377.0644
 99  9 17 18 37 30.0000000  0  9 03 08 23 21 15 29 25 01 31
  23741077.936     6836040.491 8   5346212.54045  23741077.564    23741086.7064
  22360391.844   -13104045.630 8 -10188769.04146  22360391.134    22360398.7174
  23639435.333    15563318.865 8  12131771.15545  23639434.700    23639443.9654
  20856175.427    -7851851.963 9  -6102924.07447  20856174.860    20856181.4944
  22055575.388   -19233529.440 8 -14651449.02246  22055574.634    22055582.0734
  20312365.718   -20798953.616 9 -15859539.18148  20312365.552    20312371.0824
  24082042.900    -8672108.919 8  -6743884.27245  24082042.709    24082052.0894
  24380629.582    -6335014.123 7  -4915702.75545  24380628.972    24380639.2814
  22892795.963   -14228786.628 8 -10740441.92346  22892795.367    22892802.6284
 99  9 17 18 38  0.0000000  0  9 03 08 23 21 15 29 25 01 31
  23758931.935     6929863.531 8   5419321.29245  23758931.623    23758940.7484
  22361168.161   -13099965.813 8 -10185589.98046  22361167.496    22361175.1454
  23652963.329    15634408.173 8  12187165.32945  23652962.664    23652971.9464
  20860800.147    -7827549.121 9  -6083986.81047  20860799.589    20860806.2224
  22038550.096   -19322997.979 8 -14721164.71846  22038549.330    22038556.7234
  20316147.937   -20779077.860 9 -15844051.58848  20316147.773    20316153.2884
  24062666.029    -8773934.633 8  -6823228.87345  24062665.833    24062675.2144
  24361328.253    -6436442.491 7  -4994737.70445  24361327.694    24361338.0764
  22903312.260   -14173523.453 8 -10697379.74746  22903311.647    22903318.8834
 99  9 17 18 38 30.0000000  0  9 03 08 23 21 15 29 25 01 31
  23776808.695     7023805.802 8   5492522.94745  23776808.368    23776817.4534
  22362065.432   -13095250.690 8 -10181915.86746  22362064.755    22362072.4884
  23666511.938    15705606.114 8  12242644.15545  23666511.285    23666520.4304
  20865478.373    -7802964.940 9  -6064830.32247  20865477.800    20865484.4544
  22021581.429   -19412168.923 8 -14790648.51446  22021580.637    22021587.9744
  20320012.028   -20758772.122 9 -15828228.94748  20320011.849    20320017.3754
  24043298.952    -8875708.609 8  -6902533.16545  24043298.751    24043308.1724
  24342054.913    -6537724.070 7  -5073658.29445  24342054.426    24342064.6374
  22913917.094   -14117794.816 8 -10653954.88246  22913916.476    22913923.7214
 99  9 17 18 39  0.0000000  0  9 03 08 23 21 15 29 25 01 31
  23794704.715     7117849.030 8   5565803.27545  23794704.309    23794713.4274
  22363082.034   -13089908.611 8 -10177753.22246  22363081.331    22363089.0384
  23680083.257    15776923.267 8  12298215.82145  23680082.660    23680091.8784
  20870204.854    -7778127.185 9  -6045476.24947  20870204.288    20870210.9424
  22004666.847   -19501055.562 8 -14859910.77646  22004666.037    22004673.4024
  20323954.521   -20738054.350 9 -15812085.24248  20323954.349    20323959.8494
  24023943.078    -8977424.274 8  -6981792.01245  24023942.821    24023952.2424
  24322806.514    -6638874.537 7  -5152476.72145  24322806.072    24322816.2454
  22924608.889   -14061609.282 8 -10610173.98946  22924608.274    22924615.4604
 99  9 17 18 39 30.0000000  0  9 03 08 23 21 15 29 25 01 31
  23812616.389     7211974.936 8   5639148.01845  23812616.029    23812625.0734
  22364216.462   -13083946.964 8 -10173107.78346  22364215.776    22364223.5074
  23693675.271    15848349.217 8  12353872.30745  23693674.660    23693683.9164
  20874978.021    -7753044.487 9  -6025931.30847  20874977.424    20874984.0414
  21987802.933   -19589675.859 8 -14928965.51046  21987802.121    21987809.4364
  20327975.815   -20716922.347 9 -15795618.75948  20327975.645    20327981.1394
  24004600.108    -9079072.015 8  -7060997.94745  24004599.852    24004609.1814
  24303581.977    -6739899.809 7  -5231197.59545  24303581.530    24303591.5394
  22935383.898   -14004986.383 8 -10566052.28446  22935383.284    22935390.4684
 99  9 17 18 40  0.0000000  0  9 03 08 23 21 15 29 25 01 31
  23830544.223     7306185.734 8   5712558.89745  23830543.807    23830552.8494
  22365470.138   -13077358.206 8 -10167973.70146  22365469.428    22365477.2274
  23707289.839    15919893.877 8  12409621.30845  23707289.106    23707298.4634
  20879796.950    -7727720.930 9  -6006198.68347  20879796.348    20879802.9634
  21970991.017   -19678023.111 8 -14997807.46846  21970990.200    21970997.4784
  20332076.836   -20695371.707 9 -15778826.06248  20332076.636    20332082.1274
  23985272.198    -9180640.852 8  -7140142.39345  23985271.991    23985281.1674
  24284382.955    -6840790.799 7  -5309813.82945  24284382.313    24284392.4054
  22946236.006   -13947958.564 8 -10521615.06246  22946235.412    22946242.5974
 99  9 17 18 40 30.0000000  0  9 03 08 23 21 15 29 25 01 31
  23848490.484     7400493.231 8   5786045.13345  23848490.103    23848499.0604
  22366840.182   -13070158.334 8 -10162363.41746  22366839.529    22366847.3394
  23720926.932    15991557.281 8  12465462.77345  23720926.274    23720935.7994
  20884660.112    -7702165.130 9  -5986285.09447  20884659.501    20884666.1134
  21954232.706   -19766088.328 8 -15066429.67746  21954231.892    21954239.1594
  20336259.361   -20673392.595 9 -15761699.49648  20336259.161    20336264.6094
  23965959.220    -9282130.976 8  -7219225.51945  23965959.012    23965968.1474
  24265210.912    -6941539.719 7  -5388319.34245  24265210.384    24265220.2754
  22957164.917   -13890526.902 8 -10476863.17146  22957164.326    22957171.5664
 99  9 17 18 41  0.0000000  0  9 03 08 23 21 15 29 25 01 31
  23866459.209     7494918.977 8   5859623.49645  23866458.844    23866467.8324
  22368327.972   -13062339.864 8 -10156271.10946  22368327.309    22368335.2074
  23734582.596    16063317.146 8  12521379.48745  23734581.941    23734591.3194
  20889568.187    -7676373.191 9  -5966187.50247  20889567.553    20889574.1544
  21937529.926   -19853861.698 8 -15134824.45746  21937529.105    21937536.3924
  20340523.042   -20650986.908 9 -15744240.52748  20340522.829    20340528.2684
  23946658.668    -9383555.636 8  -7298257.62645  23946658.414    23946667.4994
  24246071.496    -7042117.461 7  -5466691.50645  24246070.924    24246080.8864
  22968170.659   -13832691.920 8 -10431796.99446  22968170.037    22968177.2294
 99  9 17 18 41 30.0000000  0  9 03 08 23 21 15 29 25 01 31
  23884449.838     7589459.277 8   5933291.14445  23884449.449    23884458.4194
  22369935.388   -13053893.767 8 -10149689.74246  22369934.626    22369942.4604
  23748254.465    16135163.307 8  12577363.38945  23748253.775    23748263.2784
  20894521.552    -7650343.368 9  -5945904.54447  20894520.904    20894527.5194
  21920885.435   -19941328.846 8 -15202980.63246  21920884.647    21920891.9084
  20344868.635   -20628150.898 9 -15726446.24548  20344868.431    20344873.8444
  23927370.489    -9484915.405 8  -7377239.18545  23927370.227    23927379.2314
  24226968.362    -7142504.769 7  -5544915.24945  24226967.749    24226977.7674
  22979249.629   -13774472.122 8 -10386430.96546  22979248.947    22979256.2224
 99  9 17 18 42  0.0000000  0  9 03 08 23 21 15 29 25 01 31
  23902461.283     7684109.305 8   6007044.30445  23902460.860    23902469.8534
  22371662.492   -13044817.995 8 -10142617.72346  22371661.761    22371669.5194
  23761940.909    16207085.388 8  12633406.44845  23761940.271    23761949.7704
  20899519.307    -7624080.126 9  -5925439.70047  20899518.664    20899525.2414
  21904301.543   -20028477.549 8 -15270888.66946  21904300.758    21904308.0144
  20349294.556   -20604892.497 9 -15708322.82148  20349294.347    20349299.7764
  23908095.085    -9586208.393 8  -7456168.70945  23908094.771    23908103.7354
  24207900.660    -7242705.734 7  -5622993.79445  24207900.080    24207910.0104
  22990402.982   -13715860.879 8 -10340759.92346  22990402.315    22990409.6184
 99  9 17 18 42 30.0000000  0  9 03 08 23 21 15 29 25 01 31
  23920489.867     7778849.535 8   6080867.75745  23920489.480    23920498.4554
  22373509.654   -13035111.895 8 -10135054.53046  22373508.852    22373516.4994
  23775638.460    16279065.619 8  12689494.83845  23775637.818    23775647.3064
  20904562.146    -7597580.029 9  -5904790.28647  20904561.493    20904568.0554
  21887777.713   -20115310.799 8 -15338550.89546  21887776.897    21887784.1944
  20353799.966   -20581216.632 9 -15689874.10247  20353799.748    20353805.1684
  23888833.892    -9687426.351 8  -7535039.75845  23888833.604    23888842.4714
  24188867.069    -7342727.513 8  -5700932.71945  24188866.496    24188876.4824
  23001634.373   -13656839.798 8 -10294769.51646  23001633.690    23001640.9904
 99  9 17 18 43  0.0000000  0  9 03 08 23 21 15 29 25 01 31
  23938533.095     7873667.092 8   6154751.46345  23938532.728    23938541.8164
  22375475.487   -13024781.435 8 -10127004.84246  22375474.671    22375482.2874
  23789347.693    16351107.991 7  12745631.62545  23789347.068    23789356.6264
  20909652.898    -7570827.971 9  -5883944.54547  20909652.239    20909658.7854
  21871313.730   -20201829.343 8 -15405967.89846  21871312.915    21871320.1844
  20358384.978   -20557122.154 9 -15671099.19247  20358384.773    20358390.1924
  23869586.636    -9788570.812 8  -7613853.52645  23869586.339    23869595.2484
  24169867.716    -7442569.309 7  -5778731.39745  24169867.159    24169877.1664
  23012943.837   -13597408.287 8 -10248459.29846  23012943.161    23012950.5214
 99  9 17 18 43 30.0000000  0  9 03 08 23 21 15 29 25 01 31
  23956588.155     7968546.947 8   6228683.69845  23956587.768    23956596.8924
  22377558.996   -13013832.161 8 -10118472.94246  22377558.238    22377565.8574
  23803073.350    16423236.728 8  12801835.75045  23803072.735    23803082.3714
  20914796.411    -7543798.667 9  -5862882.76447  20914795.758    20914802.3264
  21854909.919   -20288031.749 8 -15473138.56146  21854909.121    21854916.3874
  20363053.077   -20532591.060 9 -15651984.06447  20363052.892    20363058.2964
  23850356.399    -9889626.099 8  -7692597.81545  23850356.142    23850364.9904
  24150899.464    -7542247.555 7  -5856402.62845  24150898.921    24150908.8654
  23024333.576   -13537554.925 8 -10201820.36446  23024332.935    23024340.2614
 99  9 17 18 44  0.0000000  0  9 03 08 23 21 15 29 25 01 31
  23974655.946     8063493.622 8   6302667.99745  23974655.531    23974664.7484
  22379760.443   -13002263.631 8 -10109458.50946  22379759.655    22379767.3024
  23816819.724    16495474.179 8  12858124.52045  23816819.128    23816828.8434
  20919996.028    -7516474.440 9  -5841591.17747  20919995.379    20920001.9654
  21838566.955   -20373914.457 8 -15540060.11146  21838566.155    21838573.3954
  20367804.895   -20507619.993 9 -15632526.10147  20367804.712    20367810.1244
  23831144.322    -9990586.072 8  -7771267.83545  23831143.953    23831152.8114
  24131962.076    -7641763.680 7  -5933947.53145  24131961.421    24131971.3934
  23035809.187   -13477250.386 8 -10154829.86046  23035808.551    23035815.8604
 99  9 17 18 44 30.0000000  0  9 03 08 23 21 15 29 25 01 31
  23992738.906     8158519.967 8   6376714.37445  23992738.482    23992747.7234
  22382079.931   -12990074.208 8 -10099960.26646  22382079.169    22382086.8414
  23830592.324    16567848.773 8  12914520.17145  23830591.684    23830601.4034
  20925253.596    -7488845.770 9  -5820062.36047  20925252.959    20925259.5564
  21822285.168   -20459475.808 8 -15606731.25446  21822284.347    21822291.5234
  20372638.992   -20482216.841 9 -15612731.44547  20372638.796    20372644.2084
  23811948.145   -10091462.177 8  -7849872.48645  23811947.852    23811956.6104
  24113056.554    -7741112.149 7  -6011361.77945  24113055.959    24113065.9074
  23047370.948   -13416493.300 8 -10107486.72046  23047370.287    23047377.5914
 99  9 17 18 45  0.0000000  0  9 03 08 23 21 15 29 25 01 31
  24010840.510     8253644.146 8   6450836.99545  24010840.041    24010849.3574
  22384514.888   -12977277.958 8 -10089989.17046  22384514.164    22384521.8764
  23844395.758    16640386.084 8  12971042.63945  23844395.079    23844404.8014
  20930566.531    -7460926.101 9  -5798306.79347  20930565.931    20930572.5194
  21806064.799   -20544714.323 8 -15673150.83046  21806063.966    21806071.1724
  20377551.546   -20456401.267 9 -15592615.42247  20377551.325    20377556.7314
  23792765.171   -10192269.111 8  -7928423.23145  23792764.902    23792773.6614
  24094182.104    -7840297.575 8  -6088649.00745  24094181.515    24094191.3734
  23059015.509   -13355300.630 8 -10059804.17846  23059014.866    23059022.1604
 99  9 17 18 45 30.0000000  0  9 03 08 23 21 15 29 25 01 31
  24028960.021     8348862.236 8   6525032.77145  24028959.518    24028968.8144
  22387064.414   -12963879.802 8 -10079549.05846  22387063.698    22387071.5524
  23858228.794    16713078.626 7  13027686.07145  23858228.112    23858237.8784
  20935930.389    -7432738.803 9  -5776342.68347  20935929.807    20935936.4254
  21789904.277   -20629638.169 8 -15739325.21646  21789903.454    21789910.6544
  20382537.891   -20430197.770 9 -15572197.12047  20382537.673    20382543.1174
  23773594.794   -10293009.142 8  -8006921.82845  23773594.514    23773603.3534
  24075334.765    -7939340.395 8  -6165825.10445  24075334.273    24075344.0434
  23070739.201   -13293692.507 8 -10011797.90046  23070738.530    23070745.8624
 99  9 17 18 46  0.0000000  0  9 03 08 23 21 15 29 25 01 31
  24047096.976     8444172.093 8   6599300.08345  24047096.551    24047105.8144
  22389726.561   -12949889.646 8 -10068647.64646  22389725.895    22389733.8514
  23872086.635    16785901.845 7  13084431.32945  23872086.028    23872095.7594
  20941339.955    -7404311.236 9  -5754191.35547  20941339.392    20941346.0584
  21773803.216   -20714249.383 8 -15805255.98946  21773802.441    21773809.6384
  20387593.595   -20403629.668 9 -15551494.71447  20387593.403    20387598.8794
  23754435.664   -10393689.774 8  -8085374.15045  23754435.496    23754444.4434
  24056516.584    -8038230.007 7  -6242881.80945  24056516.061    24056525.8654
  23082537.419   -13231692.379 8  -9963486.15746  23082536.763    23082544.1974
 99  9 17 18 46 30.0000000  0  9 03 08 23 21 15 29 25 01 31
  24065249.671     8539564.688 7   6673631.86145  24065249.164    24065258.5574
  22392500.953   -12935310.493 8 -10057287.28446  22392500.264    22392508.2314
  23885962.974    16858822.100 8  13141252.15745  23885962.363    23885972.2254
  20946791.594    -7375662.471 9  -5731867.66547  20946791.048    20946797.7394
  21757760.652   -20798553.161 8 -15870947.19846  21757759.887    21757767.1604
  20392717.347   -20376703.852 9 -15530513.56847  20392717.186    20392722.7084
  23735288.779   -10494306.748 8  -8163776.85545  23735288.612    23735297.5924
  24037726.987    -8136969.380 7  -6319821.43045  24037726.429    24037736.2744
  23094402.610   -13169340.508 8  -9914900.33346  23094401.998    23094409.3824
 99  9 17 18 47  0.0000000  0  9 03 08 23 21 15 29 25 01 31
  24083414.579     8635021.314 7   6748013.52545  24083414.029    24083423.4344
  22395389.178   -12920133.341 8 -10045460.94146  22395388.465    22395396.3504
  23899851.077    16931803.834 7  13198120.92845  23899850.418    23899860.3434
  20952284.042    -7346799.263 9  -5709376.87847  20952283.506    20952290.2264
  21741777.574   -20882544.308 8 -15936394.80146  21741776.851    21741784.1344
  20397914.423   -20349393.003 9 -15509232.39447  20397914.278    20397919.8134
  23716157.953   -10594839.067 8  -8242113.60545  23716157.816    23716166.8034
  24018966.722    -8235554.446 8  -6396640.82045  24018966.156    24018976.0924
  23106332.353   -13106649.261 8  -9866050.05946  23106331.749    23106339.1734
 99  9 17 18 47 30.0000000  0  9 03 08 23 21 15 29 25 01 31
  24101590.456     8730536.065 7   6822440.48645  24101589.987    24101599.4904
  22398395.727   -12904334.089 8 -10033149.85346  22398395.004    22398402.8814
  23913747.733    17004831.228 7  13255025.18845  23913746.997    23913757.2924
  20957821.142    -7317701.503 9  -5686703.32547  20957820.613    20957827.3554
  21725857.866   -20966202.670 8 -16001583.09146  21725857.172    21725864.4674
  20403193.162   -20321652.802 9 -15487616.66247  20403193.033    20403198.5994
  23697046.406   -10695270.672 8  -8320371.87445  23697046.226    23697055.1224
  24000240.000    -8333963.636 8  -6473323.16845  24000239.460    24000249.2554
  23118328.440   -13043609.067 8  -9816927.87546  23118327.895    23118335.3994
 99  9 17 18 48  0.0000000  0  9 03 08 23 21 15 29 25 01 31
  24119779.065     8826117.794 7   6896919.62145  24119778.694    24119788.1894
  22401525.627   -12887886.314 8 -10020333.43346  22401524.887    22401532.7154
  23927655.461    17077915.921 7  13311974.22845  23927654.779    23927664.8214
  20963407.460    -7288345.209 9  -5663828.31947  20963406.945    20963413.7144
  21710005.786   -21049505.594 8 -16066494.42446  21710005.086    21710012.3894
  20408558.047   -20293460.162 9 -15465648.38347  20408557.929    20408563.5114
  23677956.712   -10795586.833 8  -8398540.17945  23677956.602    23677965.5364
  23981552.226    -8432167.950 8  -6549845.86845  23981551.738    23981561.5214
  23130395.584   -12980196.264 8  -9767515.34346  23130395.030    23130402.5584
 99  9 17 18 48 30.0000000  0  9 03 08 23 21 15 29 25 01 31
  24137980.586     8921767.313 7   6971451.59345  24137980.284    24137989.7084
  22404781.586   -12870774.881 8 -10006999.86846  22404781.003    22404788.8874
  23941578.476    17151081.887 7  13368986.57145  23941577.901    23941587.8474
  20969045.465    -7258717.164 9  -5640741.55447  20969044.972    20969051.7474
  21694223.030   -21132444.469 8 -16131122.08946  21694222.372    21694229.6274
  20414012.200   -20264798.328 9 -15443314.49747  20414012.103    20414017.6764
  23658890.570   -10895779.782 8  -8476612.48245  23658890.401    23658899.3314
  23962902.781    -8530170.648 8  -6626211.45545  23962902.288    23962912.0564
  23142537.242   -12916391.062 8  -9717797.06846  23142536.645    23142544.2934
 99  9 17 18 49  0.0000000  0  9 03 08 23 21 15 29 25 01 31
  24156195.243     9017485.533 8   7046037.10545  24156194.904    24156204.4164
  22408163.884   -12853000.339 8  -9993149.59346  22408163.312    22408171.3164
  23955521.612    17224354.364 7  13426081.82745  23955521.077    23955531.2684
  20974738.356    -7228800.751 9  -5617430.09347  20974737.901    20974744.6754
  21678510.904   -21215012.090 8 -16195460.45546  21678510.210    21678517.4594
  20419552.847   -20235681.830 9 -15420626.33147  20419552.748    20419558.3534
  23639846.782   -10995855.045 8  -8554593.07945  23639846.615    23639855.5094
  23944291.741    -8627972.000 8  -6702420.16345  23944291.272    23944301.0694
  23154758.676   -12852166.991 8  -9667752.39346  23154758.115    23154765.8494
 99  9 17 18 49 30.0000000  0  9 03 08 23 21 15 29 25 01 31
  24174422.820     9113271.399 7   7120675.33845  24174422.545    24174431.9824
  22411669.287   -12834579.355 8  -9978795.60746  22411668.725    22411676.6824
  23969488.908    17297752.144 8  13483274.72645  23969488.418    23969498.7444
  20980486.203    -7198595.463 9  -5593893.53747  20980485.762    20980492.5644
  21662867.687   -21297217.707 8 -16259516.75046  21662866.979    21662874.2304
  20425171.026   -20206158.151 9 -15397620.88447  20425170.938    20425176.5424
  23620824.130   -11095819.056 8  -8632486.99045  23620823.994    23620832.9204
  23925716.813    -8725583.558 8  -6778480.98545  23925716.431    23925726.0984
  23167060.601   -12787520.149 8  -9617378.29046  23167060.107    23167067.6984
 99  9 17 18 50  0.0000000  0  9 03 08 23 21 15 29 25 01 31
  24192660.848     9209112.416 8   7195356.54145  24192660.510    24192670.1044
  22415293.822   -12815532.402 8  -9963953.85346  22415293.326    22415301.2604
  23983479.346    17371271.178 7  13540562.24245  23983478.823    23983488.8594
  20986285.038    -7168122.363 9  -5570148.29347  20986284.608    20986291.4184
  21647288.136   -21379088.383 8 -16323312.03646  21647287.445    21647294.7414
  20430856.392   -20176281.207 9 -15374340.16247  20430856.332    20430861.9554
  23601823.224   -11195669.139 8  -8710292.12145  23601823.018    23601832.0074
  23907173.432    -8823028.944 8  -6854412.31945  23907173.169    23907182.6864
  23179438.343   -12722474.955 8  -9566693.77146  23179437.879    23179445.3744
 99  9 17 18 50 30.0000000  0  9 03 08 23 21 15 29 25 01 31
  24210907.997     9305001.675 7   7270075.33945  24210907.727    24210917.3364
  22419031.582   -12795890.200 8  -9948648.27346  22419031.048    22419039.0904
  23997490.815    17444902.850 7  13597937.42045  23997490.303    23997500.5814
  20992130.934    -7137402.314 9  -5546210.62247  20992130.490    20992137.2804
  21631768.716   -21460643.118 8 -16386861.14146  21631768.039    21631775.3904
  20436603.678   -20146079.258 9 -15350806.19047  20436603.604    20436609.2284
  23582842.138   -11295414.409 8  -8788015.58245  23582842.039    23582850.9994
  23888656.693    -8920334.627 8  -6930234.77645  23888656.348    23888665.8924
  23191885.653   -12657063.809 8  -9515724.11046  23191885.222    23191892.7274
 99  9 17 18 51  0.0000000  0  9 03 08 23 21 15 29 25 01 31
  24229161.636     9400924.704 7   7344820.44545  24229161.350    24229171.0024
  22422878.884   -12775671.900 8  -9932893.78646  22422878.454    22422886.5274
  24011520.549    17518629.166 7  13655386.36745  24011519.991    24011530.5424
  20998022.345    -7106442.584 9  -5522086.19047  20998021.912    20998028.7274
  21616308.147   -21541888.747 8 -16450169.38946  21616307.472    21616314.8274
  20442410.886   -20115562.069 9 -15327026.57747  20442410.833    20442416.4494
  23563879.716   -11395061.795 8  -8865662.77645  23563879.686    23563888.6224
  23870164.714    -9017510.117 8  -7005955.79745  23870164.309    23870173.8424
  23204397.462   -12591314.043 8  -9464490.58946  23204397.030    23204404.6024
 99  9 17 18 51 30.0000000  0  9 03 08 23 21 15 29 25 01 31
  24247420.704     9496876.568 7   7419588.01445  24247420.489    24247430.1854
  22426836.609   -12754874.568 8  -9916688.10246  22426836.094    22426844.1514
  24025566.488    17592440.541 7  13712901.56345  24025565.936    24025576.5524
  21003958.621    -7075247.365 9  -5497778.25447  21003958.192    21003965.0404
  21600906.475   -21622824.823 8 -16513236.42146  21600905.824    21600913.1794
  20448284.057   -20084698.302 9 -15302976.89947  20448283.998    20448289.6174
  23544936.658   -11494607.423 8  -8943230.68645  23544936.580    23544945.5684
  23851697.981    -9114552.763 8  -7081573.30345  23851697.544    23851707.0634
  23216970.371   -12525243.239 8  -9413006.90146  23216969.916    23216977.5324
 99  9 17 18 52  0.0000000  0  9 03 08 23 21 15 29 25 01 31
  24265685.474     9592858.268 7   7494378.81745  24265685.265    24265694.9964
  22430906.479   -12733488.560 8  -9900023.71346  22430905.887    22430913.8034
  24039629.567    17666341.971 7  13770487.01245  24039629.071    24039639.5324
  21009940.530    -7043812.260 9  -5473283.40547  21009940.081    21009946.9674
  21585567.884   -21703429.431 8 -16576045.17946  21585567.263    21585574.6134
  20454231.112   -20053446.251 9 -15278624.67047  20454231.090    20454236.7074
  23526013.527   -11594049.070 8  -9020717.57146  23526013.410    23526022.4114
  23833261.782    -9211435.036 8  -7157065.84945  23833261.357    23833270.7834
  23229605.982   -12458842.690 8  -9361266.27346  23229605.539    23229613.2024
 99  9 17 18 52 30.0000000  0  9 03 08 23 21 15 29 25 01 31
  24283954.963     9688864.920 7   7569189.07645  24283954.778    24283964.5954
  22435089.688   -12711505.840 8  -9882894.34846  22435089.091    22435097.0374
  24053710.845    17740339.117 7  13828146.98345  24053710.212    24053721.0084
  21015973.610    -7012108.281 9  -5448579.03647  21015973.155    21015980.0574
  21570298.558   -21783670.052 8 -16638570.30046  21570297.894    21570305.2754
  20460258.457   -20021772.432 9 -15253943.78547  20460258.428    20460264.0544
  23507109.946   -11693387.655 8  -9098124.14746  23507109.827    23507118.7924
  23814861.451    -9308128.468 8  -7232411.24645  23814860.975    23814870.4664
  23242309.533   -12392084.973 8  -9309247.32046  23242309.064    23242316.8214
 99  9 17 18 53  0.0000000  0  9 03 08 23 21 15 29 25 01 31
  24302229.642     9784898.433 7   7644020.27245  24302229.356    24302239.2804
  22439390.016   -12688906.659 8  -9865284.64346  22439389.474    22439397.5694
  24067809.672    17814428.964 7  13885879.13645  24067809.161    24067819.9044
  21022061.527    -6980116.296 9  -5423650.23947  21022061.080    21022067.9744
  21555102.809   -21863524.067 8 -16700794.16846  21555102.133    21555109.4844
  20466370.175   -19989655.143 9 -15228917.34147  20466370.127    20466375.7784
  23488229.782   -11792603.284 8  -9175434.92246  23488229.647    23488238.5474
  23796504.466    -9404594.135 8  -7307579.17145  23796503.963    23796513.5034
  23255085.685   -12324946.078 8  -9256931.36246  23255085.229    23255093.0334
 99  9 17 18 53 30.0000000  0  9 03 08 23 21 15 29 25 01 31
  24320512.456     9880974.933 7   7718884.95245  24320512.289    24320522.1304
  22443810.138   -12665678.340 8  -9847184.67146  22443809.614    22443817.7804
  24081928.476    17888622.484 7  13943692.13245  24081928.018    24081938.6674
  21028205.565    -6947829.259 9  -5398491.54047  21028205.116    21028212.0474
  21539983.220   -21942977.864 8 -16762706.18347  21539982.550    21539989.8754
  20472564.943   -19957101.517 9 -15203550.88847  20472564.908    20472570.5844
  23469376.799   -11891675.995 8  -9252634.34346  23469376.649    23469385.5704
  23778195.629    -9500806.929 8  -7382550.05445  23778195.198    23778204.6934
  23267937.055   -12257411.980 8  -9204307.43846  23267936.543    23267944.3664
 99  9 17 18 54  0.0000000  0  9 03 08 23 21 15 29 25 01 31
  24338801.229     9977082.492 7   7793773.83245  24338801.138    24338810.8744
  22448348.172   -12641831.326 8  -9828602.61946  22448347.622    22448355.7094
  24096068.063    17962925.445 7  14001590.49345  24096067.579    24096078.0144
  21034403.682    -6915258.258 9  -5373111.57147  21034403.206    21034410.1634
  21524940.434   -22022028.192 8 -16824303.80547  21524939.774    21524947.0354
  20478836.705   -19924143.256 9 -15177869.14047  20478836.666    20478842.3354
  23450552.556   -11990597.734 8  -9329716.12046  23450552.401    23450561.2284
  23759935.638    -9596763.353 8  -7457321.16945  23759935.239    23759944.6144
  23280863.193   -12189485.080 8  -9151377.44646  23280862.734    23280870.5274
 99  9 17 18 54 30.0000000  0  9 03 08 23 21 15 29 25 01 31
  24357095.667    10073219.884 7   7868685.97945  24357095.534    24357105.3354
  22453003.354   -12617368.545 8  -9809540.73046  22453002.740    22453010.9114
  24110226.720    18037329.358 7  14059567.35745  24110226.218    24110236.9344
  21040655.798    -6882403.353 9  -5347510.37447  21040655.317    21040662.2664
  21509971.320   -22100691.445 8 -16885599.81247  21509970.647    21509977.9094
  20485179.786   -19890810.331 9 -15151895.45047  20485179.755    20485185.4304
  23431757.529   -12089365.998 8  -9406678.29646  23431757.322    23431766.1444
  23741718.060    -9692496.727 7  -7531918.48645  23741717.601    23741727.0434
  23293858.634   -12121193.589 8  -9098163.35646  23293858.147    23293866.0224
 99  9 17 18 55  0.0000000  0  9 03 08 23 21 15 29 25 01 31
  24375394.789    10169381.828 7   7943617.23945  24375394.625    24375404.5304
  22457774.659   -12592295.140 8  -9790003.06046  22457774.086    22457782.2974
  24124406.422    18111843.666 8  14117630.25145  24124405.930    24124416.7114
  21046957.924    -6849285.520 9  -5321704.29947  21046957.445    21046964.3824
  21495073.014   -22178982.640 8 -16946605.90247  21495072.341    21495079.5964
  20491593.014   -19857108.667 9 -15125634.43047  20491592.975    20491598.6564
  23412991.221   -12187983.289 8  -9483522.83046  23412991.023    23412999.7134
  23723537.958    -9788032.819 8  -7606362.05445  23723537.586    23723547.0874
  23306919.891   -12052556.279 8  -9044679.81146  23306919.416    23306927.3214
 99  9 17 18 55 30.0000000  0  9 03 08 23 21 15 29 25 01 31
  24393694.446    10265547.069 7   8018551.07045  24393694.327    24393704.2484
  22462662.169   -12566611.517 8  -9769989.88746  22462661.563    22462669.6944
  24138609.427    18186479.819 7  14175788.23245  24138608.958    24138619.3094
  21053309.133    -6815909.884 9  -5295697.34047  21053308.658    21053315.6264
  21480244.249   -22256908.153 8 -17007327.05147  21480243.597    21480250.8564
  20498073.616   -19823052.721 9 -15099097.34847  20498073.589    20498079.3044
  23394251.025   -12286463.338 8  -9560260.42146  23394250.787    23394259.4834
  23705389.203    -9883404.473 8  -7680677.50645  23705388.871    23705398.3114
  23320044.300   -11983587.457 8  -8990937.92846  23320043.790    23320051.6914
 99  9 17 18 56  0.0000000  0  9 03 08 23 21 15 29 25 01 31
  24411990.092    10361691.136 7   8093468.41245  24411989.881    24412000.0384
  22467665.975   -12540316.931 8  -9749500.63246  22467665.339    22467673.3784
  24152833.391    18261226.273 7  14234032.00045  24152832.922    24152843.4104
  21059708.968    -6782278.182 9  -5269490.84847  21059708.527    21059715.5384
  21465483.669   -22334475.235 8 -17067768.90047  21465483.025    21465490.2974
  20504622.026   -19788640.655 9 -15072282.77147  20504622.006    20504627.7294
  23375533.021   -12384826.664 8  -9636907.06146  23375532.835    23375541.4484
  23687268.195    -9978630.795 8  -7754879.72545  23687267.816    23687277.2604
  23333229.853   -11914297.080 8  -8936945.48646  23333229.312    23333237.2654
 99  9 17 18 56 30.0000000  0  9 03 08 23 21 15 29 25 01 31
  24430283.071    10457821.023 7   8168374.68945  24430282.857    24430293.1054
  22472787.929   -12513400.648 8  -9728526.95246  22472787.363    22472795.4524
  24167075.283    18336067.622 7  14292349.86445  24167074.772    24167085.2324
  21066159.018    -6748383.027 9  -5243079.06747  21066158.582    21066165.5724
  21450791.464   -22411683.205 8 -17127930.92847  21450790.836    21450798.0754
  20511239.778   -19753864.104 9 -15045184.18247  20511239.764    20511245.4904
  23356837.489   -12483071.961 8  -9713461.73446  23356837.278    23356845.8094
  23669174.932   -10073710.868 8  -7828967.97045  23669174.572    23669183.9774
  23346476.518   -11844685.273 8  -8882702.58946  23346476.021    23346484.0244
 99  9 17 18 57  0.0000000  0  9 03 08 23 21 15 29 25 01 31
  24448570.477    10553921.443 7   8243258.00845  24448570.247    24448580.4974
  22478029.200   -12485857.610 8  -9707064.88546  22478028.635    22478036.7774
  24181334.359    18410999.194 7  14350737.88845  24181333.921    24181344.6634
  21072658.983    -6714225.499 9  -5216462.84347  21072658.562    21072665.5514
  21436169.630   -22488521.262 8 -17187804.70347  21436168.989    21436176.2324
  20517927.484   -19718720.016 9 -15017799.19647  20517927.464    20517933.2044
  23338164.165   -12581200.001 8  -9789925.03046  23338164.016    23338172.5424
  23651114.586   -10168617.950 8  -7902921.42345  23651114.225    23651123.6244
  23359783.901   -11774754.923 8  -8828211.46446  23359783.389    23359791.4454
 99  9 17 18 57 30.0000000  0  9 03 08 23 21 15 29 25 01 31
  24466855.807    10650010.836 7   8318132.73345  24466855.528    24466865.8864
  22483389.027   -12457691.539 8  -9685117.34546  22483388.514    22483396.6594
  24195606.670    18486000.424 7  14409180.24045  24195606.232    24195617.1214
  21079209.637    -6679801.708 9  -5189639.14547  21079209.227    21079216.2094
  21421619.867   -22564980.620 8 -17247383.39947  21421619.252    21421626.4554
  20524683.450   -19683217.275 9 -14990134.74347  20524683.437    20524689.1924
  23319514.636   -12679203.320 8  -9866291.13646  23319514.507    23319523.0644
  23633089.656   -10263338.907 8  -7976729.83845  23633089.263    23633098.6874
  23373152.016   -11704504.991 8  -8773471.31846  23373151.504    23373159.6014
 99  9 17 18 58  0.0000000  0  9 03 08 23 21 15 29 25 01 31
  24485142.835    10746109.255 7   8393014.47645  24485142.628    24485152.9214
  22488864.001   -12428920.281 8  -9662698.22646  22488863.504    22488871.6974
  24209890.320    18561060.569 7  14467668.51645  24209889.871    24209900.5704
  21085809.280    -6645120.599 9  -5162614.93847  21085808.858    21085815.8384
  21407143.456   -22641054.512 8 -17306661.73047  21407142.853    21407150.0304
  20531509.108   -19647348.151 9 -14962184.80047  20531509.112    20531514.8694
  23300891.863   -12777066.131 8  -9942547.76046  23300891.719    23300900.2794
  23615103.979   -10357853.757 8  -8050377.66445  23615103.694    23615113.0374
  23386581.155   -11633934.444 8  -8718481.34445  23386580.647    23386588.7034
 99  9 17 18 58 30.0000000  0  9 03 08 23 21 15 29 25 01 31
  24503434.876    10842233.914 7   8467916.64945  24503434.625    24503444.8374
  22494452.929   -12399550.084 8  -9639812.40546  22494452.436    22494460.6334
  24224189.305    18636201.126 7  14526219.45445  24224188.822    24224199.7134
  21092457.952    -6610181.952 9  -5135390.05147  21092457.535    21092464.5154
  21392742.826   -22716730.360 8 -17365629.90047  21392742.213    21392749.3844
  20538404.941   -19611110.354 9 -14933947.57947  20538404.948    20538410.6894
  23282300.171   -12874765.253 8 -10018676.82846  23282300.069    23282308.5854
  23597158.758   -10452156.490 8  -8123860.21245  23597158.427    23597167.6944
  23400070.314   -11563048.927 8  -8663245.93245  23400069.769    23400077.8164
 99  9 17 18 59  0.0000000  0  9 03 08 23 21 15 29 25 01 31
  24521731.339    10938382.005 7   8542837.11545  24521731.049    24521741.3384
  22500154.270   -12369589.980 8  -9616466.90746  22500153.727    22500161.8304
  24238505.285    18711431.726 7  14584840.55745  24238504.754    24238515.5844
  21099155.152    -6574988.146 9  -5107966.34247  21099154.709    21099161.6914
  21378418.861   -22792003.111 8 -17424283.96647  21378418.259    21378425.4204
  20545373.329   -19574491.438 9 -14905413.38447  20545373.324    20545379.0404
  23263739.822   -12972300.282 8 -10094678.04546  23263739.728    23263748.1654
  23579253.872   -10546247.273 8  -8197177.58745  23579253.473    23579262.7014
  23413619.953   -11491845.292 8  -8607762.65045  23413619.458    23413627.5614
 99  9 17 18 59 30.0000000  0  9 03 08 23 21 15 29 25 01 31
  24540034.714    11034565.843 7   8617785.42045  24540034.397    24540044.6734
  22505967.724   -12339040.743 8  -9592662.35346  22505967.163    22505975.2344
  24252842.031    18786771.398 7  14643546.58445  24252841.487    24252852.5794
  21105900.516    -6539541.095 9  -5080345.29647  21105900.079    21105907.0684
  21364173.120   -22866865.120 8 -17482617.96847  21364172.481    21364179.6244
  20552416.988   -19537477.087 9 -14876571.05947  20552416.968    20552422.6644
  23245214.740   -13069649.927 8 -10170534.79346  23245214.673    23245223.0164
  23561388.260   -10640131.389 8  -8270333.92945  23561387.871    23561397.0554
  23427233.248   -11420307.155 8  -8552018.71845  23427232.754    23427240.8214
 99  9 17 19  0  0.0000000  0  9 03 08 23 21 15 29 25 01 31
  24558340.090    11130760.384 7   8692742.06545  24558339.705    24558350.0574
  22511896.279   -12307886.417 8  -9568386.29746  22511895.688    22511903.7804
  24267204.192    18862243.691 7  14702356.00845  24267203.654    24267214.5574
  21112694.982    -6503836.414 9  -5052523.49947  21112694.526    21112701.4684
  21350005.574   -22941316.209 8 -17540631.77947  21350004.919    21350012.0184
  20559535.398   -19500069.859 9 -14847422.59147  20559535.360    20559541.0264
  23226727.088   -13166802.959 8 -10246238.33446  23226727.021    23226735.2984
  23543562.135   -10733808.321 8  -8343328.82746  23543561.731    23543570.8874
  23440906.388   -11348454.668 8  -8496029.83345  23440905.868    23440913.9954
 99  9 17 19  0 30.0000000  0  9 03 08 23 21 15 29 25 01 31
  24576644.223    11226948.336 7   8767693.57845  24576643.903    24576654.2084
  22517941.981   -12276116.402 8  -9543630.48846  22517941.413    22517949.4924
  24281591.163    18937847.185 7  14761267.67845  24281590.694    24281601.6584
  21119538.808    -6467872.243 9  -5024499.50447  21119538.328    21119545.2734
  21335915.327   -23015361.057 8 -17598329.03847  21335914.654    21335921.7104
  20566727.656   -19462274.845 9 -14817971.95747  20566727.561    20566733.2234
  23208275.701   -13263765.818 8 -10321793.69846  23208275.576    23208283.8064
  23525774.521   -10827282.567 8  -8416165.79246  23525774.116    23525783.2664
  23454637.185   -11276300.043 8  -8439805.50345  23454636.652    23454644.6254
 99  9 17 19  1  0.0000000  0  9 03 08 23 21 15 29 25 01 31
  24594946.865    11323128.362 7   8842638.90445  24594946.362    24594956.7884
  22524103.380   -12243738.899 8  -9518401.30146  22524102.788    22524110.7244
  24295999.871    19013564.920 7  14820268.29745  24295999.439    24296010.5134
  21126433.161    -6431642.461 9  -4996268.53847  21126432.655    21126439.6204
  21321902.657   -23088998.265 8 -17655708.65847  21321901.945    21321908.9604
  20573992.820   -19424096.281 9 -14788222.45147  20573992.721    20573998.3684
  23189860.656   -13360537.385 8 -10397200.00146  23189860.484    23189868.6764
  23508026.356   -10920549.775 8  -8488841.43446  23508025.923    23508034.9894
  23468427.399   -11203832.710 8  -8383337.52445  23468426.846    23468434.7944
 99  9 17 19  1 30.0000000  0  9 03 08 23 21 15 29 25 01 31
  24613248.876    11419305.310 7   8917581.84545  24613248.422    24613258.7844
  22530379.575   -12210757.636 8  -9492701.65646  22530378.983    22530386.8634
  24310431.457    19089402.493 7  14879362.27045  24310430.939    24310442.0304
  21133381.076    -6395131.298 9  -4967818.31847  21133380.535    21133387.5164
  21307968.408   -23162223.358 8 -17712767.14947  21307967.681    21307974.6734
  20581326.906   -19385555.911 9 -14758191.02447  20581326.794    20581332.4054
  23171484.229   -13457106.322 8 -10472448.42246  23171483.965    23171492.0784
  23490318.839   -11013602.943 8  -8561350.28746  23490318.421    23490327.4464
  23482275.877   -11131058.880 8  -8326630.70945  23482275.279    23482283.2734
 99  9 17 19  2  0.0000000  0  9 03 08 23 21 15 29 25 01 31
  24631549.870    11515477.073 7   8992520.73445  24631549.373    24631559.8064
  22536769.194   -12177179.666 8  -9466537.04746  22536768.580    22536776.6074
  24324881.872    19165338.834 7  14938533.46645  24324881.325    24324891.6614
  21140382.857    -6358337.175 9  -4939147.61147  21140382.318    21140389.2764
  21294111.896   -23235039.856 8 -17769507.25447  21294111.124    21294118.1354
  20588727.593   -19346665.126 9 -14727886.54547  20588727.480    20588733.1014
  23153143.375   -13553488.137 8 -10547551.03046  23153143.093    23153151.1194
  23472652.427   -11106440.598 8  -8633691.21746  23472651.971    23472660.8924
  23496182.051   -11057981.801 8  -8269687.60145  23496181.462    23496189.4064
 99  9 17 19  2 30.0000000  0  9 03 08 23 21 15 29 25 01 31
  24649851.435    11611651.706 8   9067461.87145  24649850.933    24649861.3464
  22543270.417   -12143014.910 8  -9439915.21446  22543269.799    22543278.0104
  24339347.769    19241357.411 7  14997768.51945  24339347.161    24339358.3214
  21147437.810    -6321263.405 9  -4910258.99847  21147437.264    21147444.2324
  21280334.368   -23307441.201 8 -17825923.85847  21280333.582    21280340.5644
  20596196.362   -19307416.730 9 -14697303.40647  20596196.230    20596201.8414
  23134836.222   -13649692.331 8 -10622515.22846  23134835.996    23134843.9834
  23455028.403   -11199055.108 8  -8705858.25046  23455027.912    23455036.8264
  23510150.874   -10984575.516 8  -8212487.96145  23510150.282    23510158.1974
 99  9 17 19  3  0.0000000  0  9 03 08 23 21 15 29 25 01 31
  24668152.792    11707825.678 8   9142402.48845  24668152.303    24668162.8004
  22549883.277   -12108264.653 8  -9412837.13946  22549882.621    22549890.8384
  24353829.910    19317461.619 7  15057070.20745  24353829.244    24353840.7644
  21154547.690    -6283900.951 9  -4881145.43347  21154547.142    21154554.1184
  21266636.708   -23379422.946 8 -17882013.51247  21266635.944    21266642.9154
  20603732.632   -19267813.445 9 -14666443.73147  20603732.503    20603738.1364
  23116561.926   -13745724.196 8 -10697345.15546  23116561.697    23116569.6134
  23437447.566   -11291442.644 8  -8777848.41746  23437447.083    23437455.9994
  23524182.988   -10910836.734 8  -8155029.24845  23524182.388    23524190.3094
 99  9 17 19  3 30.0000000  0  9 03 08 23 21 15 29 25 01 31
  24686450.466    11803980.193 8   9217327.94045  24686449.966    24686460.4814
  22556611.971   -12072905.594 8  -9385284.66846  22556611.304    22556619.3924
  24368328.376    19393649.157 8  15116437.05545  24368327.727    24368338.8384
  21161709.045    -6246267.857 9  -4851820.98547  21161708.484    21161715.4754
  21253018.778   -23450985.744 8 -17937776.70947  21253018.012    21253024.9464
  20611335.256   -19227861.645 9 -14635312.48347  20611335.109    20611340.7254
  23098318.715   -13841592.397 8 -10772047.55246  23098318.507    23098326.3814
  23419910.454   -11383600.445 8  -8849659.58746  23419909.954    23419918.8344
  23538275.302   -10836781.693 8  -8097324.09046  23538274.671    23538282.6184
 99  9 17 19  4  0.0000000  0  8 08 23 21 15 29 25 01 31
  22563455.009   -12036945.084 8  -9357263.54346  22563454.296    22563462.4874
  24382841.054    19469912.568 7  15175862.88045  24382840.402    24382851.7684
  21168914.975    -6208400.975 9  -4822314.36147  21168914.386    21168921.3324
  21239478.595   -23522140.002 8 -17993221.56247  21239477.826    21239484.7384
  20619003.541   -19187564.909 9 -14603912.45547  20619003.391    20619008.9944
  23080101.633   -13937323.777 8 -10846643.33646  23080101.438    23080109.2504
  23402413.357   -11475547.942 8  -8921306.90746  23402412.837    23402421.6724
  23552424.007   -10762430.033 8  -8039387.80346  23552423.386    23552431.3214
 99  9 17 19  4 30.0000000  0  8 08 23 21 15 29 25 01 31
  22570411.286   -12000390.180 8  -9328779.25546  22570410.550    22570418.8134
  24397371.212    19546270.320 7  15235362.15145  24397370.680    24397382.2614
  21176165.431    -6170299.679 9  -4792625.08547  21176164.856    21176171.7744
  21226017.235   -23592879.968 8 -18048343.59447  21226016.445    21226023.3474
  20626736.751   -19146926.731 9 -14572246.37147  20626736.587    20626742.1934
  23061911.098   -14032915.423 8 -10921130.23846  23061910.862    23061918.6044
  23384957.194   -11567280.372 8  -8992786.61546  23384956.672    23384965.4614
  23566627.124   -10687792.414 8  -7981228.68746  23566626.534    23566634.5664
 99  9 17 19  5  0.0000000  0  8 08 23 21 15 29 25 01 31
  22577479.819   -11963245.853 8  -9299835.67146  22577479.017    22577487.2694
  24411921.345    19622730.747 7  15294941.66045  24411920.808    24411931.7684
  21183461.632    -6131958.131 9  -4762748.59947  21183461.045    21183467.9524
  21212634.971   -23663204.181 8 -18103141.66347  21212634.179    21212641.0554
  20634533.298   -19105955.709 9 -14540320.92847  20634533.140    20634538.7624
  23043750.406   -14128350.364 8 -10995495.02646  23043750.154    23043757.8684
  23367539.927   -11658808.103 8  -9064106.82146  23367539.399    23367548.2344
  23580881.616   -10612884.621 8  -7922859.04946  23580881.026    23580889.1014
 99  9 17 19  5 30.0000000  0  8 08 23 21 15 29 25 01 31
  22584659.120   -11925518.204 8  -9270437.54546  22584658.366    22584666.6044
  24426491.283    19699294.889 8  15354601.86445  24426490.742    24426501.6954
  21190802.053    -6093384.154 9  -4732691.00047  21190801.483    21190808.4154
  21199331.621   -23733113.442 8 -18157616.39447  21199330.839    21199337.7344
  20642392.003   -19064658.201 9 -14508141.08147  20642391.829    20642397.4424
  23025621.190   -14223619.409 8 -11069730.56046  23025620.954    23025628.7064
  23350159.216   -11750143.831 8  -9135277.42046  23350158.712    23350167.5234
  23595185.319   -10537718.546 8  -7864288.14546  23595184.733    23595192.8234
 99  9 17 19  6  0.0000000  0  8 08 23 21 15 29 25 01 31
  22591944.589   -11887232.905 8  -9240604.89146  22591943.903    22591952.1164
  24441081.075    19775963.789 7  15414343.72745  24441080.582    24441091.6944
  21198190.860    -6054555.658 9  -4702435.07147  21198190.288    21198197.2594
  21186107.602   -23802605.797 8 -18211766.25347  21186106.853    21186113.7464
  20650312.665   -19023034.815 9 -14475707.29847  20650312.516    20650318.1204
  23007526.725   -14318705.968 8 -11143823.87846  23007526.481    23007534.2004
  23332814.174   -11841291.976 8  -9206301.85546  23332813.709    23332822.4144
  23609538.778   -10462291.177 8  -7805513.63446  23609538.197    23609546.2474
 99  9 17 19  6 30.0000000  0  8 08 23 21 15 29 25 01 31
  22599338.344   -11848378.817 8  -9210329.02646  22599337.693    22599345.8704
  24455687.204    19852718.574 7  15474152.39345  24455686.601    24455698.0404
  21205635.301    -6015435.006 9  -4671951.48747  21205634.735    21205641.6964
  21172964.592   -23871672.830 8 -18265584.69847  21172963.832    21172970.7314
  20658295.448   -18981085.124 9 -14443019.25547  20658295.290    20658300.8824
  22989473.834   -14413574.061 8 -11217746.97046  22989473.589    22989481.3274
  23315507.605   -11932238.427 8  -9277169.12646  23315507.140    23315515.7874
  23623942.603   -10386598.568 8  -7746532.45146  23623941.996    23623950.1094
 99  9 17 19  7  0.0000000  0  8 08 23 21 15 29 25 01 31
  22606843.822   -11808937.744 8  -9179595.77546  22606843.168    22606851.3644
  24470308.665    19929555.888 7  15534025.36845  24470308.288    24470319.2754
  21213138.348    -5976006.351 9  -4641227.90447  21213137.780    21213144.7484
  21159904.359   -23940304.630 9 -18319064.00347  21159903.594    21159910.5004
  20666342.172   -18938799.382 9 -14410069.35447  20666342.019    20666347.6244
  22971467.610   -14508196.827 8 -11291478.90046  22971467.424    22971475.1114
  23298240.687   -12022976.374 8  -9347873.93646  23298240.194    23298248.7634
  23638397.344   -10310638.704 8  -7687343.01046  23638396.758    23638404.8514
 99  9 17 19  7 30.0000000  0  8 08 23 21 15 29 25 01 31
  22614462.869   -11768899.407 8  -9148397.12646  22614462.214    22614470.4804
  24484947.008    20006479.470 8  15593965.81645  24484946.613    24484957.3284
  21220700.415    -5936267.683 9  -4610262.75247  21220699.835    21220706.8314
  21146928.951   -24008490.953 9 -18372196.17947  21146928.166    21146935.0814
  20674454.740   -18896167.817 9 -14376849.97947  20674454.583    20674460.1774
  22953507.786   -14602576.149 8 -11365021.14346  22953507.588    22953515.1874
  23281017.795   -12113482.684 8  -9418398.22145  23281017.327    23281025.8844
  23652903.694   -10234407.832 8  -7627942.39946  23652903.125    23652911.1674
 99  9 17 19  8  0.0000000  0  8 08 23 21 15 29 25 01 31
  22622195.035   -11728266.452 8  -9116735.14446  22622194.351    22622202.6544
  24499600.610    20083483.080 7  15653968.43445  24499600.139    24499611.2894
  21228320.854    -5896222.176 9  -4579058.50447  21228320.280    21228327.3064
  21134039.804   -24076223.804 9 -18424975.00547  21134039.039    21134045.9264
  20682635.962   -18853175.186 9 -14343349.26147  20682635.809    20682641.3964
  22935594.532   -14696710.849 8 -11438372.77646  22935594.329    22935601.8414
  23263841.569   -12203743.995 8  -9488731.61445  23263841.098    23263849.6284
  23667463.299   -10157896.958 8  -7568323.60946  23667462.756    23667470.7954
 99  9 17 19  8 30.0000000  0  8 08 23 21 15 29 25 01 31
  22630044.170   -11687019.702 8  -9084594.88346  22630043.457    22630051.7674
  24514272.677    20160584.773 7  15714047.38745  24514272.023    24514283.4624
  21235997.325    -5855881.911 9  -4547624.57447  21235996.775    21236003.8294
  21121238.685   -24143493.999 9 -18477393.32147  21121237.921    21121244.7934
  20690889.164   -18809804.384 9 -14309553.86447  20690889.016    20690894.6124
  22917725.422   -14790613.443 8 -11511543.53346  22917725.179    22917732.6254
  23246714.406   -12293747.708 8  -9558864.29346  23246713.895    23246722.4144
  23682075.375   -10081109.928 8  -7508489.62246  23682074.940    23682082.9214
